<?xml version="1.0" encoding="UTF-8"?>
<gpx version="1.1" creator="2bulu-scraper" xmlns="http://www.topografix.com/GPX/1/1">
  <metadata><name>资中猫儿寨</name><desc>source: 2bulu.com trackId=82046455; exported 2026-09-01T17:51:03.084Z</desc>
    <bounds minlat="29.666283" minlon="104.71752" maxlat="29.684222" maxlon="104.74398"/>
    <link href="https://www.2bulu.com/track/t-GIRSaggwnm3p%252FR2KBg5Tzw%253D%253D.htm"><text>2bulu 源页面</text></link>
  </metadata>
  <wpt lat="29.669828" lon="104.739715"><ele>624</ele><name></name></wpt>
  <wpt lat="29.671026" lon="104.740203"><ele>637</ele><name></name></wpt>
  <wpt lat="29.671958" lon="104.741919"><ele>606</ele><name>左边</name></wpt>
  <wpt lat="29.67224" lon="104.742096"><ele>596</ele><name></name></wpt>
  <wpt lat="29.673636" lon="104.743882"><ele>524</ele><name></name></wpt>
  <wpt lat="29.67861" lon="104.741274"><ele>567</ele><name></name></wpt>
  <wpt lat="29.67924" lon="104.740797"><ele>567</ele><name></name></wpt>
  <wpt lat="29.679574" lon="104.74046"><ele>567</ele><name>左边</name></wpt>
  <wpt lat="29.679657" lon="104.738945"><ele>592</ele><name>路都可以走，往山上去就行</name></wpt>
  <wpt lat="29.679368" lon="104.738657"><ele>600</ele><name>走右边楼梯</name></wpt>
  <wpt lat="29.684072" lon="104.738184"><ele>683</ele><name>左转下坡</name></wpt>
  <wpt lat="29.682453" lon="104.735934"><ele>697</ele><name></name></wpt>
  <wpt lat="29.681029" lon="104.735237"><ele>671</ele><name>左边</name></wpt>
  <wpt lat="29.679132" lon="104.734196"><ele>666</ele><name>右边</name></wpt>
  <wpt lat="29.67818" lon="104.731435"><ele>631</ele><name></name></wpt>
  <wpt lat="29.67791" lon="104.730986"><ele>619</ele><name></name></wpt>
  <wpt lat="29.676595" lon="104.724654"><ele>646</ele><name>走对面</name></wpt>
  <wpt lat="29.670418" lon="104.717535"><ele>651</ele><name>左边</name></wpt>
  <wpt lat="29.669076" lon="104.720054"><ele>641</ele><name>左转</name></wpt>
  <wpt lat="29.66911" lon="104.721547"><ele>646</ele><name>这里可以跟着马路走，那边狗很多</name></wpt>
  <wpt lat="29.668332" lon="104.721709"><ele>622</ele><name></name></wpt>
  <wpt lat="29.667241" lon="104.722901"><ele>620</ele><name></name></wpt>
  <wpt lat="29.667811" lon="104.722953"><ele>634</ele><name></name></wpt>
  <wpt lat="29.668208" lon="104.722739"><ele>634</ele><name>走大路吧，这里好几条没栓绳的狗子，黑起吼</name></wpt>
  <wpt lat="29.668883" lon="104.724679"><ele>623</ele><name></name></wpt>
  <wpt lat="29.667933" lon="104.728318"><ele>665</ele><name></name></wpt>
  <wpt lat="29.668058" lon="104.72841"><ele>665</ele><name></name></wpt>
  <wpt lat="29.666558" lon="104.729349"><ele>651</ele><name>左边下坡</name></wpt>
  <wpt lat="29.666322" lon="104.73274"><ele>582</ele><name></name></wpt>
  <wpt lat="29.668702" lon="104.73358"><ele>612</ele><name>左边</name></wpt>
  <wpt lat="29.6681" lon="104.734481"><ele>591</ele><name></name></wpt>
  <trk><name>资中猫儿寨</name>
      <trkseg>
        <trkpt lat="29.669501" lon="104.740208"><ele>620.2395</ele><time>2026-04-10T19:14:01.000Z</time></trkpt>
        <trkpt lat="29.66945" lon="104.740225"><ele>621.06604</ele><time>2026-04-10T19:14:04.000Z</time></trkpt>
        <trkpt lat="29.669456" lon="104.740157"><ele>621.85785</ele><time>2026-04-10T19:14:11.000Z</time></trkpt>
        <trkpt lat="29.669485" lon="104.740101"><ele>621.56604</ele><time>2026-04-10T19:14:16.000Z</time></trkpt>
        <trkpt lat="29.66952" lon="104.740059"><ele>620.8366</ele><time>2026-04-10T19:14:20.000Z</time></trkpt>
        <trkpt lat="29.66955" lon="104.739999"><ele>620.141</ele><time>2026-04-10T19:14:25.000Z</time></trkpt>
        <trkpt lat="29.669571" lon="104.739948"><ele>619.5685</ele><time>2026-04-10T19:14:28.000Z</time></trkpt>
        <trkpt lat="29.66958" lon="104.739896"><ele>620.59644</ele><time>2026-04-10T19:14:34.000Z</time></trkpt>
        <trkpt lat="29.669603" lon="104.739851"><ele>621.40356</ele><time>2026-04-10T19:14:38.000Z</time></trkpt>
        <trkpt lat="29.669646" lon="104.739819"><ele>622.5099</ele><time>2026-04-10T19:14:43.000Z</time></trkpt>
        <trkpt lat="29.669691" lon="104.739792"><ele>623.3114</ele><time>2026-04-10T19:15:03.000Z</time></trkpt>
        <trkpt lat="29.669738" lon="104.739775"><ele>623.58435</ele><time>2026-04-10T19:15:08.000Z</time></trkpt>
        <trkpt lat="29.669792" lon="104.739758"><ele>624.3087</ele><time>2026-04-10T19:15:14.000Z</time></trkpt>
        <trkpt lat="29.669828" lon="104.739715"><ele>624.1439</ele><time>2026-04-10T19:15:19.000Z</time></trkpt>
        <trkpt lat="29.669871" lon="104.739689"><ele>625.36743</ele><time>2026-04-10T19:15:32.000Z</time></trkpt>
        <trkpt lat="29.669919" lon="104.739667"><ele>625.2377</ele><time>2026-04-10T19:15:36.000Z</time></trkpt>
        <trkpt lat="29.669959" lon="104.739642"><ele>625.5606</ele><time>2026-04-10T19:15:40.000Z</time></trkpt>
        <trkpt lat="29.670004" lon="104.739622"><ele>626.92725</ele><time>2026-04-10T19:15:59.000Z</time></trkpt>
        <trkpt lat="29.670053" lon="104.739604"><ele>627.01294</ele><time>2026-04-10T19:16:05.000Z</time></trkpt>
        <trkpt lat="29.670105" lon="104.739601"><ele>626.8818</ele><time>2026-04-10T19:16:11.000Z</time></trkpt>
        <trkpt lat="29.670151" lon="104.7396"><ele>627.908</ele><time>2026-04-10T19:16:16.000Z</time></trkpt>
        <trkpt lat="29.670198" lon="104.739616"><ele>627.7879</ele><time>2026-04-10T19:16:20.000Z</time></trkpt>
        <trkpt lat="29.670247" lon="104.739627"><ele>628.2893</ele><time>2026-04-10T19:16:24.000Z</time></trkpt>
        <trkpt lat="29.670289" lon="104.739647"><ele>628.9594</ele><time>2026-04-10T19:16:28.000Z</time></trkpt>
        <trkpt lat="29.670335" lon="104.739668"><ele>629.34937</ele><time>2026-04-10T19:16:33.000Z</time></trkpt>
        <trkpt lat="29.670381" lon="104.739683"><ele>629.0424</ele><time>2026-04-10T19:16:38.000Z</time></trkpt>
        <trkpt lat="29.670427" lon="104.739697"><ele>629.33185</ele><time>2026-04-10T19:16:42.000Z</time></trkpt>
        <trkpt lat="29.670473" lon="104.739716"><ele>630.30304</ele><time>2026-04-10T19:16:47.000Z</time></trkpt>
        <trkpt lat="29.670528" lon="104.739721"><ele>631.6967</ele><time>2026-04-10T19:16:52.000Z</time></trkpt>
        <trkpt lat="29.67057" lon="104.739753"><ele>632.83685</ele><time>2026-04-10T19:16:57.000Z</time></trkpt>
        <trkpt lat="29.670603" lon="104.739789"><ele>633.2176</ele><time>2026-04-10T19:17:03.000Z</time></trkpt>
        <trkpt lat="29.670638" lon="104.739822"><ele>634.5001</ele><time>2026-04-10T19:17:08.000Z</time></trkpt>
        <trkpt lat="29.670684" lon="104.739848"><ele>635.70233</ele><time>2026-04-10T19:17:14.000Z</time></trkpt>
        <trkpt lat="29.670726" lon="104.73988"><ele>636.3038</ele><time>2026-04-10T19:17:19.000Z</time></trkpt>
        <trkpt lat="29.670775" lon="104.739899"><ele>636.3865</ele><time>2026-04-10T19:17:25.000Z</time></trkpt>
        <trkpt lat="29.670822" lon="104.739919"><ele>636.8378</ele><time>2026-04-10T19:17:30.000Z</time></trkpt>
        <trkpt lat="29.670867" lon="104.739946"><ele>637.7648</ele><time>2026-04-10T19:17:35.000Z</time></trkpt>
        <trkpt lat="29.670913" lon="104.739981"><ele>637.9185</ele><time>2026-04-10T19:17:40.000Z</time></trkpt>
        <trkpt lat="29.670939" lon="104.740031"><ele>638.163</ele><time>2026-04-10T19:17:45.000Z</time></trkpt>
        <trkpt lat="29.670974" lon="104.740073"><ele>638.4864</ele><time>2026-04-10T19:17:50.000Z</time></trkpt>
        <trkpt lat="29.671016" lon="104.740105"><ele>638.27325</ele><time>2026-04-10T19:17:57.000Z</time></trkpt>
        <trkpt lat="29.670999" lon="104.740159"><ele>638.5939</ele><time>2026-04-10T19:18:28.000Z</time></trkpt>
        <trkpt lat="29.671026" lon="104.740203"><ele>636.83154</ele><time>2026-04-10T19:18:32.000Z</time></trkpt>
        <trkpt lat="29.671053" lon="104.740252"><ele>636.5007</ele><time>2026-04-10T19:18:38.000Z</time></trkpt>
        <trkpt lat="29.671077" lon="104.740308"><ele>636.50726</ele><time>2026-04-10T19:18:50.000Z</time></trkpt>
        <trkpt lat="29.671093" lon="104.740358"><ele>637.2827</ele><time>2026-04-10T19:20:04.000Z</time></trkpt>
        <trkpt lat="29.671123" lon="104.7404"><ele>636.0359</ele><time>2026-04-10T19:20:10.000Z</time></trkpt>
        <trkpt lat="29.67114" lon="104.740459"><ele>632.0284</ele><time>2026-04-10T19:21:19.000Z</time></trkpt>
        <trkpt lat="29.671176" lon="104.740499"><ele>631.9354</ele><time>2026-04-10T19:21:25.000Z</time></trkpt>
        <trkpt lat="29.671208" lon="104.740557"><ele>632.674</ele><time>2026-04-10T19:21:30.000Z</time></trkpt>
        <trkpt lat="29.671238" lon="104.740599"><ele>632.64233</ele><time>2026-04-10T19:21:35.000Z</time></trkpt>
        <trkpt lat="29.67127" lon="104.74065"><ele>630.88385</ele><time>2026-04-10T19:21:42.000Z</time></trkpt>
        <trkpt lat="29.671296" lon="104.7407"><ele>630.8465</ele><time>2026-04-10T19:21:46.000Z</time></trkpt>
        <trkpt lat="29.671322" lon="104.740754"><ele>631.71136</ele><time>2026-04-10T19:21:50.000Z</time></trkpt>
        <trkpt lat="29.67135" lon="104.7408"><ele>630.56836</ele><time>2026-04-10T19:21:54.000Z</time></trkpt>
        <trkpt lat="29.671367" lon="104.740856"><ele>629.0135</ele><time>2026-04-10T19:22:00.000Z</time></trkpt>
        <trkpt lat="29.67138" lon="104.740914"><ele>628.599</ele><time>2026-04-10T19:22:04.000Z</time></trkpt>
        <trkpt lat="29.671406" lon="104.740961"><ele>627.49603</ele><time>2026-04-10T19:22:08.000Z</time></trkpt>
        <trkpt lat="29.671435" lon="104.741013"><ele>625.5505</ele><time>2026-04-10T19:22:13.000Z</time></trkpt>
        <trkpt lat="29.671469" lon="104.741057"><ele>625.57007</ele><time>2026-04-10T19:22:18.000Z</time></trkpt>
        <trkpt lat="29.671507" lon="104.741087"><ele>624.37524</ele><time>2026-04-10T19:22:39.000Z</time></trkpt>
        <trkpt lat="29.671546" lon="104.741127"><ele>623.34625</ele><time>2026-04-10T19:22:44.000Z</time></trkpt>
        <trkpt lat="29.671573" lon="104.741174"><ele>622.29974</ele><time>2026-04-10T19:22:49.000Z</time></trkpt>
        <trkpt lat="29.671606" lon="104.741221"><ele>620.72797</ele><time>2026-04-10T19:22:54.000Z</time></trkpt>
        <trkpt lat="29.671632" lon="104.741268"><ele>619.13416</ele><time>2026-04-10T19:22:58.000Z</time></trkpt>
        <trkpt lat="29.671663" lon="104.741319"><ele>616.5685</ele><time>2026-04-10T19:23:04.000Z</time></trkpt>
        <trkpt lat="29.671691" lon="104.741367"><ele>616.3908</ele><time>2026-04-10T19:23:09.000Z</time></trkpt>
        <trkpt lat="29.671717" lon="104.741412"><ele>613.9977</ele><time>2026-04-10T19:23:15.000Z</time></trkpt>
        <trkpt lat="29.671753" lon="104.741459"><ele>612.0949</ele><time>2026-04-10T19:23:21.000Z</time></trkpt>
        <trkpt lat="29.67179" lon="104.741498"><ele>611.9498</ele><time>2026-04-10T19:23:25.000Z</time></trkpt>
        <trkpt lat="29.67182" lon="104.741537"><ele>610.79156</ele><time>2026-04-10T19:23:31.000Z</time></trkpt>
        <trkpt lat="29.671849" lon="104.741582"><ele>610.3748</ele><time>2026-04-10T19:23:36.000Z</time></trkpt>
        <trkpt lat="29.671867" lon="104.741634"><ele>609.3511</ele><time>2026-04-10T19:23:41.000Z</time></trkpt>
        <trkpt lat="29.671887" lon="104.741686"><ele>607.74</ele><time>2026-04-10T19:23:46.000Z</time></trkpt>
        <trkpt lat="29.671897" lon="104.741745"><ele>606.6482</ele><time>2026-04-10T19:23:51.000Z</time></trkpt>
        <trkpt lat="29.67192" lon="104.741804"><ele>606.5311</ele><time>2026-04-10T19:23:56.000Z</time></trkpt>
        <trkpt lat="29.671931" lon="104.741864"><ele>606.49243</ele><time>2026-04-10T19:24:01.000Z</time></trkpt>
        <trkpt lat="29.671958" lon="104.741919"><ele>605.9853</ele><time>2026-04-10T19:24:06.000Z</time></trkpt>
        <trkpt lat="29.671995" lon="104.741953"><ele>603.41034</ele><time>2026-04-10T19:24:36.000Z</time></trkpt>
        <trkpt lat="29.672027" lon="104.741996"><ele>601.5741</ele><time>2026-04-10T19:24:47.000Z</time></trkpt>
        <trkpt lat="29.672065" lon="104.742026"><ele>599.88354</ele><time>2026-04-10T19:25:11.000Z</time></trkpt>
        <trkpt lat="29.672109" lon="104.74204"><ele>598.5479</ele><time>2026-04-10T19:25:17.000Z</time></trkpt>
        <trkpt lat="29.672152" lon="104.742059"><ele>597.23773</ele><time>2026-04-10T19:25:24.000Z</time></trkpt>
        <trkpt lat="29.672196" lon="104.742073"><ele>595.58704</ele><time>2026-04-10T19:25:30.000Z</time></trkpt>
        <trkpt lat="29.67224" lon="104.742096"><ele>595.7756</ele><time>2026-04-10T19:25:37.000Z</time></trkpt>
        <trkpt lat="29.672279" lon="104.742124"><ele>595.5478</ele><time>2026-04-10T19:26:34.000Z</time></trkpt>
        <trkpt lat="29.672292" lon="104.742182"><ele>589.68866</ele><time>2026-04-10T19:26:53.000Z</time></trkpt>
        <trkpt lat="29.672323" lon="104.742232"><ele>587.39453</ele><time>2026-04-10T19:26:59.000Z</time></trkpt>
        <trkpt lat="29.672349" lon="104.742284"><ele>587.129</ele><time>2026-04-10T19:27:06.000Z</time></trkpt>
        <trkpt lat="29.672369" lon="104.742342"><ele>585.71173</ele><time>2026-04-10T19:27:11.000Z</time></trkpt>
        <trkpt lat="29.672387" lon="104.742404"><ele>584.4013</ele><time>2026-04-10T19:27:16.000Z</time></trkpt>
        <trkpt lat="29.672399" lon="104.742459"><ele>584.05585</ele><time>2026-04-10T19:27:21.000Z</time></trkpt>
        <trkpt lat="29.672402" lon="104.742518"><ele>584.06854</ele><time>2026-04-10T19:27:25.000Z</time></trkpt>
        <trkpt lat="29.672414" lon="104.742579"><ele>583.9938</ele><time>2026-04-10T19:27:29.000Z</time></trkpt>
        <trkpt lat="29.672427" lon="104.742637"><ele>583.44745</ele><time>2026-04-10T19:27:33.000Z</time></trkpt>
        <trkpt lat="29.672449" lon="104.742696"><ele>582.83044</ele><time>2026-04-10T19:27:37.000Z</time></trkpt>
        <trkpt lat="29.672458" lon="104.742751"><ele>582.7088</ele><time>2026-04-10T19:27:41.000Z</time></trkpt>
        <trkpt lat="29.672469" lon="104.742814"><ele>583.3649</ele><time>2026-04-10T19:27:46.000Z</time></trkpt>
        <trkpt lat="29.672491" lon="104.742868"><ele>583.09827</ele><time>2026-04-10T19:27:51.000Z</time></trkpt>
        <trkpt lat="29.672506" lon="104.742922"><ele>582.78107</ele><time>2026-04-10T19:27:56.000Z</time></trkpt>
        <trkpt lat="29.672512" lon="104.742976"><ele>583.04767</ele><time>2026-04-10T19:28:00.000Z</time></trkpt>
        <trkpt lat="29.672536" lon="104.743029"><ele>582.1091</ele><time>2026-04-10T19:28:05.000Z</time></trkpt>
        <trkpt lat="29.67254" lon="104.743084"><ele>582.324</ele><time>2026-04-10T19:28:09.000Z</time></trkpt>
        <trkpt lat="29.672537" lon="104.74314"><ele>580.98517</ele><time>2026-04-10T19:28:15.000Z</time></trkpt>
        <trkpt lat="29.672561" lon="104.743194"><ele>580.4685</ele><time>2026-04-10T19:28:20.000Z</time></trkpt>
        <trkpt lat="29.672581" lon="104.743244"><ele>580.16974</ele><time>2026-04-10T19:28:25.000Z</time></trkpt>
        <trkpt lat="29.672591" lon="104.743299"><ele>579.3653</ele><time>2026-04-10T19:28:30.000Z</time></trkpt>
        <trkpt lat="29.67262" lon="104.743347"><ele>570.59344</ele><time>2026-04-10T19:28:35.000Z</time></trkpt>
        <trkpt lat="29.672638" lon="104.743401"><ele>567.14166</ele><time>2026-04-10T19:28:40.000Z</time></trkpt>
        <trkpt lat="29.672667" lon="104.74345"><ele>566.1011</ele><time>2026-04-10T19:28:45.000Z</time></trkpt>
        <trkpt lat="29.67269" lon="104.743504"><ele>564.9656</ele><time>2026-04-10T19:28:50.000Z</time></trkpt>
        <trkpt lat="29.672716" lon="104.743561"><ele>563.5615</ele><time>2026-04-10T19:29:00.000Z</time></trkpt>
        <trkpt lat="29.67272" lon="104.743615"><ele>563.8387</ele><time>2026-04-10T19:29:08.000Z</time></trkpt>
        <trkpt lat="29.672736" lon="104.743675"><ele>562.1539</ele><time>2026-04-10T19:29:14.000Z</time></trkpt>
        <trkpt lat="29.672737" lon="104.74373"><ele>561.3978</ele><time>2026-04-10T19:29:21.000Z</time></trkpt>
        <trkpt lat="29.672757" lon="104.743778"><ele>559.80005</ele><time>2026-04-10T19:29:29.000Z</time></trkpt>
        <trkpt lat="29.672782" lon="104.743822"><ele>557.08057</ele><time>2026-04-10T19:29:40.000Z</time></trkpt>
        <trkpt lat="29.672781" lon="104.743876"><ele>569.5214</ele><time>2026-04-10T19:31:16.000Z</time></trkpt>
        <trkpt lat="29.672827" lon="104.743872"><ele>563.17676</ele><time>2026-04-10T19:32:31.000Z</time></trkpt>
        <trkpt lat="29.672873" lon="104.743873"><ele>559.68396</ele><time>2026-04-10T19:33:07.000Z</time></trkpt>
        <trkpt lat="29.672914" lon="104.74391"><ele>549.7716</ele><time>2026-04-10T19:33:20.000Z</time></trkpt>
        <trkpt lat="29.672944" lon="104.74395"><ele>547.70105</ele><time>2026-04-10T19:33:37.000Z</time></trkpt>
        <trkpt lat="29.672951" lon="104.743892"><ele>546.26263</ele><time>2026-04-10T19:33:45.000Z</time></trkpt>
        <trkpt lat="29.672925" lon="104.743849"><ele>544.7893</ele><time>2026-04-10T19:33:54.000Z</time></trkpt>
        <trkpt lat="29.672912" lon="104.743799"><ele>544.4972</ele><time>2026-04-10T19:34:00.000Z</time></trkpt>
        <trkpt lat="29.672957" lon="104.743819"><ele>542.9859</ele><time>2026-04-10T19:34:35.000Z</time></trkpt>
        <trkpt lat="29.672989" lon="104.743861"><ele>541.91235</ele><time>2026-04-10T19:34:45.000Z</time></trkpt>
        <trkpt lat="29.673012" lon="104.743907"><ele>540.0742</ele><time>2026-04-10T19:35:02.000Z</time></trkpt>
        <trkpt lat="29.673055" lon="104.743924"><ele>538.3306</ele><time>2026-04-10T19:35:19.000Z</time></trkpt>
        <trkpt lat="29.673082" lon="104.743969"><ele>536.7377</ele><time>2026-04-10T19:35:31.000Z</time></trkpt>
        <trkpt lat="29.673111" lon="104.743925"><ele>534.75616</ele><time>2026-04-10T19:36:13.000Z</time></trkpt>
        <trkpt lat="29.673115" lon="104.743869"><ele>533.7598</ele><time>2026-04-10T19:36:21.000Z</time></trkpt>
        <trkpt lat="29.673122" lon="104.743816"><ele>533.72687</ele><time>2026-04-10T19:36:40.000Z</time></trkpt>
        <trkpt lat="29.67317" lon="104.743811"><ele>531.50183</ele><time>2026-04-10T19:37:08.000Z</time></trkpt>
        <trkpt lat="29.673215" lon="104.743829"><ele>530.1068</ele><time>2026-04-10T19:37:21.000Z</time></trkpt>
        <trkpt lat="29.673262" lon="104.743837"><ele>528.04944</ele><time>2026-04-10T19:37:48.000Z</time></trkpt>
        <trkpt lat="29.673306" lon="104.743869"><ele>526.0556</ele><time>2026-04-10T19:38:00.000Z</time></trkpt>
        <trkpt lat="29.673336" lon="104.743914"><ele>526.04565</ele><time>2026-04-10T19:38:16.000Z</time></trkpt>
        <trkpt lat="29.673352" lon="104.743964"><ele>525.18396</ele><time>2026-04-10T19:38:25.000Z</time></trkpt>
        <trkpt lat="29.673375" lon="104.743917"><ele>525.2342</ele><time>2026-04-10T19:38:39.000Z</time></trkpt>
        <trkpt lat="29.673397" lon="104.743868"><ele>523.06055</ele><time>2026-04-10T19:38:57.000Z</time></trkpt>
        <trkpt lat="29.673441" lon="104.743892"><ele>523.33167</ele><time>2026-04-10T19:39:08.000Z</time></trkpt>
        <trkpt lat="29.673482" lon="104.743915"><ele>521.9651</ele><time>2026-04-10T19:39:15.000Z</time></trkpt>
        <trkpt lat="29.673537" lon="104.74391"><ele>522.2994</ele><time>2026-04-10T19:39:20.000Z</time></trkpt>
        <trkpt lat="29.673588" lon="104.743903"><ele>522.83563</ele><time>2026-04-10T19:39:25.000Z</time></trkpt>
        <trkpt lat="29.673636" lon="104.743882"><ele>523.7356</ele><time>2026-04-10T19:40:11.000Z</time></trkpt>
        <trkpt lat="29.673683" lon="104.743899"><ele>523.8628</ele><time>2026-04-10T19:40:17.000Z</time></trkpt>
        <trkpt lat="29.673723" lon="104.743926"><ele>522.9274</ele><time>2026-04-10T19:40:25.000Z</time></trkpt>
        <trkpt lat="29.673756" lon="104.743967"><ele>525.28253</ele><time>2026-04-10T19:40:30.000Z</time></trkpt>
        <trkpt lat="29.673805" lon="104.74398"><ele>525.67816</ele><time>2026-04-10T19:40:35.000Z</time></trkpt>
        <trkpt lat="29.67386" lon="104.743956"><ele>525.9726</ele><time>2026-04-10T19:40:47.000Z</time></trkpt>
        <trkpt lat="29.673909" lon="104.743945"><ele>525.4327</ele><time>2026-04-10T19:40:52.000Z</time></trkpt>
        <trkpt lat="29.673956" lon="104.743922"><ele>526.9458</ele><time>2026-04-10T19:40:56.000Z</time></trkpt>
        <trkpt lat="29.67401" lon="104.743904"><ele>529.0473</ele><time>2026-04-10T19:41:07.000Z</time></trkpt>
        <trkpt lat="29.674061" lon="104.743885"><ele>532.1036</ele><time>2026-04-10T19:41:11.000Z</time></trkpt>
        <trkpt lat="29.674102" lon="104.743847"><ele>533.5689</ele><time>2026-04-10T19:41:16.000Z</time></trkpt>
        <trkpt lat="29.674148" lon="104.74383"><ele>534.7364</ele><time>2026-04-10T19:41:21.000Z</time></trkpt>
        <trkpt lat="29.674198" lon="104.74381"><ele>535.69275</ele><time>2026-04-10T19:41:26.000Z</time></trkpt>
        <trkpt lat="29.674236" lon="104.743779"><ele>537.265</ele><time>2026-04-10T19:41:30.000Z</time></trkpt>
        <trkpt lat="29.674278" lon="104.743736"><ele>538.0297</ele><time>2026-04-10T19:41:35.000Z</time></trkpt>
        <trkpt lat="29.674312" lon="104.7437"><ele>539.347</ele><time>2026-04-10T19:41:40.000Z</time></trkpt>
        <trkpt lat="29.674344" lon="104.743655"><ele>542.1921</ele><time>2026-04-10T19:41:47.000Z</time></trkpt>
        <trkpt lat="29.674349" lon="104.743599"><ele>544.2132</ele><time>2026-04-10T19:41:54.000Z</time></trkpt>
        <trkpt lat="29.674387" lon="104.743564"><ele>543.96027</ele><time>2026-04-10T19:41:58.000Z</time></trkpt>
        <trkpt lat="29.67443" lon="104.743543"><ele>543.5909</ele><time>2026-04-10T19:42:03.000Z</time></trkpt>
        <trkpt lat="29.67447" lon="104.743518"><ele>545.95764</ele><time>2026-04-10T19:42:08.000Z</time></trkpt>
        <trkpt lat="29.674522" lon="104.743491"><ele>547.9885</ele><time>2026-04-10T19:42:15.000Z</time></trkpt>
        <trkpt lat="29.674574" lon="104.743458"><ele>548.2703</ele><time>2026-04-10T19:42:21.000Z</time></trkpt>
        <trkpt lat="29.674633" lon="104.743452"><ele>549.172</ele><time>2026-04-10T19:42:25.000Z</time></trkpt>
        <trkpt lat="29.674685" lon="104.743443"><ele>549.67017</ele><time>2026-04-10T19:42:29.000Z</time></trkpt>
        <trkpt lat="29.67473" lon="104.743426"><ele>551.5692</ele><time>2026-04-10T19:42:38.000Z</time></trkpt>
        <trkpt lat="29.67477" lon="104.74339"><ele>550.97266</ele><time>2026-04-10T19:42:42.000Z</time></trkpt>
        <trkpt lat="29.674782" lon="104.743333"><ele>550.9971</ele><time>2026-04-10T19:42:45.000Z</time></trkpt>
        <trkpt lat="29.674824" lon="104.7433"><ele>550.1477</ele><time>2026-04-10T19:42:49.000Z</time></trkpt>
        <trkpt lat="29.674851" lon="104.743257"><ele>550.2587</ele><time>2026-04-10T19:42:52.000Z</time></trkpt>
        <trkpt lat="29.67489" lon="104.743224"><ele>550.05707</ele><time>2026-04-10T19:42:55.000Z</time></trkpt>
        <trkpt lat="29.674933" lon="104.743191"><ele>550.8217</ele><time>2026-04-10T19:42:59.000Z</time></trkpt>
        <trkpt lat="29.674975" lon="104.743159"><ele>551.2255</ele><time>2026-04-10T19:43:03.000Z</time></trkpt>
        <trkpt lat="29.67501" lon="104.743123"><ele>551.2672</ele><time>2026-04-10T19:43:08.000Z</time></trkpt>
        <trkpt lat="29.675052" lon="104.743073"><ele>550.3357</ele><time>2026-04-10T19:43:15.000Z</time></trkpt>
        <trkpt lat="29.675063" lon="104.743014"><ele>551.3192</ele><time>2026-04-10T19:43:19.000Z</time></trkpt>
        <trkpt lat="29.675107" lon="104.742983"><ele>551.8666</ele><time>2026-04-10T19:43:23.000Z</time></trkpt>
        <trkpt lat="29.675142" lon="104.742939"><ele>551.98956</ele><time>2026-04-10T19:43:27.000Z</time></trkpt>
        <trkpt lat="29.6752" lon="104.742936"><ele>552.33215</ele><time>2026-04-10T19:43:32.000Z</time></trkpt>
        <trkpt lat="29.675241" lon="104.742896"><ele>552.68384</ele><time>2026-04-10T19:43:37.000Z</time></trkpt>
        <trkpt lat="29.675279" lon="104.742852"><ele>551.3134</ele><time>2026-04-10T19:43:41.000Z</time></trkpt>
        <trkpt lat="29.675311" lon="104.742806"><ele>550.42334</ele><time>2026-04-10T19:43:45.000Z</time></trkpt>
        <trkpt lat="29.675363" lon="104.742811"><ele>550.3438</ele><time>2026-04-10T19:43:49.000Z</time></trkpt>
        <trkpt lat="29.675402" lon="104.742844"><ele>549.9158</ele><time>2026-04-10T19:43:53.000Z</time></trkpt>
        <trkpt lat="29.675445" lon="104.742878"><ele>549.3658</ele><time>2026-04-10T19:43:58.000Z</time></trkpt>
        <trkpt lat="29.675494" lon="104.742881"><ele>548.31573</ele><time>2026-04-10T19:44:04.000Z</time></trkpt>
        <trkpt lat="29.67555" lon="104.742882"><ele>546.80585</ele><time>2026-04-10T19:44:09.000Z</time></trkpt>
        <trkpt lat="29.675589" lon="104.742911"><ele>546.86566</ele><time>2026-04-10T19:44:12.000Z</time></trkpt>
        <trkpt lat="29.675644" lon="104.742912"><ele>547.4618</ele><time>2026-04-10T19:44:17.000Z</time></trkpt>
        <trkpt lat="29.675703" lon="104.742911"><ele>547.9399</ele><time>2026-04-10T19:44:22.000Z</time></trkpt>
        <trkpt lat="29.675748" lon="104.742884"><ele>548.4895</ele><time>2026-04-10T19:44:26.000Z</time></trkpt>
        <trkpt lat="29.675797" lon="104.742888"><ele>549.61914</ele><time>2026-04-10T19:44:30.000Z</time></trkpt>
        <trkpt lat="29.675847" lon="104.742862"><ele>549.5565</ele><time>2026-04-10T19:44:34.000Z</time></trkpt>
        <trkpt lat="29.675892" lon="104.742821"><ele>550.0626</ele><time>2026-04-10T19:44:38.000Z</time></trkpt>
        <trkpt lat="29.67594" lon="104.74281"><ele>550.0874</ele><time>2026-04-10T19:44:41.000Z</time></trkpt>
        <trkpt lat="29.675992" lon="104.742808"><ele>550.58844</ele><time>2026-04-10T19:44:45.000Z</time></trkpt>
        <trkpt lat="29.676039" lon="104.742779"><ele>550.4142</ele><time>2026-04-10T19:44:49.000Z</time></trkpt>
        <trkpt lat="29.67609" lon="104.742765"><ele>549.65466</ele><time>2026-04-10T19:44:52.000Z</time></trkpt>
        <trkpt lat="29.676141" lon="104.74275"><ele>549.8541</ele><time>2026-04-10T19:44:56.000Z</time></trkpt>
        <trkpt lat="29.676194" lon="104.74274"><ele>550.00244</ele><time>2026-04-10T19:45:00.000Z</time></trkpt>
        <trkpt lat="29.676237" lon="104.742714"><ele>549.566</ele><time>2026-04-10T19:45:04.000Z</time></trkpt>
        <trkpt lat="29.676269" lon="104.742673"><ele>549.5354</ele><time>2026-04-10T19:45:08.000Z</time></trkpt>
        <trkpt lat="29.676291" lon="104.742623"><ele>549.7412</ele><time>2026-04-10T19:45:12.000Z</time></trkpt>
        <trkpt lat="29.676311" lon="104.74257"><ele>549.9159</ele><time>2026-04-10T19:45:16.000Z</time></trkpt>
        <trkpt lat="29.676324" lon="104.742516"><ele>549.6769</ele><time>2026-04-10T19:45:20.000Z</time></trkpt>
        <trkpt lat="29.676337" lon="104.742465"><ele>549.3235</ele><time>2026-04-10T19:45:24.000Z</time></trkpt>
        <trkpt lat="29.676344" lon="104.742404"><ele>548.8094</ele><time>2026-04-10T19:45:28.000Z</time></trkpt>
        <trkpt lat="29.676352" lon="104.742345"><ele>548.08545</ele><time>2026-04-10T19:45:33.000Z</time></trkpt>
        <trkpt lat="29.676375" lon="104.742298"><ele>547.43884</ele><time>2026-04-10T19:45:37.000Z</time></trkpt>
        <trkpt lat="29.676376" lon="104.742244"><ele>545.51776</ele><time>2026-04-10T19:45:44.000Z</time></trkpt>
        <trkpt lat="29.676402" lon="104.742198"><ele>544.8126</ele><time>2026-04-10T19:45:48.000Z</time></trkpt>
        <trkpt lat="29.676426" lon="104.742152"><ele>543.53357</ele><time>2026-04-10T19:45:52.000Z</time></trkpt>
        <trkpt lat="29.676445" lon="104.742103"><ele>544.1617</ele><time>2026-04-10T19:45:56.000Z</time></trkpt>
        <trkpt lat="29.676472" lon="104.742057"><ele>544.48193</ele><time>2026-04-10T19:46:00.000Z</time></trkpt>
        <trkpt lat="29.676493" lon="104.741998"><ele>544.6551</ele><time>2026-04-10T19:46:05.000Z</time></trkpt>
        <trkpt lat="29.676523" lon="104.741953"><ele>545.0524</ele><time>2026-04-10T19:46:09.000Z</time></trkpt>
        <trkpt lat="29.676556" lon="104.741912"><ele>545.33545</ele><time>2026-04-10T19:46:13.000Z</time></trkpt>
        <trkpt lat="29.676596" lon="104.741876"><ele>545.54663</ele><time>2026-04-10T19:46:17.000Z</time></trkpt>
        <trkpt lat="29.676645" lon="104.741852"><ele>545.31726</ele><time>2026-04-10T19:46:22.000Z</time></trkpt>
        <trkpt lat="29.676692" lon="104.741834"><ele>544.7929</ele><time>2026-04-10T19:46:26.000Z</time></trkpt>
        <trkpt lat="29.676738" lon="104.741828"><ele>544.4944</ele><time>2026-04-10T19:46:30.000Z</time></trkpt>
        <trkpt lat="29.676787" lon="104.741828"><ele>544.7138</ele><time>2026-04-10T19:46:34.000Z</time></trkpt>
        <trkpt lat="29.676835" lon="104.741822"><ele>544.81915</ele><time>2026-04-10T19:46:38.000Z</time></trkpt>
        <trkpt lat="29.676884" lon="104.741807"><ele>545.1724</ele><time>2026-04-10T19:46:42.000Z</time></trkpt>
        <trkpt lat="29.676943" lon="104.741791"><ele>545.27747</ele><time>2026-04-10T19:46:47.000Z</time></trkpt>
        <trkpt lat="29.676992" lon="104.741784"><ele>545.38043</ele><time>2026-04-10T19:46:51.000Z</time></trkpt>
        <trkpt lat="29.67704" lon="104.741793"><ele>545.0977</ele><time>2026-04-10T19:46:55.000Z</time></trkpt>
        <trkpt lat="29.677094" lon="104.74181"><ele>545.7833</ele><time>2026-04-10T19:46:59.000Z</time></trkpt>
        <trkpt lat="29.677149" lon="104.741818"><ele>547.2155</ele><time>2026-04-10T19:47:04.000Z</time></trkpt>
        <trkpt lat="29.677199" lon="104.741825"><ele>548.0337</ele><time>2026-04-10T19:47:08.000Z</time></trkpt>
        <trkpt lat="29.677255" lon="104.741829"><ele>548.55396</ele><time>2026-04-10T19:47:13.000Z</time></trkpt>
        <trkpt lat="29.677302" lon="104.741822"><ele>548.60175</ele><time>2026-04-10T19:47:17.000Z</time></trkpt>
        <trkpt lat="29.677349" lon="104.741802"><ele>548.52637</ele><time>2026-04-10T19:47:22.000Z</time></trkpt>
        <trkpt lat="29.677394" lon="104.741783"><ele>549.2539</ele><time>2026-04-10T19:47:26.000Z</time></trkpt>
        <trkpt lat="29.677446" lon="104.74176"><ele>550.0899</ele><time>2026-04-10T19:47:31.000Z</time></trkpt>
        <trkpt lat="29.677488" lon="104.741737"><ele>551.35376</ele><time>2026-04-10T19:47:36.000Z</time></trkpt>
        <trkpt lat="29.677537" lon="104.741724"><ele>551.9596</ele><time>2026-04-10T19:47:40.000Z</time></trkpt>
        <trkpt lat="29.677579" lon="104.741701"><ele>552.53436</ele><time>2026-04-10T19:47:44.000Z</time></trkpt>
        <trkpt lat="29.677617" lon="104.741674"><ele>552.2814</ele><time>2026-04-10T19:47:48.000Z</time></trkpt>
        <trkpt lat="29.67767" lon="104.741655"><ele>552.462</ele><time>2026-04-10T19:47:52.000Z</time></trkpt>
        <trkpt lat="29.677713" lon="104.741636"><ele>552.5171</ele><time>2026-04-10T19:47:56.000Z</time></trkpt>
        <trkpt lat="29.677761" lon="104.741622"><ele>552.91876</ele><time>2026-04-10T19:48:00.000Z</time></trkpt>
        <trkpt lat="29.677812" lon="104.741634"><ele>552.68317</ele><time>2026-04-10T19:48:05.000Z</time></trkpt>
        <trkpt lat="29.677856" lon="104.741678"><ele>552.51697</ele><time>2026-04-10T19:48:10.000Z</time></trkpt>
        <trkpt lat="29.677887" lon="104.741725"><ele>553.2669</ele><time>2026-04-10T19:48:14.000Z</time></trkpt>
        <trkpt lat="29.677911" lon="104.741781"><ele>553.66833</ele><time>2026-04-10T19:48:18.000Z</time></trkpt>
        <trkpt lat="29.677957" lon="104.741818"><ele>553.8494</ele><time>2026-04-10T19:48:23.000Z</time></trkpt>
        <trkpt lat="29.678018" lon="104.741827"><ele>554.541</ele><time>2026-04-10T19:48:28.000Z</time></trkpt>
        <trkpt lat="29.678061" lon="104.741849"><ele>554.80945</ele><time>2026-04-10T19:48:32.000Z</time></trkpt>
        <trkpt lat="29.67811" lon="104.741857"><ele>555.6522</ele><time>2026-04-10T19:48:37.000Z</time></trkpt>
        <trkpt lat="29.678156" lon="104.74185"><ele>556.13025</ele><time>2026-04-10T19:48:40.000Z</time></trkpt>
        <trkpt lat="29.6782" lon="104.741836"><ele>556.64905</ele><time>2026-04-10T19:48:44.000Z</time></trkpt>
        <trkpt lat="29.678244" lon="104.741818"><ele>557.28864</ele><time>2026-04-10T19:48:48.000Z</time></trkpt>
        <trkpt lat="29.67829" lon="104.741819"><ele>557.4969</ele><time>2026-04-10T19:48:52.000Z</time></trkpt>
        <trkpt lat="29.678344" lon="104.741788"><ele>558.6723</ele><time>2026-04-10T19:48:57.000Z</time></trkpt>
        <trkpt lat="29.678393" lon="104.741763"><ele>560.1548</ele><time>2026-04-10T19:49:00.000Z</time></trkpt>
        <trkpt lat="29.678425" lon="104.74172"><ele>560.6913</ele><time>2026-04-10T19:49:05.000Z</time></trkpt>
        <trkpt lat="29.678455" lon="104.741671"><ele>561.31366</ele><time>2026-04-10T19:49:10.000Z</time></trkpt>
        <trkpt lat="29.67845" lon="104.741614"><ele>562.0303</ele><time>2026-04-10T19:49:20.000Z</time></trkpt>
        <trkpt lat="29.678435" lon="104.741564"><ele>563.32324</ele><time>2026-04-10T19:49:25.000Z</time></trkpt>
        <trkpt lat="29.678425" lon="104.74151"><ele>565.8433</ele><time>2026-04-10T19:49:32.000Z</time></trkpt>
        <trkpt lat="29.678455" lon="104.741467"><ele>565.7105</ele><time>2026-04-10T19:49:42.000Z</time></trkpt>
        <trkpt lat="29.678494" lon="104.741441"><ele>565.8045</ele><time>2026-04-10T19:49:46.000Z</time></trkpt>
        <trkpt lat="29.678527" lon="104.741402"><ele>566.08734</ele><time>2026-04-10T19:49:50.000Z</time></trkpt>
        <trkpt lat="29.678553" lon="104.741357"><ele>566.19415</ele><time>2026-04-10T19:49:54.000Z</time></trkpt>
        <trkpt lat="29.678585" lon="104.741318"><ele>567.19604</ele><time>2026-04-10T19:49:58.000Z</time></trkpt>
        <trkpt lat="29.67861" lon="104.741274"><ele>566.8086</ele><time>2026-04-10T19:50:02.000Z</time></trkpt>
        <trkpt lat="29.67864" lon="104.741221"><ele>567.608</ele><time>2026-04-10T19:50:13.000Z</time></trkpt>
        <trkpt lat="29.678662" lon="104.741171"><ele>567.7926</ele><time>2026-04-10T19:50:18.000Z</time></trkpt>
        <trkpt lat="29.678683" lon="104.741121"><ele>568.1315</ele><time>2026-04-10T19:50:22.000Z</time></trkpt>
        <trkpt lat="29.678711" lon="104.741075"><ele>569.06244</ele><time>2026-04-10T19:50:30.000Z</time></trkpt>
        <trkpt lat="29.678749" lon="104.741029"><ele>568.5042</ele><time>2026-04-10T19:50:37.000Z</time></trkpt>
        <trkpt lat="29.678792" lon="104.74099"><ele>568.0447</ele><time>2026-04-10T19:50:42.000Z</time></trkpt>
        <trkpt lat="29.678825" lon="104.740954"><ele>567.956</ele><time>2026-04-10T19:50:46.000Z</time></trkpt>
        <trkpt lat="29.678864" lon="104.740924"><ele>566.56494</ele><time>2026-04-10T19:50:50.000Z</time></trkpt>
        <trkpt lat="29.678909" lon="104.740884"><ele>565.70795</ele><time>2026-04-10T19:50:55.000Z</time></trkpt>
        <trkpt lat="29.678954" lon="104.740862"><ele>564.10345</ele><time>2026-04-10T19:50:59.000Z</time></trkpt>
        <trkpt lat="29.679003" lon="104.740855"><ele>564.47205</ele><time>2026-04-10T19:51:03.000Z</time></trkpt>
        <trkpt lat="29.679052" lon="104.74087"><ele>563.5815</ele><time>2026-04-10T19:51:07.000Z</time></trkpt>
        <trkpt lat="29.679091" lon="104.740843"><ele>563.558</ele><time>2026-04-10T19:51:16.000Z</time></trkpt>
        <trkpt lat="29.679144" lon="104.740827"><ele>564.34283</ele><time>2026-04-10T19:51:20.000Z</time></trkpt>
        <trkpt lat="29.679188" lon="104.740801"><ele>565.61835</ele><time>2026-04-10T19:51:24.000Z</time></trkpt>
        <trkpt lat="29.67924" lon="104.740797"><ele>566.61096</ele><time>2026-04-10T19:51:28.000Z</time></trkpt>
        <trkpt lat="29.679293" lon="104.740797"><ele>567.3513</ele><time>2026-04-10T19:51:32.000Z</time></trkpt>
        <trkpt lat="29.679344" lon="104.740791"><ele>567.01935</ele><time>2026-04-10T19:51:37.000Z</time></trkpt>
        <trkpt lat="29.679392" lon="104.740794"><ele>566.3853</ele><time>2026-04-10T19:51:41.000Z</time></trkpt>
        <trkpt lat="29.679445" lon="104.740773"><ele>565.61597</ele><time>2026-04-10T19:51:46.000Z</time></trkpt>
        <trkpt lat="29.679482" lon="104.740735"><ele>565.29913</ele><time>2026-04-10T19:51:50.000Z</time></trkpt>
        <trkpt lat="29.679508" lon="104.740683"><ele>566.1277</ele><time>2026-04-10T19:51:54.000Z</time></trkpt>
        <trkpt lat="29.679525" lon="104.740635"><ele>566.458</ele><time>2026-04-10T19:51:58.000Z</time></trkpt>
        <trkpt lat="29.679551" lon="104.740573"><ele>566.9651</ele><time>2026-04-10T19:52:03.000Z</time></trkpt>
        <trkpt lat="29.679562" lon="104.740519"><ele>566.97705</ele><time>2026-04-10T19:52:07.000Z</time></trkpt>
        <trkpt lat="29.679574" lon="104.74046"><ele>567.39954</ele><time>2026-04-10T19:52:12.000Z</time></trkpt>
        <trkpt lat="29.679579" lon="104.740402"><ele>567.5031</ele><time>2026-04-10T19:52:22.000Z</time></trkpt>
        <trkpt lat="29.679566" lon="104.740347"><ele>567.92017</ele><time>2026-04-10T19:52:28.000Z</time></trkpt>
        <trkpt lat="29.679551" lon="104.740293"><ele>568.2224</ele><time>2026-04-10T19:52:35.000Z</time></trkpt>
        <trkpt lat="29.679544" lon="104.740229"><ele>569.6824</ele><time>2026-04-10T19:52:47.000Z</time></trkpt>
        <trkpt lat="29.67953" lon="104.74017"><ele>569.75024</ele><time>2026-04-10T19:52:51.000Z</time></trkpt>
        <trkpt lat="29.67952" lon="104.74011"><ele>569.6056</ele><time>2026-04-10T19:52:55.000Z</time></trkpt>
        <trkpt lat="29.679533" lon="104.74005"><ele>569.0761</ele><time>2026-04-10T19:52:59.000Z</time></trkpt>
        <trkpt lat="29.679561" lon="104.739995"><ele>569.01416</ele><time>2026-04-10T19:53:03.000Z</time></trkpt>
        <trkpt lat="29.67957" lon="104.739937"><ele>570.13306</ele><time>2026-04-10T19:53:07.000Z</time></trkpt>
        <trkpt lat="29.679597" lon="104.739879"><ele>570.6842</ele><time>2026-04-10T19:53:12.000Z</time></trkpt>
        <trkpt lat="29.679607" lon="104.73982"><ele>571.3707</ele><time>2026-04-10T19:53:18.000Z</time></trkpt>
        <trkpt lat="29.679617" lon="104.739763"><ele>571.1917</ele><time>2026-04-10T19:53:23.000Z</time></trkpt>
        <trkpt lat="29.679617" lon="104.73971"><ele>569.93176</ele><time>2026-04-10T19:53:27.000Z</time></trkpt>
        <trkpt lat="29.679599" lon="104.739653"><ele>570.0507</ele><time>2026-04-10T19:53:32.000Z</time></trkpt>
        <trkpt lat="29.679586" lon="104.739596"><ele>571.2567</ele><time>2026-04-10T19:53:37.000Z</time></trkpt>
        <trkpt lat="29.679612" lon="104.739539"><ele>571.62244</ele><time>2026-04-10T19:53:42.000Z</time></trkpt>
        <trkpt lat="29.67964" lon="104.739494"><ele>571.2414</ele><time>2026-04-10T19:53:47.000Z</time></trkpt>
        <trkpt lat="29.679685" lon="104.739476"><ele>570.8107</ele><time>2026-04-10T19:53:51.000Z</time></trkpt>
        <trkpt lat="29.679726" lon="104.739441"><ele>570.9419</ele><time>2026-04-10T19:53:55.000Z</time></trkpt>
        <trkpt lat="29.679784" lon="104.739432"><ele>571.9285</ele><time>2026-04-10T19:53:59.000Z</time></trkpt>
        <trkpt lat="29.679825" lon="104.739408"><ele>572.6214</ele><time>2026-04-10T19:54:02.000Z</time></trkpt>
        <trkpt lat="29.679869" lon="104.739357"><ele>574.33167</ele><time>2026-04-10T19:54:08.000Z</time></trkpt>
        <trkpt lat="29.67989" lon="104.739308"><ele>575.6448</ele><time>2026-04-10T19:54:12.000Z</time></trkpt>
        <trkpt lat="29.679909" lon="104.73925"><ele>578.56006</ele><time>2026-04-10T19:54:18.000Z</time></trkpt>
        <trkpt lat="29.679913" lon="104.739195"><ele>579.8515</ele><time>2026-04-10T19:54:27.000Z</time></trkpt>
        <trkpt lat="29.679872" lon="104.739249"><ele>581.8259</ele><time>2026-04-10T19:54:36.000Z</time></trkpt>
        <trkpt lat="29.679825" lon="104.739275"><ele>581.89136</ele><time>2026-04-10T19:54:41.000Z</time></trkpt>
        <trkpt lat="29.679779" lon="104.739266"><ele>581.1362</ele><time>2026-04-10T19:54:46.000Z</time></trkpt>
        <trkpt lat="29.679725" lon="104.739262"><ele>580.68396</ele><time>2026-04-10T19:54:53.000Z</time></trkpt>
        <trkpt lat="29.679678" lon="104.739231"><ele>580.99713</ele><time>2026-04-10T19:54:59.000Z</time></trkpt>
        <trkpt lat="29.679702" lon="104.739184"><ele>583.8851</ele><time>2026-04-10T19:55:19.000Z</time></trkpt>
        <trkpt lat="29.679734" lon="104.739145"><ele>585.4734</ele><time>2026-04-10T19:55:25.000Z</time></trkpt>
        <trkpt lat="29.679757" lon="104.7391"><ele>587.38934</ele><time>2026-04-10T19:55:32.000Z</time></trkpt>
        <trkpt lat="29.679709" lon="104.739075"><ele>588.5339</ele><time>2026-04-10T19:55:39.000Z</time></trkpt>
        <trkpt lat="29.679705" lon="104.739021"><ele>589.5861</ele><time>2026-04-10T19:55:47.000Z</time></trkpt>
        <trkpt lat="29.679702" lon="104.738968"><ele>591.7488</ele><time>2026-04-10T19:55:55.000Z</time></trkpt>
        <trkpt lat="29.679657" lon="104.738945"><ele>591.96857</ele><time>2026-04-10T19:56:01.000Z</time></trkpt>
        <trkpt lat="29.679618" lon="104.738914"><ele>594.417</ele><time>2026-04-10T19:56:13.000Z</time></trkpt>
        <trkpt lat="29.679594" lon="104.738868"><ele>595.17267</ele><time>2026-04-10T19:56:31.000Z</time></trkpt>
        <trkpt lat="29.679557" lon="104.738826"><ele>595.4153</ele><time>2026-04-10T19:56:38.000Z</time></trkpt>
        <trkpt lat="29.679524" lon="104.738787"><ele>595.9907</ele><time>2026-04-10T19:56:44.000Z</time></trkpt>
        <trkpt lat="29.679471" lon="104.738781"><ele>596.6989</ele><time>2026-04-10T19:56:48.000Z</time></trkpt>
        <trkpt lat="29.679422" lon="104.73875"><ele>598.09314</ele><time>2026-04-10T19:56:53.000Z</time></trkpt>
        <trkpt lat="29.679383" lon="104.738711"><ele>599.4326</ele><time>2026-04-10T19:56:57.000Z</time></trkpt>
        <trkpt lat="29.679368" lon="104.738657"><ele>600.4583</ele><time>2026-04-10T19:57:02.000Z</time></trkpt>
        <trkpt lat="29.67939" lon="104.738608"><ele>603.79865</ele><time>2026-04-10T19:57:38.000Z</time></trkpt>
        <trkpt lat="29.679443" lon="104.738605"><ele>601.97156</ele><time>2026-04-10T19:58:04.000Z</time></trkpt>
        <trkpt lat="29.679484" lon="104.738629"><ele>605.0159</ele><time>2026-04-10T19:58:17.000Z</time></trkpt>
        <trkpt lat="29.679533" lon="104.738636"><ele>605.66266</ele><time>2026-04-10T19:58:24.000Z</time></trkpt>
        <trkpt lat="29.679579" lon="104.73862"><ele>606.1287</ele><time>2026-04-10T19:58:30.000Z</time></trkpt>
        <trkpt lat="29.679628" lon="104.738624"><ele>606.6947</ele><time>2026-04-10T19:58:37.000Z</time></trkpt>
        <trkpt lat="29.679656" lon="104.73857"><ele>606.8221</ele><time>2026-04-10T19:58:45.000Z</time></trkpt>
        <trkpt lat="29.679699" lon="104.738531"><ele>604.8263</ele><time>2026-04-10T19:58:52.000Z</time></trkpt>
        <trkpt lat="29.67975" lon="104.738506"><ele>603.5071</ele><time>2026-04-10T19:58:57.000Z</time></trkpt>
        <trkpt lat="29.679797" lon="104.738484"><ele>605.00214</ele><time>2026-04-10T19:59:07.000Z</time></trkpt>
        <trkpt lat="29.679842" lon="104.738477"><ele>606.3787</ele><time>2026-04-10T19:59:14.000Z</time></trkpt>
        <trkpt lat="29.679889" lon="104.738472"><ele>603.1226</ele><time>2026-04-10T20:00:15.000Z</time></trkpt>
        <trkpt lat="29.679927" lon="104.738439"><ele>609.8169</ele><time>2026-04-10T20:00:24.000Z</time></trkpt>
        <trkpt lat="29.679957" lon="104.738394"><ele>606.64966</ele><time>2026-04-10T20:00:31.000Z</time></trkpt>
        <trkpt lat="29.679995" lon="104.738364"><ele>606.43256</ele><time>2026-04-10T20:00:36.000Z</time></trkpt>
        <trkpt lat="29.680041" lon="104.738327"><ele>604.3746</ele><time>2026-04-10T20:00:42.000Z</time></trkpt>
        <trkpt lat="29.680086" lon="104.738296"><ele>603.2681</ele><time>2026-04-10T20:00:48.000Z</time></trkpt>
        <trkpt lat="29.680141" lon="104.738288"><ele>605.60376</ele><time>2026-04-10T20:00:54.000Z</time></trkpt>
        <trkpt lat="29.680189" lon="104.738293"><ele>607.53815</ele><time>2026-04-10T20:01:00.000Z</time></trkpt>
        <trkpt lat="29.680241" lon="104.7383"><ele>607.2579</ele><time>2026-04-10T20:01:04.000Z</time></trkpt>
        <trkpt lat="29.680292" lon="104.738296"><ele>608.41266</ele><time>2026-04-10T20:01:10.000Z</time></trkpt>
        <trkpt lat="29.680338" lon="104.738286"><ele>609.15814</ele><time>2026-04-10T20:01:14.000Z</time></trkpt>
        <trkpt lat="29.680389" lon="104.738297"><ele>609.44867</ele><time>2026-04-10T20:01:19.000Z</time></trkpt>
        <trkpt lat="29.680437" lon="104.738317"><ele>611.804</ele><time>2026-04-10T20:01:25.000Z</time></trkpt>
        <trkpt lat="29.680479" lon="104.738338"><ele>615.3457</ele><time>2026-04-10T20:01:38.000Z</time></trkpt>
        <trkpt lat="29.680522" lon="104.738355"><ele>614.28705</ele><time>2026-04-10T20:01:43.000Z</time></trkpt>
        <trkpt lat="29.680569" lon="104.738372"><ele>616.2751</ele><time>2026-04-10T20:01:50.000Z</time></trkpt>
        <trkpt lat="29.680615" lon="104.738383"><ele>617.3759</ele><time>2026-04-10T20:01:56.000Z</time></trkpt>
        <trkpt lat="29.68066" lon="104.738406"><ele>618.5797</ele><time>2026-04-10T20:02:00.000Z</time></trkpt>
        <trkpt lat="29.680706" lon="104.738417"><ele>620.02277</ele><time>2026-04-10T20:02:06.000Z</time></trkpt>
        <trkpt lat="29.680761" lon="104.738419"><ele>621.3272</ele><time>2026-04-10T20:02:12.000Z</time></trkpt>
        <trkpt lat="29.680806" lon="104.738415"><ele>622.53735</ele><time>2026-04-10T20:02:17.000Z</time></trkpt>
        <trkpt lat="29.680861" lon="104.738429"><ele>624.4184</ele><time>2026-04-10T20:02:45.000Z</time></trkpt>
        <trkpt lat="29.680908" lon="104.738431"><ele>624.99097</ele><time>2026-04-10T20:02:48.000Z</time></trkpt>
        <trkpt lat="29.680957" lon="104.738431"><ele>625.4162</ele><time>2026-04-10T20:02:52.000Z</time></trkpt>
        <trkpt lat="29.681002" lon="104.738431"><ele>625.7331</ele><time>2026-04-10T20:02:56.000Z</time></trkpt>
        <trkpt lat="29.681048" lon="104.738414"><ele>626.52844</ele><time>2026-04-10T20:03:01.000Z</time></trkpt>
        <trkpt lat="29.681099" lon="104.738431"><ele>625.8986</ele><time>2026-04-10T20:03:08.000Z</time></trkpt>
        <trkpt lat="29.681153" lon="104.738428"><ele>626.51556</ele><time>2026-04-10T20:03:12.000Z</time></trkpt>
        <trkpt lat="29.681199" lon="104.738431"><ele>626.84204</ele><time>2026-04-10T20:03:17.000Z</time></trkpt>
        <trkpt lat="29.681245" lon="104.738424"><ele>627.008</ele><time>2026-04-10T20:03:23.000Z</time></trkpt>
        <trkpt lat="29.681291" lon="104.738421"><ele>627.1973</ele><time>2026-04-10T20:03:38.000Z</time></trkpt>
        <trkpt lat="29.681344" lon="104.738438"><ele>631.86865</ele><time>2026-04-10T20:03:47.000Z</time></trkpt>
        <trkpt lat="29.68139" lon="104.738443"><ele>633.108</ele><time>2026-04-10T20:03:50.000Z</time></trkpt>
        <trkpt lat="29.681442" lon="104.738451"><ele>634.5077</ele><time>2026-04-10T20:03:55.000Z</time></trkpt>
        <trkpt lat="29.681484" lon="104.738431"><ele>635.78436</ele><time>2026-04-10T20:04:12.000Z</time></trkpt>
        <trkpt lat="29.681532" lon="104.738458"><ele>635.93823</ele><time>2026-04-10T20:04:16.000Z</time></trkpt>
        <trkpt lat="29.681565" lon="104.738502"><ele>636.002</ele><time>2026-04-10T20:05:35.000Z</time></trkpt>
        <trkpt lat="29.681612" lon="104.738518"><ele>640.28485</ele><time>2026-04-10T20:05:49.000Z</time></trkpt>
        <trkpt lat="29.681653" lon="104.738557"><ele>642.05566</ele><time>2026-04-10T20:06:06.000Z</time></trkpt>
        <trkpt lat="29.68168" lon="104.738599"><ele>645.7961</ele><time>2026-04-10T20:06:30.000Z</time></trkpt>
        <trkpt lat="29.681727" lon="104.7386"><ele>647.5339</ele><time>2026-04-10T20:07:01.000Z</time></trkpt>
        <trkpt lat="29.68174" lon="104.738653"><ele>651.05035</ele><time>2026-04-10T20:07:22.000Z</time></trkpt>
      </trkseg>
      <trkseg>
        <trkpt lat="29.68188" lon="104.738732"><ele>650.94006</ele><time>2026-04-10T20:27:47.000Z</time></trkpt>
        <trkpt lat="29.681926" lon="104.738736"><ele>652.7013</ele><time>2026-04-10T20:27:52.000Z</time></trkpt>
        <trkpt lat="29.681981" lon="104.73875"><ele>656.1762</ele><time>2026-04-10T20:27:56.000Z</time></trkpt>
        <trkpt lat="29.682025" lon="104.738776"><ele>657.99493</ele><time>2026-04-10T20:28:02.000Z</time></trkpt>
        <trkpt lat="29.682078" lon="104.738771"><ele>661.4377</ele><time>2026-04-10T20:28:06.000Z</time></trkpt>
        <trkpt lat="29.682131" lon="104.738758"><ele>672.35834</ele><time>2026-04-10T20:28:10.000Z</time></trkpt>
        <trkpt lat="29.682183" lon="104.738766"><ele>672.20026</ele><time>2026-04-10T20:28:16.000Z</time></trkpt>
        <trkpt lat="29.682231" lon="104.738764"><ele>672.3585</ele><time>2026-04-10T20:28:20.000Z</time></trkpt>
        <trkpt lat="29.682275" lon="104.738743"><ele>673.50244</ele><time>2026-04-10T20:28:24.000Z</time></trkpt>
        <trkpt lat="29.682326" lon="104.738738"><ele>673.5229</ele><time>2026-04-10T20:28:28.000Z</time></trkpt>
        <trkpt lat="29.68238" lon="104.738737"><ele>673.3497</ele><time>2026-04-10T20:28:33.000Z</time></trkpt>
        <trkpt lat="29.682429" lon="104.738724"><ele>673.01215</ele><time>2026-04-10T20:28:37.000Z</time></trkpt>
        <trkpt lat="29.682487" lon="104.73871"><ele>673.237</ele><time>2026-04-10T20:28:41.000Z</time></trkpt>
        <trkpt lat="29.682537" lon="104.738707"><ele>673.4483</ele><time>2026-04-10T20:28:45.000Z</time></trkpt>
        <trkpt lat="29.682585" lon="104.738702"><ele>672.9469</ele><time>2026-04-10T20:28:49.000Z</time></trkpt>
        <trkpt lat="29.68263" lon="104.73871"><ele>672.94055</ele><time>2026-04-10T20:28:53.000Z</time></trkpt>
        <trkpt lat="29.682688" lon="104.738708"><ele>674.067</ele><time>2026-04-10T20:28:57.000Z</time></trkpt>
        <trkpt lat="29.682735" lon="104.738717"><ele>673.62</ele><time>2026-04-10T20:29:01.000Z</time></trkpt>
        <trkpt lat="29.682785" lon="104.738701"><ele>672.8991</ele><time>2026-04-10T20:29:05.000Z</time></trkpt>
        <trkpt lat="29.682827" lon="104.738681"><ele>673.47144</ele><time>2026-04-10T20:29:08.000Z</time></trkpt>
        <trkpt lat="29.682879" lon="104.73869"><ele>673.2134</ele><time>2026-04-10T20:29:12.000Z</time></trkpt>
        <trkpt lat="29.682919" lon="104.738653"><ele>672.73846</ele><time>2026-04-10T20:29:16.000Z</time></trkpt>
        <trkpt lat="29.682964" lon="104.738647"><ele>672.47314</ele><time>2026-04-10T20:29:20.000Z</time></trkpt>
        <trkpt lat="29.683022" lon="104.738645"><ele>672.4936</ele><time>2026-04-10T20:29:25.000Z</time></trkpt>
        <trkpt lat="29.683068" lon="104.738636"><ele>672.8503</ele><time>2026-04-10T20:29:29.000Z</time></trkpt>
        <trkpt lat="29.683118" lon="104.738656"><ele>673.6812</ele><time>2026-04-10T20:29:34.000Z</time></trkpt>
        <trkpt lat="29.683168" lon="104.738677"><ele>674.608</ele><time>2026-04-10T20:29:39.000Z</time></trkpt>
        <trkpt lat="29.683218" lon="104.738694"><ele>675.5423</ele><time>2026-04-10T20:29:43.000Z</time></trkpt>
        <trkpt lat="29.683257" lon="104.73873"><ele>676.7626</ele><time>2026-04-10T20:29:50.000Z</time></trkpt>
        <trkpt lat="29.683303" lon="104.738765"><ele>676.8928</ele><time>2026-04-10T20:29:56.000Z</time></trkpt>
        <trkpt lat="29.683346" lon="104.738804"><ele>678.8087</ele><time>2026-04-10T20:30:03.000Z</time></trkpt>
        <trkpt lat="29.683383" lon="104.738841"><ele>680.3199</ele><time>2026-04-10T20:30:16.000Z</time></trkpt>
        <trkpt lat="29.683434" lon="104.738854"><ele>679.9099</ele><time>2026-04-10T20:30:22.000Z</time></trkpt>
        <trkpt lat="29.683457" lon="104.738901"><ele>680.929</ele><time>2026-04-10T20:30:27.000Z</time></trkpt>
        <trkpt lat="29.683473" lon="104.738951"><ele>681.5382</ele><time>2026-04-10T20:30:32.000Z</time></trkpt>
        <trkpt lat="29.683484" lon="104.739007"><ele>681.85175</ele><time>2026-04-10T20:30:39.000Z</time></trkpt>
        <trkpt lat="29.683522" lon="104.739059"><ele>683.3157</ele><time>2026-04-10T20:30:44.000Z</time></trkpt>
        <trkpt lat="29.683564" lon="104.739023"><ele>684.1697</ele><time>2026-04-10T20:30:48.000Z</time></trkpt>
        <trkpt lat="29.683605" lon="104.738982"><ele>684.69434</ele><time>2026-04-10T20:30:53.000Z</time></trkpt>
        <trkpt lat="29.683652" lon="104.738952"><ele>684.8508</ele><time>2026-04-10T20:30:58.000Z</time></trkpt>
        <trkpt lat="29.683694" lon="104.738933"><ele>684.7351</ele><time>2026-04-10T20:31:02.000Z</time></trkpt>
        <trkpt lat="29.683746" lon="104.73893"><ele>685.5914</ele><time>2026-04-10T20:31:07.000Z</time></trkpt>
        <trkpt lat="29.683795" lon="104.738934"><ele>684.1537</ele><time>2026-04-10T20:31:12.000Z</time></trkpt>
        <trkpt lat="29.683849" lon="104.738917"><ele>684.9184</ele><time>2026-04-10T20:31:18.000Z</time></trkpt>
        <trkpt lat="29.683897" lon="104.738893"><ele>685.02563</ele><time>2026-04-10T20:31:23.000Z</time></trkpt>
        <trkpt lat="29.683939" lon="104.738868"><ele>685.5977</ele><time>2026-04-10T20:31:27.000Z</time></trkpt>
        <trkpt lat="29.683968" lon="104.738818"><ele>685.58704</ele><time>2026-04-10T20:31:31.000Z</time></trkpt>
        <trkpt lat="29.683994" lon="104.738776"><ele>684.89856</ele><time>2026-04-10T20:31:35.000Z</time></trkpt>
        <trkpt lat="29.684011" lon="104.738718"><ele>684.76855</ele><time>2026-04-10T20:31:40.000Z</time></trkpt>
        <trkpt lat="29.684022" lon="104.738659"><ele>683.9847</ele><time>2026-04-10T20:31:54.000Z</time></trkpt>
        <trkpt lat="29.684037" lon="104.738601"><ele>683.82336</ele><time>2026-04-10T20:32:00.000Z</time></trkpt>
        <trkpt lat="29.684062" lon="104.73855"><ele>683.64343</ele><time>2026-04-10T20:32:05.000Z</time></trkpt>
        <trkpt lat="29.684091" lon="104.738498"><ele>682.93066</ele><time>2026-04-10T20:32:10.000Z</time></trkpt>
        <trkpt lat="29.684129" lon="104.738448"><ele>683.6402</ele><time>2026-04-10T20:32:15.000Z</time></trkpt>
        <trkpt lat="29.684165" lon="104.738405"><ele>684.6497</ele><time>2026-04-10T20:32:19.000Z</time></trkpt>
        <trkpt lat="29.684201" lon="104.738369"><ele>685.07434</ele><time>2026-04-10T20:32:23.000Z</time></trkpt>
        <trkpt lat="29.684222" lon="104.738316"><ele>685.23944</ele><time>2026-04-10T20:32:28.000Z</time></trkpt>
        <trkpt lat="29.684203" lon="104.738258"><ele>685.6584</ele><time>2026-04-10T20:32:33.000Z</time></trkpt>
        <trkpt lat="29.684157" lon="104.738235"><ele>683.2598</ele><time>2026-04-10T20:32:38.000Z</time></trkpt>
        <trkpt lat="29.684121" lon="104.738193"><ele>682.76276</ele><time>2026-04-10T20:32:42.000Z</time></trkpt>
        <trkpt lat="29.684072" lon="104.738184"><ele>682.503</ele><time>2026-04-10T20:32:46.000Z</time></trkpt>
        <trkpt lat="29.684035" lon="104.738152"><ele>681.75226</ele><time>2026-04-10T20:32:58.000Z</time></trkpt>
        <trkpt lat="29.68401" lon="104.738103"><ele>681.8036</ele><time>2026-04-10T20:33:04.000Z</time></trkpt>
        <trkpt lat="29.684014" lon="104.738048"><ele>681.2199</ele><time>2026-04-10T20:33:09.000Z</time></trkpt>
        <trkpt lat="29.684024" lon="104.737992"><ele>682.0891</ele><time>2026-04-10T20:33:13.000Z</time></trkpt>
        <trkpt lat="29.684008" lon="104.737943"><ele>682.2909</ele><time>2026-04-10T20:33:18.000Z</time></trkpt>
        <trkpt lat="29.683996" lon="104.737892"><ele>682.57416</ele><time>2026-04-10T20:33:23.000Z</time></trkpt>
        <trkpt lat="29.683967" lon="104.737851"><ele>683.165</ele><time>2026-04-10T20:33:31.000Z</time></trkpt>
        <trkpt lat="29.683955" lon="104.737788"><ele>681.14923</ele><time>2026-04-10T20:33:48.000Z</time></trkpt>
        <trkpt lat="29.68393" lon="104.737735"><ele>682.09674</ele><time>2026-04-10T20:33:53.000Z</time></trkpt>
        <trkpt lat="29.683905" lon="104.73769"><ele>683.2159</ele><time>2026-04-10T20:33:57.000Z</time></trkpt>
        <trkpt lat="29.683881" lon="104.737633"><ele>684.6299</ele><time>2026-04-10T20:34:01.000Z</time></trkpt>
        <trkpt lat="29.683855" lon="104.737589"><ele>684.8293</ele><time>2026-04-10T20:34:05.000Z</time></trkpt>
        <trkpt lat="29.683828" lon="104.73753"><ele>684.2273</ele><time>2026-04-10T20:34:10.000Z</time></trkpt>
        <trkpt lat="29.683807" lon="104.737477"><ele>683.53656</ele><time>2026-04-10T20:34:15.000Z</time></trkpt>
        <trkpt lat="29.683805" lon="104.737416"><ele>683.67554</ele><time>2026-04-10T20:34:19.000Z</time></trkpt>
        <trkpt lat="29.683799" lon="104.737356"><ele>684.75433</ele><time>2026-04-10T20:34:23.000Z</time></trkpt>
        <trkpt lat="29.683784" lon="104.737302"><ele>685.697</ele><time>2026-04-10T20:34:27.000Z</time></trkpt>
        <trkpt lat="29.683759" lon="104.737252"><ele>686.69183</ele><time>2026-04-10T20:34:30.000Z</time></trkpt>
        <trkpt lat="29.683747" lon="104.737199"><ele>688.5837</ele><time>2026-04-10T20:34:34.000Z</time></trkpt>
        <trkpt lat="29.683747" lon="104.737143"><ele>688.00256</ele><time>2026-04-10T20:34:38.000Z</time></trkpt>
        <trkpt lat="29.683748" lon="104.737081"><ele>690.3517</ele><time>2026-04-10T20:34:43.000Z</time></trkpt>
        <trkpt lat="29.683753" lon="104.737023"><ele>691.41144</ele><time>2026-04-10T20:34:47.000Z</time></trkpt>
        <trkpt lat="29.683743" lon="104.73697"><ele>692.20953</ele><time>2026-04-10T20:34:50.000Z</time></trkpt>
        <trkpt lat="29.683732" lon="104.736917"><ele>693.32916</ele><time>2026-04-10T20:34:54.000Z</time></trkpt>
        <trkpt lat="29.683719" lon="104.736859"><ele>694.0692</ele><time>2026-04-10T20:34:58.000Z</time></trkpt>
        <trkpt lat="29.683709" lon="104.736802"><ele>694.3859</ele><time>2026-04-10T20:35:02.000Z</time></trkpt>
        <trkpt lat="29.683692" lon="104.736752"><ele>693.95764</ele><time>2026-04-10T20:35:05.000Z</time></trkpt>
        <trkpt lat="29.683677" lon="104.736702"><ele>692.75726</ele><time>2026-04-10T20:35:14.000Z</time></trkpt>
        <trkpt lat="29.683642" lon="104.736647"><ele>693.6275</ele><time>2026-04-10T20:35:18.000Z</time></trkpt>
        <trkpt lat="29.683616" lon="104.736596"><ele>693.684</ele><time>2026-04-10T20:35:22.000Z</time></trkpt>
        <trkpt lat="29.683583" lon="104.736547"><ele>693.66046</ele><time>2026-04-10T20:35:26.000Z</time></trkpt>
        <trkpt lat="29.683572" lon="104.736486"><ele>691.104</ele><time>2026-04-10T20:35:31.000Z</time></trkpt>
        <trkpt lat="29.683575" lon="104.736422"><ele>690.51074</ele><time>2026-04-10T20:35:35.000Z</time></trkpt>
        <trkpt lat="29.68353" lon="104.736368"><ele>691.9633</ele><time>2026-04-10T20:35:40.000Z</time></trkpt>
        <trkpt lat="29.683482" lon="104.736357"><ele>692.1242</ele><time>2026-04-10T20:35:43.000Z</time></trkpt>
        <trkpt lat="29.683428" lon="104.736362"><ele>692.7205</ele><time>2026-04-10T20:35:47.000Z</time></trkpt>
        <trkpt lat="29.683387" lon="104.736382"><ele>692.2867</ele><time>2026-04-10T20:35:51.000Z</time></trkpt>
      </trkseg>
      <trkseg>
        <trkpt lat="29.683361" lon="104.736385"><ele>689.769</ele><time>2026-04-10T20:37:16.000Z</time></trkpt>
        <trkpt lat="29.683309" lon="104.736376"><ele>691.06964</ele><time>2026-04-10T20:37:20.000Z</time></trkpt>
        <trkpt lat="29.683268" lon="104.736342"><ele>692.15967</ele><time>2026-04-10T20:37:24.000Z</time></trkpt>
        <trkpt lat="29.683222" lon="104.736334"><ele>692.8384</ele><time>2026-04-10T20:37:30.000Z</time></trkpt>
        <trkpt lat="29.683175" lon="104.736321"><ele>692.7209</ele><time>2026-04-10T20:37:35.000Z</time></trkpt>
        <trkpt lat="29.683129" lon="104.736297"><ele>694.2446</ele><time>2026-04-10T20:38:14.000Z</time></trkpt>
        <trkpt lat="29.683073" lon="104.736274"><ele>695.24457</ele><time>2026-04-10T20:38:34.000Z</time></trkpt>
        <trkpt lat="29.68303" lon="104.736256"><ele>692.6929</ele><time>2026-04-10T20:38:36.000Z</time></trkpt>
        <trkpt lat="29.682995" lon="104.736223"><ele>690.7691</ele><time>2026-04-10T20:38:39.000Z</time></trkpt>
        <trkpt lat="29.682951" lon="104.736204"><ele>690.6848</ele><time>2026-04-10T20:38:41.000Z</time></trkpt>
        <trkpt lat="29.682887" lon="104.736214"><ele>692.3766</ele><time>2026-04-10T20:38:46.000Z</time></trkpt>
        <trkpt lat="29.682831" lon="104.736207"><ele>692.43774</ele><time>2026-04-10T20:38:50.000Z</time></trkpt>
        <trkpt lat="29.682795" lon="104.736169"><ele>691.5143</ele><time>2026-04-10T20:38:54.000Z</time></trkpt>
        <trkpt lat="29.682741" lon="104.736152"><ele>693.3964</ele><time>2026-04-10T20:38:58.000Z</time></trkpt>
        <trkpt lat="29.682688" lon="104.736166"><ele>692.5531</ele><time>2026-04-10T20:39:02.000Z</time></trkpt>
        <trkpt lat="29.682653" lon="104.73612"><ele>692.7978</ele><time>2026-04-10T20:39:07.000Z</time></trkpt>
        <trkpt lat="29.68263" lon="104.736068"><ele>692.23047</ele><time>2026-04-10T20:39:11.000Z</time></trkpt>
        <trkpt lat="29.682584" lon="104.736032"><ele>693.53094</ele><time>2026-04-10T20:39:16.000Z</time></trkpt>
        <trkpt lat="29.682542" lon="104.736001"><ele>695.1731</ele><time>2026-04-10T20:39:32.000Z</time></trkpt>
        <trkpt lat="29.682499" lon="104.735979"><ele>694.2106</ele><time>2026-04-10T20:40:35.000Z</time></trkpt>
        <trkpt lat="29.682453" lon="104.735934"><ele>696.9818</ele><time>2026-04-10T20:40:40.000Z</time></trkpt>
        <trkpt lat="29.682428" lon="104.735884"><ele>697.2556</ele><time>2026-04-10T20:40:48.000Z</time></trkpt>
        <trkpt lat="29.682408" lon="104.735825"><ele>694.6494</ele><time>2026-04-10T20:40:53.000Z</time></trkpt>
        <trkpt lat="29.682375" lon="104.73578"><ele>695.07043</ele><time>2026-04-10T20:40:56.000Z</time></trkpt>
        <trkpt lat="29.682337" lon="104.735739"><ele>695.70856</ele><time>2026-04-10T20:40:59.000Z</time></trkpt>
        <trkpt lat="29.682284" lon="104.735742"><ele>695.5536</ele><time>2026-04-10T20:41:04.000Z</time></trkpt>
        <trkpt lat="29.68223" lon="104.735758"><ele>695.5631</ele><time>2026-04-10T20:41:08.000Z</time></trkpt>
        <trkpt lat="29.682171" lon="104.73573"><ele>694.08887</ele><time>2026-04-10T20:41:12.000Z</time></trkpt>
        <trkpt lat="29.682122" lon="104.735714"><ele>693.79333</ele><time>2026-04-10T20:41:16.000Z</time></trkpt>
        <trkpt lat="29.682075" lon="104.735663"><ele>691.84314</ele><time>2026-04-10T20:41:20.000Z</time></trkpt>
        <trkpt lat="29.682027" lon="104.735626"><ele>691.70465</ele><time>2026-04-10T20:41:25.000Z</time></trkpt>
        <trkpt lat="29.681983" lon="104.735604"><ele>690.465</ele><time>2026-04-10T20:41:28.000Z</time></trkpt>
        <trkpt lat="29.681938" lon="104.735583"><ele>688.8663</ele><time>2026-04-10T20:41:33.000Z</time></trkpt>
        <trkpt lat="29.681891" lon="104.735545"><ele>688.1906</ele><time>2026-04-10T20:41:38.000Z</time></trkpt>
        <trkpt lat="29.681848" lon="104.735509"><ele>688.0809</ele><time>2026-04-10T20:41:42.000Z</time></trkpt>
        <trkpt lat="29.681781" lon="104.735478"><ele>687.3763</ele><time>2026-04-10T20:41:47.000Z</time></trkpt>
        <trkpt lat="29.681741" lon="104.735451"><ele>687.7304</ele><time>2026-04-10T20:41:51.000Z</time></trkpt>
        <trkpt lat="29.681701" lon="104.735407"><ele>685.5796</ele><time>2026-04-10T20:41:55.000Z</time></trkpt>
        <trkpt lat="29.681663" lon="104.735367"><ele>684.3469</ele><time>2026-04-10T20:41:59.000Z</time></trkpt>
        <trkpt lat="29.681622" lon="104.735343"><ele>682.71765</ele><time>2026-04-10T20:42:02.000Z</time></trkpt>
        <trkpt lat="29.681573" lon="104.735337"><ele>681.8863</ele><time>2026-04-10T20:42:04.000Z</time></trkpt>
        <trkpt lat="29.681522" lon="104.735313"><ele>680.7436</ele><time>2026-04-10T20:42:10.000Z</time></trkpt>
        <trkpt lat="29.681473" lon="104.735281"><ele>678.60284</ele><time>2026-04-10T20:42:16.000Z</time></trkpt>
        <trkpt lat="29.681422" lon="104.735284"><ele>677.63245</ele><time>2026-04-10T20:42:20.000Z</time></trkpt>
        <trkpt lat="29.681378" lon="104.735273"><ele>677.37396</ele><time>2026-04-10T20:42:23.000Z</time></trkpt>
        <trkpt lat="29.681324" lon="104.735271"><ele>676.83636</ele><time>2026-04-10T20:42:28.000Z</time></trkpt>
        <trkpt lat="29.681274" lon="104.735277"><ele>676.2367</ele><time>2026-04-10T20:42:32.000Z</time></trkpt>
        <trkpt lat="29.681229" lon="104.73527"><ele>673.9654</ele><time>2026-04-10T20:42:37.000Z</time></trkpt>
        <trkpt lat="29.681174" lon="104.735256"><ele>672.8349</ele><time>2026-04-10T20:42:42.000Z</time></trkpt>
        <trkpt lat="29.681125" lon="104.735263"><ele>671.24945</ele><time>2026-04-10T20:42:47.000Z</time></trkpt>
        <trkpt lat="29.681075" lon="104.73525"><ele>670.7555</ele><time>2026-04-10T20:42:51.000Z</time></trkpt>
        <trkpt lat="29.681029" lon="104.735237"><ele>670.55</ele><time>2026-04-10T20:42:55.000Z</time></trkpt>
        <trkpt lat="29.680981" lon="104.735231"><ele>669.15027</ele><time>2026-04-10T20:43:08.000Z</time></trkpt>
        <trkpt lat="29.680935" lon="104.735216"><ele>669.6038</ele><time>2026-04-10T20:43:16.000Z</time></trkpt>
        <trkpt lat="29.680887" lon="104.735199"><ele>667.73926</ele><time>2026-04-10T20:43:22.000Z</time></trkpt>
        <trkpt lat="29.680836" lon="104.735184"><ele>667.8687</ele><time>2026-04-10T20:43:26.000Z</time></trkpt>
        <trkpt lat="29.680787" lon="104.735175"><ele>666.5897</ele><time>2026-04-10T20:43:32.000Z</time></trkpt>
        <trkpt lat="29.680738" lon="104.735165"><ele>666.076</ele><time>2026-04-10T20:43:38.000Z</time></trkpt>
        <trkpt lat="29.680687" lon="104.735165"><ele>667.0053</ele><time>2026-04-10T20:43:43.000Z</time></trkpt>
        <trkpt lat="29.680632" lon="104.735155"><ele>667.67413</ele><time>2026-04-10T20:43:47.000Z</time></trkpt>
        <trkpt lat="29.680584" lon="104.735152"><ele>668.24426</ele><time>2026-04-10T20:43:53.000Z</time></trkpt>
        <trkpt lat="29.680528" lon="104.735167"><ele>669.17694</ele><time>2026-04-10T20:43:57.000Z</time></trkpt>
        <trkpt lat="29.680482" lon="104.735179"><ele>670.0712</ele><time>2026-04-10T20:44:01.000Z</time></trkpt>
        <trkpt lat="29.68043" lon="104.735195"><ele>670.28735</ele><time>2026-04-10T20:44:06.000Z</time></trkpt>
        <trkpt lat="29.680384" lon="104.735208"><ele>669.364</ele><time>2026-04-10T20:44:11.000Z</time></trkpt>
        <trkpt lat="29.680334" lon="104.735193"><ele>669.05164</ele><time>2026-04-10T20:44:15.000Z</time></trkpt>
        <trkpt lat="29.680293" lon="104.735161"><ele>668.49585</ele><time>2026-04-10T20:44:19.000Z</time></trkpt>
        <trkpt lat="29.680247" lon="104.735136"><ele>668.0977</ele><time>2026-04-10T20:44:23.000Z</time></trkpt>
        <trkpt lat="29.680199" lon="104.735113"><ele>667.7077</ele><time>2026-04-10T20:44:26.000Z</time></trkpt>
        <trkpt lat="29.680143" lon="104.735091"><ele>666.678</ele><time>2026-04-10T20:44:30.000Z</time></trkpt>
        <trkpt lat="29.680097" lon="104.735085"><ele>665.45984</ele><time>2026-04-10T20:44:34.000Z</time></trkpt>
        <trkpt lat="29.680052" lon="104.735042"><ele>663.8994</ele><time>2026-04-10T20:44:39.000Z</time></trkpt>
        <trkpt lat="29.680014" lon="104.734991"><ele>662.9764</ele><time>2026-04-10T20:44:44.000Z</time></trkpt>
        <trkpt lat="29.679977" lon="104.73495"><ele>661.27545</ele><time>2026-04-10T20:44:49.000Z</time></trkpt>
        <trkpt lat="29.679957" lon="104.734903"><ele>660.50104</ele><time>2026-04-10T20:44:56.000Z</time></trkpt>
        <trkpt lat="29.679926" lon="104.734862"><ele>661.0026</ele><time>2026-04-10T20:45:06.000Z</time></trkpt>
        <trkpt lat="29.679916" lon="104.734812"><ele>657.61365</ele><time>2026-04-10T20:45:45.000Z</time></trkpt>
        <trkpt lat="29.679854" lon="104.734798"><ele>660.15265</ele><time>2026-04-10T20:45:49.000Z</time></trkpt>
        <trkpt lat="29.679815" lon="104.734771"><ele>661.1223</ele><time>2026-04-10T20:45:55.000Z</time></trkpt>
        <trkpt lat="29.679787" lon="104.734718"><ele>661.2985</ele><time>2026-04-10T20:46:05.000Z</time></trkpt>
        <trkpt lat="29.67974" lon="104.734718"><ele>664.7995</ele><time>2026-04-10T20:46:08.000Z</time></trkpt>
        <trkpt lat="29.679705" lon="104.734682"><ele>665.1158</ele><time>2026-04-10T20:46:11.000Z</time></trkpt>
        <trkpt lat="29.679696" lon="104.73463"><ele>664.17285</ele><time>2026-04-10T20:46:16.000Z</time></trkpt>
        <trkpt lat="29.679656" lon="104.734604"><ele>665.2223</ele><time>2026-04-10T20:46:20.000Z</time></trkpt>
        <trkpt lat="29.679618" lon="104.734571"><ele>669.7263</ele><time>2026-04-10T20:46:25.000Z</time></trkpt>
        <trkpt lat="29.67959" lon="104.73453"><ele>668.94226</ele><time>2026-04-10T20:46:28.000Z</time></trkpt>
        <trkpt lat="29.679569" lon="104.73447"><ele>668.0305</ele><time>2026-04-10T20:46:34.000Z</time></trkpt>
        <trkpt lat="29.679515" lon="104.734444"><ele>671.8885</ele><time>2026-04-10T20:46:38.000Z</time></trkpt>
        <trkpt lat="29.679459" lon="104.734442"><ele>672.5916</ele><time>2026-04-10T20:46:41.000Z</time></trkpt>
        <trkpt lat="29.679436" lon="104.734383"><ele>671.0218</ele><time>2026-04-10T20:46:45.000Z</time></trkpt>
        <trkpt lat="29.679396" lon="104.734332"><ele>667.7484</ele><time>2026-04-10T20:46:50.000Z</time></trkpt>
        <trkpt lat="29.679346" lon="104.734337"><ele>669.28033</ele><time>2026-04-10T20:46:54.000Z</time></trkpt>
        <trkpt lat="29.679295" lon="104.734317"><ele>669.5069</ele><time>2026-04-10T20:46:59.000Z</time></trkpt>
        <trkpt lat="29.679254" lon="104.734286"><ele>667.87994</ele><time>2026-04-10T20:47:07.000Z</time></trkpt>
        <trkpt lat="29.679215" lon="104.734253"><ele>667.34174</ele><time>2026-04-10T20:47:12.000Z</time></trkpt>
        <trkpt lat="29.67918" lon="104.734218"><ele>666.5833</ele><time>2026-04-10T20:47:16.000Z</time></trkpt>
        <trkpt lat="29.679132" lon="104.734196"><ele>665.6413</ele><time>2026-04-10T20:47:29.000Z</time></trkpt>
        <trkpt lat="29.67908" lon="104.734174"><ele>665.73987</ele><time>2026-04-10T20:47:52.000Z</time></trkpt>
        <trkpt lat="29.679037" lon="104.734147"><ele>664.7884</ele><time>2026-04-10T20:47:57.000Z</time></trkpt>
        <trkpt lat="29.679002" lon="104.734113"><ele>663.6559</ele><time>2026-04-10T20:48:01.000Z</time></trkpt>
        <trkpt lat="29.678963" lon="104.734083"><ele>664.1227</ele><time>2026-04-10T20:48:08.000Z</time></trkpt>
        <trkpt lat="29.6789" lon="104.734077"><ele>663.7289</ele><time>2026-04-10T20:48:17.000Z</time></trkpt>
        <trkpt lat="29.678854" lon="104.734039"><ele>662.8674</ele><time>2026-04-10T20:48:23.000Z</time></trkpt>
        <trkpt lat="29.678804" lon="104.73402"><ele>661.77386</ele><time>2026-04-10T20:48:28.000Z</time></trkpt>
        <trkpt lat="29.678758" lon="104.733993"><ele>660.08167</ele><time>2026-04-10T20:48:33.000Z</time></trkpt>
        <trkpt lat="29.67874" lon="104.733942"><ele>658.3233</ele><time>2026-04-10T20:48:37.000Z</time></trkpt>
        <trkpt lat="29.678719" lon="104.733885"><ele>657.99567</ele><time>2026-04-10T20:48:43.000Z</time></trkpt>
        <trkpt lat="29.678703" lon="104.733829"><ele>656.18536</ele><time>2026-04-10T20:48:58.000Z</time></trkpt>
        <trkpt lat="29.678698" lon="104.733767"><ele>657.25836</ele><time>2026-04-10T20:49:03.000Z</time></trkpt>
        <trkpt lat="29.678672" lon="104.7337"><ele>657.7566</ele><time>2026-04-10T20:49:07.000Z</time></trkpt>
        <trkpt lat="29.678663" lon="104.73364"><ele>657.2498</ele><time>2026-04-10T20:49:12.000Z</time></trkpt>
        <trkpt lat="29.678653" lon="104.733574"><ele>658.66144</ele><time>2026-04-10T20:49:17.000Z</time></trkpt>
        <trkpt lat="29.678634" lon="104.733527"><ele>660.93225</ele><time>2026-04-10T20:49:21.000Z</time></trkpt>
        <trkpt lat="29.67863" lon="104.733474"><ele>662.21826</ele><time>2026-04-10T20:49:25.000Z</time></trkpt>
        <trkpt lat="29.678634" lon="104.733419"><ele>663.19617</ele><time>2026-04-10T20:49:29.000Z</time></trkpt>
        <trkpt lat="29.678628" lon="104.733367"><ele>663.52826</ele><time>2026-04-10T20:49:33.000Z</time></trkpt>
        <trkpt lat="29.678637" lon="104.733314"><ele>659.69073</ele><time>2026-04-10T20:49:56.000Z</time></trkpt>
        <trkpt lat="29.67866" lon="104.733267"><ele>653.2126</ele><time>2026-04-10T20:50:02.000Z</time></trkpt>
        <trkpt lat="29.678646" lon="104.733217"><ele>645.7913</ele><time>2026-04-10T20:50:29.000Z</time></trkpt>
        <trkpt lat="29.678651" lon="104.733161"><ele>643.8053</ele><time>2026-04-10T20:50:36.000Z</time></trkpt>
        <trkpt lat="29.678645" lon="104.733099"><ele>643.3926</ele><time>2026-04-10T20:50:43.000Z</time></trkpt>
        <trkpt lat="29.678643" lon="104.733043"><ele>642.85706</ele><time>2026-04-10T20:50:55.000Z</time></trkpt>
        <trkpt lat="29.678635" lon="104.732983"><ele>643.18335</ele><time>2026-04-10T20:50:59.000Z</time></trkpt>
        <trkpt lat="29.678626" lon="104.732923"><ele>640.211</ele><time>2026-04-10T20:51:03.000Z</time></trkpt>
        <trkpt lat="29.678625" lon="104.732868"><ele>639.1244</ele><time>2026-04-10T20:51:07.000Z</time></trkpt>
        <trkpt lat="29.67861" lon="104.732809"><ele>639.6999</ele><time>2026-04-10T20:51:12.000Z</time></trkpt>
        <trkpt lat="29.678611" lon="104.732749"><ele>637.9973</ele><time>2026-04-10T20:51:17.000Z</time></trkpt>
        <trkpt lat="29.678611" lon="104.73269"><ele>636.39716</ele><time>2026-04-10T20:51:22.000Z</time></trkpt>
        <trkpt lat="29.67861" lon="104.732618"><ele>636.1035</ele><time>2026-04-10T20:51:27.000Z</time></trkpt>
        <trkpt lat="29.678602" lon="104.732566"><ele>637.73126</ele><time>2026-04-10T20:51:31.000Z</time></trkpt>
        <trkpt lat="29.678594" lon="104.732498"><ele>638.37286</ele><time>2026-04-10T20:51:36.000Z</time></trkpt>
        <trkpt lat="29.678593" lon="104.732442"><ele>638.2818</ele><time>2026-04-10T20:51:42.000Z</time></trkpt>
        <trkpt lat="29.678606" lon="104.732389"><ele>638.8239</ele><time>2026-04-10T20:51:48.000Z</time></trkpt>
        <trkpt lat="29.678612" lon="104.732327"><ele>641.05804</ele><time>2026-04-10T20:51:54.000Z</time></trkpt>
        <trkpt lat="29.678609" lon="104.732269"><ele>641.36926</ele><time>2026-04-10T20:51:59.000Z</time></trkpt>
        <trkpt lat="29.678602" lon="104.732216"><ele>640.77673</ele><time>2026-04-10T20:52:03.000Z</time></trkpt>
        <trkpt lat="29.678604" lon="104.732159"><ele>640.28125</ele><time>2026-04-10T20:52:07.000Z</time></trkpt>
        <trkpt lat="29.678575" lon="104.732101"><ele>638.17224</ele><time>2026-04-10T20:52:12.000Z</time></trkpt>
        <trkpt lat="29.678546" lon="104.732061"><ele>633.3593</ele><time>2026-04-10T20:52:29.000Z</time></trkpt>
        <trkpt lat="29.678508" lon="104.732026"><ele>632.7403</ele><time>2026-04-10T20:52:38.000Z</time></trkpt>
        <trkpt lat="29.678491" lon="104.731978"><ele>633.43494</ele><time>2026-04-10T20:52:43.000Z</time></trkpt>
        <trkpt lat="29.678472" lon="104.731925"><ele>631.96985</ele><time>2026-04-10T20:52:50.000Z</time></trkpt>
        <trkpt lat="29.678445" lon="104.731882"><ele>632.38617</ele><time>2026-04-10T20:52:54.000Z</time></trkpt>
        <trkpt lat="29.678413" lon="104.731831"><ele>633.8541</ele><time>2026-04-10T20:52:58.000Z</time></trkpt>
        <trkpt lat="29.678384" lon="104.731789"><ele>634.35114</ele><time>2026-04-10T20:53:02.000Z</time></trkpt>
        <trkpt lat="29.678351" lon="104.73174"><ele>634.40607</ele><time>2026-04-10T20:53:06.000Z</time></trkpt>
        <trkpt lat="29.678318" lon="104.731687"><ele>633.891</ele><time>2026-04-10T20:53:10.000Z</time></trkpt>
        <trkpt lat="29.678292" lon="104.731627"><ele>633.1313</ele><time>2026-04-10T20:53:15.000Z</time></trkpt>
        <trkpt lat="29.67827" lon="104.731564"><ele>633.39215</ele><time>2026-04-10T20:53:20.000Z</time></trkpt>
        <trkpt lat="29.678235" lon="104.731527"><ele>632.73676</ele><time>2026-04-10T20:53:25.000Z</time></trkpt>
        <trkpt lat="29.678197" lon="104.731486"><ele>632.1033</ele><time>2026-04-10T20:53:33.000Z</time></trkpt>
        <trkpt lat="29.67818" lon="104.731435"><ele>630.8199</ele><time>2026-04-10T20:53:39.000Z</time></trkpt>
        <trkpt lat="29.678153" lon="104.731394"><ele>631.4511</ele><time>2026-04-10T20:53:58.000Z</time></trkpt>
        <trkpt lat="29.678123" lon="104.731354"><ele>629.3561</ele><time>2026-04-10T20:54:22.000Z</time></trkpt>
        <trkpt lat="29.678094" lon="104.731313"><ele>625.77966</ele><time>2026-04-10T20:54:31.000Z</time></trkpt>
        <trkpt lat="29.67806" lon="104.731257"><ele>623.75183</ele><time>2026-04-10T20:54:36.000Z</time></trkpt>
        <trkpt lat="29.678057" lon="104.731199"><ele>623.3212</ele><time>2026-04-10T20:54:42.000Z</time></trkpt>
        <trkpt lat="29.678017" lon="104.731159"><ele>622.9078</ele><time>2026-04-10T20:54:48.000Z</time></trkpt>
        <trkpt lat="29.678015" lon="104.731107"><ele>621.57135</ele><time>2026-04-10T20:54:54.000Z</time></trkpt>
        <trkpt lat="29.677966" lon="104.731068"><ele>621.40607</ele><time>2026-04-10T20:55:01.000Z</time></trkpt>
        <trkpt lat="29.677946" lon="104.731019"><ele>619.9049</ele><time>2026-04-10T20:55:09.000Z</time></trkpt>
        <trkpt lat="29.67791" lon="104.730986"><ele>619.4088</ele><time>2026-04-10T20:55:14.000Z</time></trkpt>
        <trkpt lat="29.677888" lon="104.731033"><ele>618.4992</ele><time>2026-04-10T20:55:27.000Z</time></trkpt>
        <trkpt lat="29.677851" lon="104.730995"><ele>617.83636</ele><time>2026-04-10T20:55:38.000Z</time></trkpt>
        <trkpt lat="29.67785" lon="104.730928"><ele>618.3802</ele><time>2026-04-10T20:55:43.000Z</time></trkpt>
        <trkpt lat="29.677834" lon="104.730871"><ele>620.1178</ele><time>2026-04-10T20:55:47.000Z</time></trkpt>
        <trkpt lat="29.677826" lon="104.730819"><ele>620.6365</ele><time>2026-04-10T20:55:51.000Z</time></trkpt>
        <trkpt lat="29.677823" lon="104.730752"><ele>620.4147</ele><time>2026-04-10T20:55:56.000Z</time></trkpt>
        <trkpt lat="29.677821" lon="104.730696"><ele>620.27905</ele><time>2026-04-10T20:56:00.000Z</time></trkpt>
        <trkpt lat="29.67783" lon="104.730644"><ele>620.51227</ele><time>2026-04-10T20:56:04.000Z</time></trkpt>
        <trkpt lat="29.677854" lon="104.730589"><ele>621.8159</ele><time>2026-04-10T20:56:09.000Z</time></trkpt>
        <trkpt lat="29.677879" lon="104.730545"><ele>620.86865</ele><time>2026-04-10T20:56:13.000Z</time></trkpt>
        <trkpt lat="29.677899" lon="104.730491"><ele>619.3044</ele><time>2026-04-10T20:56:19.000Z</time></trkpt>
        <trkpt lat="29.677912" lon="104.730433"><ele>619.59827</ele><time>2026-04-10T20:56:24.000Z</time></trkpt>
        <trkpt lat="29.677943" lon="104.730387"><ele>619.42303</ele><time>2026-04-10T20:56:28.000Z</time></trkpt>
        <trkpt lat="29.677952" lon="104.730334"><ele>619.2118</ele><time>2026-04-10T20:56:33.000Z</time></trkpt>
        <trkpt lat="29.677982" lon="104.730279"><ele>620.25397</ele><time>2026-04-10T20:56:37.000Z</time></trkpt>
        <trkpt lat="29.677994" lon="104.730218"><ele>619.6114</ele><time>2026-04-10T20:56:41.000Z</time></trkpt>
        <trkpt lat="29.677995" lon="104.730155"><ele>620.1775</ele><time>2026-04-10T20:56:45.000Z</time></trkpt>
        <trkpt lat="29.677992" lon="104.730095"><ele>620.58026</ele><time>2026-04-10T20:56:49.000Z</time></trkpt>
        <trkpt lat="29.677965" lon="104.73004"><ele>621.0437</ele><time>2026-04-10T20:56:53.000Z</time></trkpt>
        <trkpt lat="29.677948" lon="104.729984"><ele>621.153</ele><time>2026-04-10T20:56:57.000Z</time></trkpt>
        <trkpt lat="29.677926" lon="104.729938"><ele>621.4425</ele><time>2026-04-10T20:57:01.000Z</time></trkpt>
        <trkpt lat="29.677899" lon="104.729889"><ele>621.404</ele><time>2026-04-10T20:57:05.000Z</time></trkpt>
        <trkpt lat="29.677851" lon="104.729854"><ele>620.85785</ele><time>2026-04-10T20:57:10.000Z</time></trkpt>
        <trkpt lat="29.677825" lon="104.729811"><ele>620.1345</ele><time>2026-04-10T20:57:14.000Z</time></trkpt>
        <trkpt lat="29.677806" lon="104.729752"><ele>619.18976</ele><time>2026-04-10T20:57:19.000Z</time></trkpt>
        <trkpt lat="29.67779" lon="104.729688"><ele>617.47766</ele><time>2026-04-10T20:57:23.000Z</time></trkpt>
        <trkpt lat="29.677784" lon="104.729627"><ele>615.54</ele><time>2026-04-10T20:57:28.000Z</time></trkpt>
        <trkpt lat="29.677803" lon="104.729572"><ele>615.4523</ele><time>2026-04-10T20:57:32.000Z</time></trkpt>
        <trkpt lat="29.677816" lon="104.729512"><ele>614.74963</ele><time>2026-04-10T20:57:37.000Z</time></trkpt>
        <trkpt lat="29.677834" lon="104.72946"><ele>614.7337</ele><time>2026-04-10T20:57:41.000Z</time></trkpt>
        <trkpt lat="29.67786" lon="104.729405"><ele>614.4744</ele><time>2026-04-10T20:57:45.000Z</time></trkpt>
        <trkpt lat="29.677896" lon="104.729359"><ele>614.6924</ele><time>2026-04-10T20:57:49.000Z</time></trkpt>
        <trkpt lat="29.677919" lon="104.729301"><ele>614.1165</ele><time>2026-04-10T20:57:53.000Z</time></trkpt>
        <trkpt lat="29.677941" lon="104.729254"><ele>613.5864</ele><time>2026-04-10T20:57:57.000Z</time></trkpt>
        <trkpt lat="29.677952" lon="104.729192"><ele>613.5435</ele><time>2026-04-10T20:58:02.000Z</time></trkpt>
        <trkpt lat="29.677957" lon="104.72913"><ele>613.6263</ele><time>2026-04-10T20:58:06.000Z</time></trkpt>
        <trkpt lat="29.677975" lon="104.729076"><ele>614.6807</ele><time>2026-04-10T20:58:10.000Z</time></trkpt>
        <trkpt lat="29.677966" lon="104.729025"><ele>615.5892</ele><time>2026-04-10T20:58:14.000Z</time></trkpt>
        <trkpt lat="29.677958" lon="104.728972"><ele>616.58746</ele><time>2026-04-10T20:58:17.000Z</time></trkpt>
        <trkpt lat="29.677952" lon="104.728921"><ele>617.4036</ele><time>2026-04-10T20:58:20.000Z</time></trkpt>
        <trkpt lat="29.677961" lon="104.728863"><ele>618.32855</ele><time>2026-04-10T20:58:24.000Z</time></trkpt>
        <trkpt lat="29.677972" lon="104.728806"><ele>619.5695</ele><time>2026-04-10T20:58:29.000Z</time></trkpt>
        <trkpt lat="29.677962" lon="104.728755"><ele>620.7137</ele><time>2026-04-10T20:58:33.000Z</time></trkpt>
        <trkpt lat="29.677959" lon="104.728691"><ele>621.1218</ele><time>2026-04-10T20:58:37.000Z</time></trkpt>
        <trkpt lat="29.677955" lon="104.728635"><ele>622.1838</ele><time>2026-04-10T20:58:41.000Z</time></trkpt>
        <trkpt lat="29.677949" lon="104.728576"><ele>624.1047</ele><time>2026-04-10T20:58:45.000Z</time></trkpt>
        <trkpt lat="29.677942" lon="104.728516"><ele>624.702</ele><time>2026-04-10T20:58:49.000Z</time></trkpt>
        <trkpt lat="29.677935" lon="104.728465"><ele>625.8721</ele><time>2026-04-10T20:58:53.000Z</time></trkpt>
        <trkpt lat="29.677921" lon="104.728415"><ele>625.7465</ele><time>2026-04-10T20:58:56.000Z</time></trkpt>
        <trkpt lat="29.677892" lon="104.728368"><ele>625.2477</ele><time>2026-04-10T20:59:00.000Z</time></trkpt>
        <trkpt lat="29.677868" lon="104.728312"><ele>627.3523</ele><time>2026-04-10T20:59:05.000Z</time></trkpt>
        <trkpt lat="29.67787" lon="104.72826"><ele>628.67255</ele><time>2026-04-10T20:59:09.000Z</time></trkpt>
        <trkpt lat="29.677849" lon="104.728212"><ele>629.34863</ele><time>2026-04-10T20:59:13.000Z</time></trkpt>
        <trkpt lat="29.677821" lon="104.728165"><ele>629.7826</ele><time>2026-04-10T20:59:18.000Z</time></trkpt>
        <trkpt lat="29.677784" lon="104.728123"><ele>630.9528</ele><time>2026-04-10T20:59:23.000Z</time></trkpt>
        <trkpt lat="29.677749" lon="104.728079"><ele>632.42615</ele><time>2026-04-10T20:59:29.000Z</time></trkpt>
        <trkpt lat="29.67771" lon="104.728052"><ele>631.8021</ele><time>2026-04-10T20:59:33.000Z</time></trkpt>
        <trkpt lat="29.677665" lon="104.728029"><ele>633.1666</ele><time>2026-04-10T20:59:38.000Z</time></trkpt>
        <trkpt lat="29.677619" lon="104.728027"><ele>634.5669</ele><time>2026-04-10T20:59:43.000Z</time></trkpt>
        <trkpt lat="29.67757" lon="104.72801"><ele>634.73303</ele><time>2026-04-10T20:59:47.000Z</time></trkpt>
        <trkpt lat="29.677519" lon="104.727985"><ele>634.7112</ele><time>2026-04-10T20:59:51.000Z</time></trkpt>
        <trkpt lat="29.677491" lon="104.727938"><ele>635.6469</ele><time>2026-04-10T20:59:56.000Z</time></trkpt>
        <trkpt lat="29.677457" lon="104.727903"><ele>635.792</ele><time>2026-04-10T20:59:59.000Z</time></trkpt>
        <trkpt lat="29.677427" lon="104.72786"><ele>635.6659</ele><time>2026-04-10T21:00:03.000Z</time></trkpt>
        <trkpt lat="29.677401" lon="104.72781"><ele>634.0708</ele><time>2026-04-10T21:00:07.000Z</time></trkpt>
        <trkpt lat="29.677376" lon="104.727757"><ele>635.15735</ele><time>2026-04-10T21:00:12.000Z</time></trkpt>
        <trkpt lat="29.677341" lon="104.727711"><ele>635.7402</ele><time>2026-04-10T21:00:17.000Z</time></trkpt>
        <trkpt lat="29.677293" lon="104.727679"><ele>638.1771</ele><time>2026-04-10T21:00:22.000Z</time></trkpt>
        <trkpt lat="29.677246" lon="104.727667"><ele>640.0724</ele><time>2026-04-10T21:00:27.000Z</time></trkpt>
        <trkpt lat="29.677194" lon="104.727685"><ele>639.5974</ele><time>2026-04-10T21:00:32.000Z</time></trkpt>
        <trkpt lat="29.677144" lon="104.727673"><ele>638.02734</ele><time>2026-04-10T21:00:38.000Z</time></trkpt>
        <trkpt lat="29.677093" lon="104.727663"><ele>637.44885</ele><time>2026-04-10T21:00:43.000Z</time></trkpt>
        <trkpt lat="29.677046" lon="104.727673"><ele>638.80835</ele><time>2026-04-10T21:00:46.000Z</time></trkpt>
        <trkpt lat="29.676996" lon="104.727676"><ele>639.68317</ele><time>2026-04-10T21:00:50.000Z</time></trkpt>
        <trkpt lat="29.676943" lon="104.727668"><ele>639.3306</ele><time>2026-04-10T21:00:54.000Z</time></trkpt>
        <trkpt lat="29.676886" lon="104.727671"><ele>640.0462</ele><time>2026-04-10T21:00:58.000Z</time></trkpt>
        <trkpt lat="29.676842" lon="104.727658"><ele>640.04974</ele><time>2026-04-10T21:01:02.000Z</time></trkpt>
        <trkpt lat="29.676794" lon="104.727645"><ele>639.0021</ele><time>2026-04-10T21:01:06.000Z</time></trkpt>
        <trkpt lat="29.676754" lon="104.727604"><ele>638.6175</ele><time>2026-04-10T21:01:54.000Z</time></trkpt>
        <trkpt lat="29.676732" lon="104.727552"><ele>638.2531</ele><time>2026-04-10T21:01:58.000Z</time></trkpt>
        <trkpt lat="29.676709" lon="104.727505"><ele>639.57794</ele><time>2026-04-10T21:02:02.000Z</time></trkpt>
        <trkpt lat="29.676707" lon="104.727447"><ele>639.5549</ele><time>2026-04-10T21:02:07.000Z</time></trkpt>
        <trkpt lat="29.676712" lon="104.727388"><ele>639.3927</ele><time>2026-04-10T21:02:11.000Z</time></trkpt>
        <trkpt lat="29.676709" lon="104.727326"><ele>638.9184</ele><time>2026-04-10T21:02:15.000Z</time></trkpt>
        <trkpt lat="29.676713" lon="104.727266"><ele>639.2564</ele><time>2026-04-10T21:02:19.000Z</time></trkpt>
        <trkpt lat="29.676706" lon="104.727207"><ele>638.7987</ele><time>2026-04-10T21:02:23.000Z</time></trkpt>
        <trkpt lat="29.676691" lon="104.727157"><ele>638.64374</ele><time>2026-04-10T21:02:27.000Z</time></trkpt>
        <trkpt lat="29.676684" lon="104.727102"><ele>638.86285</ele><time>2026-04-10T21:02:31.000Z</time></trkpt>
        <trkpt lat="29.676679" lon="104.727036"><ele>639.6179</ele><time>2026-04-10T21:02:35.000Z</time></trkpt>
        <trkpt lat="29.676679" lon="104.726969"><ele>639.1447</ele><time>2026-04-10T21:02:39.000Z</time></trkpt>
        <trkpt lat="29.676669" lon="104.726909"><ele>639.42145</ele><time>2026-04-10T21:02:43.000Z</time></trkpt>
        <trkpt lat="29.676662" lon="104.726848"><ele>639.2499</ele><time>2026-04-10T21:02:47.000Z</time></trkpt>
        <trkpt lat="29.676652" lon="104.726791"><ele>637.7194</ele><time>2026-04-10T21:02:51.000Z</time></trkpt>
        <trkpt lat="29.676644" lon="104.726731"><ele>637.1186</ele><time>2026-04-10T21:02:55.000Z</time></trkpt>
        <trkpt lat="29.676652" lon="104.726669"><ele>637.56903</ele><time>2026-04-10T21:02:58.000Z</time></trkpt>
        <trkpt lat="29.676647" lon="104.72661"><ele>636.96106</ele><time>2026-04-10T21:03:02.000Z</time></trkpt>
        <trkpt lat="29.676637" lon="104.726545"><ele>636.07745</ele><time>2026-04-10T21:03:07.000Z</time></trkpt>
        <trkpt lat="29.676631" lon="104.726491"><ele>634.7563</ele><time>2026-04-10T21:03:11.000Z</time></trkpt>
        <trkpt lat="29.676655" lon="104.726432"><ele>633.999</ele><time>2026-04-10T21:03:15.000Z</time></trkpt>
        <trkpt lat="29.676664" lon="104.726371"><ele>634.0159</ele><time>2026-04-10T21:03:19.000Z</time></trkpt>
        <trkpt lat="29.676672" lon="104.726318"><ele>633.63666</ele><time>2026-04-10T21:03:23.000Z</time></trkpt>
        <trkpt lat="29.676675" lon="104.726263"><ele>634.3206</ele><time>2026-04-10T21:03:27.000Z</time></trkpt>
        <trkpt lat="29.676679" lon="104.726201"><ele>634.3816</ele><time>2026-04-10T21:03:31.000Z</time></trkpt>
        <trkpt lat="29.676688" lon="104.726137"><ele>635.2863</ele><time>2026-04-10T21:03:35.000Z</time></trkpt>
        <trkpt lat="29.676691" lon="104.726071"><ele>635.95123</ele><time>2026-04-10T21:03:39.000Z</time></trkpt>
        <trkpt lat="29.676697" lon="104.726008"><ele>636.1023</ele><time>2026-04-10T21:03:43.000Z</time></trkpt>
        <trkpt lat="29.676701" lon="104.725945"><ele>637.9568</ele><time>2026-04-10T21:03:48.000Z</time></trkpt>
        <trkpt lat="29.6767" lon="104.725888"><ele>638.464</ele><time>2026-04-10T21:03:52.000Z</time></trkpt>
        <trkpt lat="29.676703" lon="104.725828"><ele>638.57104</ele><time>2026-04-10T21:03:57.000Z</time></trkpt>
        <trkpt lat="29.676711" lon="104.725777"><ele>639.0407</ele><time>2026-04-10T21:04:00.000Z</time></trkpt>
        <trkpt lat="29.676723" lon="104.725703"><ele>639.5287</ele><time>2026-04-10T21:04:05.000Z</time></trkpt>
        <trkpt lat="29.67673" lon="104.725648"><ele>639.1421</ele><time>2026-04-10T21:04:09.000Z</time></trkpt>
        <trkpt lat="29.676739" lon="104.725594"><ele>639.4465</ele><time>2026-04-10T21:04:13.000Z</time></trkpt>
        <trkpt lat="29.676759" lon="104.725538"><ele>640.0466</ele><time>2026-04-10T21:04:17.000Z</time></trkpt>
        <trkpt lat="29.676772" lon="104.725484"><ele>640.2189</ele><time>2026-04-10T21:04:21.000Z</time></trkpt>
        <trkpt lat="29.676786" lon="104.725427"><ele>641.0486</ele><time>2026-04-10T21:04:26.000Z</time></trkpt>
        <trkpt lat="29.676808" lon="104.725374"><ele>641.58075</ele><time>2026-04-10T21:04:30.000Z</time></trkpt>
        <trkpt lat="29.676833" lon="104.72532"><ele>641.51184</ele><time>2026-04-10T21:04:34.000Z</time></trkpt>
        <trkpt lat="29.676862" lon="104.725269"><ele>641.9688</ele><time>2026-04-10T21:04:38.000Z</time></trkpt>
        <trkpt lat="29.676897" lon="104.725213"><ele>642.8341</ele><time>2026-04-10T21:04:42.000Z</time></trkpt>
        <trkpt lat="29.676914" lon="104.725149"><ele>645.06067</ele><time>2026-04-10T21:04:47.000Z</time></trkpt>
        <trkpt lat="29.676934" lon="104.725101"><ele>645.4576</ele><time>2026-04-10T21:04:51.000Z</time></trkpt>
        <trkpt lat="29.676941" lon="104.725049"><ele>645.3421</ele><time>2026-04-10T21:04:54.000Z</time></trkpt>
        <trkpt lat="29.676917" lon="104.724991"><ele>645.80585</ele><time>2026-04-10T21:04:58.000Z</time></trkpt>
        <trkpt lat="29.676882" lon="104.724943"><ele>646.87244</ele><time>2026-04-10T21:05:02.000Z</time></trkpt>
        <trkpt lat="29.676845" lon="104.72491"><ele>647.3192</ele><time>2026-04-10T21:05:05.000Z</time></trkpt>
        <trkpt lat="29.676798" lon="104.724888"><ele>646.98535</ele><time>2026-04-10T21:05:09.000Z</time></trkpt>
        <trkpt lat="29.676752" lon="104.724868"><ele>647.09717</ele><time>2026-04-10T21:05:13.000Z</time></trkpt>
        <trkpt lat="29.67672" lon="104.724828"><ele>646.781</ele><time>2026-04-10T21:05:16.000Z</time></trkpt>
        <trkpt lat="29.676687" lon="104.72477"><ele>645.5696</ele><time>2026-04-10T21:05:21.000Z</time></trkpt>
        <trkpt lat="29.676653" lon="104.724732"><ele>646.073</ele><time>2026-04-10T21:05:25.000Z</time></trkpt>
        <trkpt lat="29.676615" lon="104.724701"><ele>646.943</ele><time>2026-04-10T21:05:29.000Z</time></trkpt>
        <trkpt lat="29.676595" lon="104.724654"><ele>645.7609</ele><time>2026-04-10T21:05:33.000Z</time></trkpt>
        <trkpt lat="29.676572" lon="104.724598"><ele>645.545</ele><time>2026-04-10T21:05:38.000Z</time></trkpt>
        <trkpt lat="29.676544" lon="104.724541"><ele>645.3314</ele><time>2026-04-10T21:05:46.000Z</time></trkpt>
        <trkpt lat="29.676515" lon="104.724487"><ele>645.7543</ele><time>2026-04-10T21:05:52.000Z</time></trkpt>
        <trkpt lat="29.676487" lon="104.724429"><ele>646.5283</ele><time>2026-04-10T21:06:04.000Z</time></trkpt>
        <trkpt lat="29.676452" lon="104.724379"><ele>646.4974</ele><time>2026-04-10T21:06:08.000Z</time></trkpt>
        <trkpt lat="29.676419" lon="104.72433"><ele>647.17236</ele><time>2026-04-10T21:06:12.000Z</time></trkpt>
        <trkpt lat="29.676404" lon="104.72428"><ele>647.25116</ele><time>2026-04-10T21:06:16.000Z</time></trkpt>
        <trkpt lat="29.676385" lon="104.724228"><ele>646.12463</ele><time>2026-04-10T21:06:21.000Z</time></trkpt>
        <trkpt lat="29.67634" lon="104.724184"><ele>646.8203</ele><time>2026-04-10T21:06:26.000Z</time></trkpt>
        <trkpt lat="29.676292" lon="104.724152"><ele>648.0348</ele><time>2026-04-10T21:06:31.000Z</time></trkpt>
        <trkpt lat="29.676246" lon="104.724142"><ele>648.26135</ele><time>2026-04-10T21:06:36.000Z</time></trkpt>
        <trkpt lat="29.676198" lon="104.724141"><ele>648.78217</ele><time>2026-04-10T21:06:42.000Z</time></trkpt>
        <trkpt lat="29.676149" lon="104.724154"><ele>650.1522</ele><time>2026-04-10T21:06:46.000Z</time></trkpt>
        <trkpt lat="29.676095" lon="104.724181"><ele>649.9769</ele><time>2026-04-10T21:06:52.000Z</time></trkpt>
        <trkpt lat="29.676054" lon="104.724206"><ele>650.5609</ele><time>2026-04-10T21:06:57.000Z</time></trkpt>
        <trkpt lat="29.676019" lon="104.724243"><ele>650.6556</ele><time>2026-04-10T21:07:02.000Z</time></trkpt>
        <trkpt lat="29.675972" lon="104.724269"><ele>650.48517</ele><time>2026-04-10T21:07:07.000Z</time></trkpt>
        <trkpt lat="29.675919" lon="104.72427"><ele>650.61084</ele><time>2026-04-10T21:07:12.000Z</time></trkpt>
        <trkpt lat="29.675865" lon="104.724249"><ele>650.66174</ele><time>2026-04-10T21:07:17.000Z</time></trkpt>
        <trkpt lat="29.675817" lon="104.724247"><ele>650.13</ele><time>2026-04-10T21:07:21.000Z</time></trkpt>
        <trkpt lat="29.675765" lon="104.724212"><ele>650.26245</ele><time>2026-04-10T21:07:26.000Z</time></trkpt>
        <trkpt lat="29.675721" lon="104.724183"><ele>650.2262</ele><time>2026-04-10T21:07:31.000Z</time></trkpt>
        <trkpt lat="29.675681" lon="104.724155"><ele>650.25934</ele><time>2026-04-10T21:07:35.000Z</time></trkpt>
        <trkpt lat="29.675636" lon="104.724129"><ele>649.4134</ele><time>2026-04-10T21:07:40.000Z</time></trkpt>
        <trkpt lat="29.67559" lon="104.724121"><ele>649.8153</ele><time>2026-04-10T21:07:44.000Z</time></trkpt>
        <trkpt lat="29.675538" lon="104.724122"><ele>650.6139</ele><time>2026-04-10T21:07:49.000Z</time></trkpt>
        <trkpt lat="29.675486" lon="104.72411"><ele>650.5286</ele><time>2026-04-10T21:07:54.000Z</time></trkpt>
        <trkpt lat="29.67544" lon="104.724095"><ele>650.1578</ele><time>2026-04-10T21:07:59.000Z</time></trkpt>
        <trkpt lat="29.675396" lon="104.72408"><ele>650.642</ele><time>2026-04-10T21:08:03.000Z</time></trkpt>
        <trkpt lat="29.675348" lon="104.724064"><ele>650.34595</ele><time>2026-04-10T21:08:08.000Z</time></trkpt>
        <trkpt lat="29.675296" lon="104.724056"><ele>649.9023</ele><time>2026-04-10T21:08:12.000Z</time></trkpt>
        <trkpt lat="29.675243" lon="104.724051"><ele>650.0212</ele><time>2026-04-10T21:08:18.000Z</time></trkpt>
        <trkpt lat="29.675198" lon="104.72404"><ele>650.01807</ele><time>2026-04-10T21:08:22.000Z</time></trkpt>
        <trkpt lat="29.675152" lon="104.724039"><ele>650.36395</ele><time>2026-04-10T21:08:27.000Z</time></trkpt>
        <trkpt lat="29.675102" lon="104.72404"><ele>650.1792</ele><time>2026-04-10T21:08:33.000Z</time></trkpt>
        <trkpt lat="29.675051" lon="104.724039"><ele>649.5263</ele><time>2026-04-10T21:08:38.000Z</time></trkpt>
        <trkpt lat="29.674997" lon="104.724039"><ele>649.13086</ele><time>2026-04-10T21:08:43.000Z</time></trkpt>
        <trkpt lat="29.674949" lon="104.724032"><ele>649.35516</ele><time>2026-04-10T21:08:48.000Z</time></trkpt>
        <trkpt lat="29.6749" lon="104.724014"><ele>649.587</ele><time>2026-04-10T21:08:53.000Z</time></trkpt>
        <trkpt lat="29.674855" lon="104.723999"><ele>649.944</ele><time>2026-04-10T21:08:57.000Z</time></trkpt>
        <trkpt lat="29.674807" lon="104.723975"><ele>649.5563</ele><time>2026-04-10T21:09:03.000Z</time></trkpt>
        <trkpt lat="29.674764" lon="104.723948"><ele>649.8517</ele><time>2026-04-10T21:09:08.000Z</time></trkpt>
        <trkpt lat="29.674721" lon="104.723918"><ele>649.7018</ele><time>2026-04-10T21:09:13.000Z</time></trkpt>
        <trkpt lat="29.674686" lon="104.723876"><ele>649.8508</ele><time>2026-04-10T21:09:18.000Z</time></trkpt>
        <trkpt lat="29.674676" lon="104.723821"><ele>649.5659</ele><time>2026-04-10T21:09:23.000Z</time></trkpt>
        <trkpt lat="29.674667" lon="104.723765"><ele>649.20746</ele><time>2026-04-10T21:09:28.000Z</time></trkpt>
        <trkpt lat="29.674669" lon="104.723704"><ele>649.43945</ele><time>2026-04-10T21:09:33.000Z</time></trkpt>
        <trkpt lat="29.674692" lon="104.723644"><ele>648.53125</ele><time>2026-04-10T21:09:38.000Z</time></trkpt>
        <trkpt lat="29.674715" lon="104.723596"><ele>647.2541</ele><time>2026-04-10T21:09:43.000Z</time></trkpt>
        <trkpt lat="29.674742" lon="104.723549"><ele>647.1436</ele><time>2026-04-10T21:09:48.000Z</time></trkpt>
        <trkpt lat="29.674761" lon="104.723488"><ele>646.80444</ele><time>2026-04-10T21:09:53.000Z</time></trkpt>
        <trkpt lat="29.674783" lon="104.723443"><ele>646.59534</ele><time>2026-04-10T21:09:57.000Z</time></trkpt>
        <trkpt lat="29.674793" lon="104.723387"><ele>644.50854</ele><time>2026-04-10T21:10:01.000Z</time></trkpt>
        <trkpt lat="29.674786" lon="104.723324"><ele>645.92175</ele><time>2026-04-10T21:10:06.000Z</time></trkpt>
        <trkpt lat="29.674741" lon="104.723281"><ele>645.8475</ele><time>2026-04-10T21:10:10.000Z</time></trkpt>
        <trkpt lat="29.674694" lon="104.723254"><ele>647.4368</ele><time>2026-04-10T21:10:14.000Z</time></trkpt>
        <trkpt lat="29.674648" lon="104.723239"><ele>647.40015</ele><time>2026-04-10T21:10:17.000Z</time></trkpt>
        <trkpt lat="29.674598" lon="104.723246"><ele>647.1947</ele><time>2026-04-10T21:10:20.000Z</time></trkpt>
        <trkpt lat="29.674543" lon="104.723232"><ele>646.0366</ele><time>2026-04-10T21:10:25.000Z</time></trkpt>
        <trkpt lat="29.674499" lon="104.723214"><ele>645.8543</ele><time>2026-04-10T21:10:29.000Z</time></trkpt>
        <trkpt lat="29.674443" lon="104.723199"><ele>646.5593</ele><time>2026-04-10T21:10:33.000Z</time></trkpt>
        <trkpt lat="29.674398" lon="104.723179"><ele>647.4784</ele><time>2026-04-10T21:10:36.000Z</time></trkpt>
        <trkpt lat="29.674351" lon="104.723174"><ele>647.4245</ele><time>2026-04-10T21:10:40.000Z</time></trkpt>
        <trkpt lat="29.674306" lon="104.723178"><ele>647.8508</ele><time>2026-04-10T21:10:44.000Z</time></trkpt>
        <trkpt lat="29.674259" lon="104.723178"><ele>647.96423</ele><time>2026-04-10T21:10:47.000Z</time></trkpt>
        <trkpt lat="29.674199" lon="104.72317"><ele>647.68835</ele><time>2026-04-10T21:10:51.000Z</time></trkpt>
        <trkpt lat="29.674147" lon="104.72317"><ele>646.739</ele><time>2026-04-10T21:10:55.000Z</time></trkpt>
        <trkpt lat="29.674097" lon="104.723157"><ele>646.7776</ele><time>2026-04-10T21:10:58.000Z</time></trkpt>
        <trkpt lat="29.674055" lon="104.723137"><ele>646.28424</ele><time>2026-04-10T21:11:03.000Z</time></trkpt>
        <trkpt lat="29.674015" lon="104.72311"><ele>645.4533</ele><time>2026-04-10T21:11:08.000Z</time></trkpt>
        <trkpt lat="29.673983" lon="104.72307"><ele>644.98846</ele><time>2026-04-10T21:11:12.000Z</time></trkpt>
        <trkpt lat="29.673959" lon="104.723025"><ele>644.4488</ele><time>2026-04-10T21:11:15.000Z</time></trkpt>
        <trkpt lat="29.673941" lon="104.722966"><ele>644.7277</ele><time>2026-04-10T21:11:19.000Z</time></trkpt>
        <trkpt lat="29.673908" lon="104.722915"><ele>645.4223</ele><time>2026-04-10T21:11:23.000Z</time></trkpt>
        <trkpt lat="29.67387" lon="104.722868"><ele>646.17975</ele><time>2026-04-10T21:11:28.000Z</time></trkpt>
        <trkpt lat="29.673829" lon="104.722824"><ele>647.06775</ele><time>2026-04-10T21:11:32.000Z</time></trkpt>
        <trkpt lat="29.673787" lon="104.722783"><ele>647.4591</ele><time>2026-04-10T21:11:36.000Z</time></trkpt>
        <trkpt lat="29.673748" lon="104.722737"><ele>647.46594</ele><time>2026-04-10T21:11:40.000Z</time></trkpt>
        <trkpt lat="29.673707" lon="104.722691"><ele>648.133</ele><time>2026-04-10T21:11:44.000Z</time></trkpt>
        <trkpt lat="29.673683" lon="104.722643"><ele>648.2891</ele><time>2026-04-10T21:11:47.000Z</time></trkpt>
        <trkpt lat="29.673678" lon="104.722585"><ele>646.80426</ele><time>2026-04-10T21:11:52.000Z</time></trkpt>
        <trkpt lat="29.673672" lon="104.722521"><ele>645.74146</ele><time>2026-04-10T21:11:57.000Z</time></trkpt>
        <trkpt lat="29.673695" lon="104.722475"><ele>646.23895</ele><time>2026-04-10T21:12:01.000Z</time></trkpt>
        <trkpt lat="29.67373" lon="104.72243"><ele>646.0044</ele><time>2026-04-10T21:12:05.000Z</time></trkpt>
        <trkpt lat="29.67378" lon="104.722397"><ele>645.43884</ele><time>2026-04-10T21:12:10.000Z</time></trkpt>
        <trkpt lat="29.673828" lon="104.722381"><ele>646.0428</ele><time>2026-04-10T21:12:14.000Z</time></trkpt>
        <trkpt lat="29.673873" lon="104.722358"><ele>645.7131</ele><time>2026-04-10T21:12:18.000Z</time></trkpt>
        <trkpt lat="29.673917" lon="104.722335"><ele>646.19446</ele><time>2026-04-10T21:12:22.000Z</time></trkpt>
        <trkpt lat="29.673969" lon="104.722319"><ele>646.3382</ele><time>2026-04-10T21:12:26.000Z</time></trkpt>
        <trkpt lat="29.674008" lon="104.722283"><ele>646.3264</ele><time>2026-04-10T21:12:29.000Z</time></trkpt>
        <trkpt lat="29.67402" lon="104.72223"><ele>647.5483</ele><time>2026-04-10T21:12:33.000Z</time></trkpt>
        <trkpt lat="29.674023" lon="104.722177"><ele>648.0179</ele><time>2026-04-10T21:12:36.000Z</time></trkpt>
        <trkpt lat="29.67402" lon="104.722121"><ele>647.47064</ele><time>2026-04-10T21:12:40.000Z</time></trkpt>
        <trkpt lat="29.674005" lon="104.722058"><ele>646.56714</ele><time>2026-04-10T21:12:44.000Z</time></trkpt>
        <trkpt lat="29.673989" lon="104.721994"><ele>644.8368</ele><time>2026-04-10T21:12:48.000Z</time></trkpt>
        <trkpt lat="29.673967" lon="104.721936"><ele>643.5287</ele><time>2026-04-10T21:12:52.000Z</time></trkpt>
        <trkpt lat="29.673946" lon="104.721883"><ele>641.9932</ele><time>2026-04-10T21:12:56.000Z</time></trkpt>
        <trkpt lat="29.673933" lon="104.721817"><ele>640.22754</ele><time>2026-04-10T21:13:01.000Z</time></trkpt>
        <trkpt lat="29.673938" lon="104.721753"><ele>637.3894</ele><time>2026-04-10T21:13:06.000Z</time></trkpt>
        <trkpt lat="29.673952" lon="104.7217"><ele>637.03156</ele><time>2026-04-10T21:13:10.000Z</time></trkpt>
        <trkpt lat="29.673973" lon="104.721645"><ele>635.3432</ele><time>2026-04-10T21:13:23.000Z</time></trkpt>
        <trkpt lat="29.673981" lon="104.721583"><ele>636.2878</ele><time>2026-04-10T21:13:27.000Z</time></trkpt>
        <trkpt lat="29.673976" lon="104.721528"><ele>635.18134</ele><time>2026-04-10T21:13:30.000Z</time></trkpt>
        <trkpt lat="29.67396" lon="104.721456"><ele>634.5944</ele><time>2026-04-10T21:13:33.000Z</time></trkpt>
        <trkpt lat="29.673927" lon="104.721412"><ele>634.78906</ele><time>2026-04-10T21:13:36.000Z</time></trkpt>
        <trkpt lat="29.673901" lon="104.721352"><ele>634.3418</ele><time>2026-04-10T21:13:39.000Z</time></trkpt>
        <trkpt lat="29.673899" lon="104.721289"><ele>635.4391</ele><time>2026-04-10T21:13:44.000Z</time></trkpt>
        <trkpt lat="29.673879" lon="104.721239"><ele>635.59015</ele><time>2026-04-10T21:13:47.000Z</time></trkpt>
        <trkpt lat="29.673844" lon="104.72118"><ele>636.86084</ele><time>2026-04-10T21:13:51.000Z</time></trkpt>
        <trkpt lat="29.673807" lon="104.721148"><ele>638.0137</ele><time>2026-04-10T21:13:54.000Z</time></trkpt>
        <trkpt lat="29.673757" lon="104.721131"><ele>638.762</ele><time>2026-04-10T21:13:58.000Z</time></trkpt>
        <trkpt lat="29.673713" lon="104.721097"><ele>639.1867</ele><time>2026-04-10T21:14:02.000Z</time></trkpt>
        <trkpt lat="29.673667" lon="104.721073"><ele>640.21124</ele><time>2026-04-10T21:14:06.000Z</time></trkpt>
        <trkpt lat="29.673617" lon="104.721047"><ele>641.5302</ele><time>2026-04-10T21:14:10.000Z</time></trkpt>
        <trkpt lat="29.673572" lon="104.721012"><ele>642.5045</ele><time>2026-04-10T21:14:15.000Z</time></trkpt>
        <trkpt lat="29.673543" lon="104.720963"><ele>643.8728</ele><time>2026-04-10T21:14:20.000Z</time></trkpt>
        <trkpt lat="29.673502" lon="104.720914"><ele>644.26154</ele><time>2026-04-10T21:14:24.000Z</time></trkpt>
        <trkpt lat="29.673462" lon="104.720869"><ele>644.1437</ele><time>2026-04-10T21:14:28.000Z</time></trkpt>
        <trkpt lat="29.673437" lon="104.720817"><ele>644.4744</ele><time>2026-04-10T21:14:32.000Z</time></trkpt>
        <trkpt lat="29.673403" lon="104.720767"><ele>644.80865</ele><time>2026-04-10T21:14:36.000Z</time></trkpt>
        <trkpt lat="29.673371" lon="104.720715"><ele>645.25476</ele><time>2026-04-10T21:14:40.000Z</time></trkpt>
        <trkpt lat="29.67335" lon="104.720656"><ele>645.7447</ele><time>2026-04-10T21:14:44.000Z</time></trkpt>
        <trkpt lat="29.673335" lon="104.720601"><ele>646.34045</ele><time>2026-04-10T21:14:48.000Z</time></trkpt>
        <trkpt lat="29.673327" lon="104.720548"><ele>646.4096</ele><time>2026-04-10T21:14:52.000Z</time></trkpt>
        <trkpt lat="29.673323" lon="104.720488"><ele>646.84644</ele><time>2026-04-10T21:14:57.000Z</time></trkpt>
        <trkpt lat="29.6733" lon="104.720439"><ele>647.33905</ele><time>2026-04-10T21:15:00.000Z</time></trkpt>
        <trkpt lat="29.673271" lon="104.720397"><ele>647.55133</ele><time>2026-04-10T21:15:03.000Z</time></trkpt>
        <trkpt lat="29.673241" lon="104.720354"><ele>646.95557</ele><time>2026-04-10T21:15:06.000Z</time></trkpt>
        <trkpt lat="29.673197" lon="104.720322"><ele>646.6434</ele><time>2026-04-10T21:15:10.000Z</time></trkpt>
        <trkpt lat="29.673159" lon="104.720289"><ele>645.33386</ele><time>2026-04-10T21:15:14.000Z</time></trkpt>
        <trkpt lat="29.673124" lon="104.720251"><ele>643.4343</ele><time>2026-04-10T21:15:18.000Z</time></trkpt>
        <trkpt lat="29.673088" lon="104.720213"><ele>642.6403</ele><time>2026-04-10T21:15:21.000Z</time></trkpt>
        <trkpt lat="29.673043" lon="104.720163"><ele>641.18665</ele><time>2026-04-10T21:15:25.000Z</time></trkpt>
        <trkpt lat="29.673018" lon="104.720117"><ele>640.746</ele><time>2026-04-10T21:15:29.000Z</time></trkpt>
        <trkpt lat="29.673005" lon="104.72006"><ele>641.2238</ele><time>2026-04-10T21:15:33.000Z</time></trkpt>
        <trkpt lat="29.67299" lon="104.719999"><ele>642.5918</ele><time>2026-04-10T21:15:37.000Z</time></trkpt>
        <trkpt lat="29.67297" lon="104.719945"><ele>642.5814</ele><time>2026-04-10T21:15:41.000Z</time></trkpt>
        <trkpt lat="29.672942" lon="104.719888"><ele>642.07745</ele><time>2026-04-10T21:15:45.000Z</time></trkpt>
        <trkpt lat="29.672932" lon="104.719831"><ele>642.34607</ele><time>2026-04-10T21:15:49.000Z</time></trkpt>
        <trkpt lat="29.672924" lon="104.719776"><ele>641.4262</ele><time>2026-04-10T21:15:53.000Z</time></trkpt>
        <trkpt lat="29.672924" lon="104.719719"><ele>641.7057</ele><time>2026-04-10T21:15:56.000Z</time></trkpt>
        <trkpt lat="29.672899" lon="104.719662"><ele>641.373</ele><time>2026-04-10T21:16:00.000Z</time></trkpt>
        <trkpt lat="29.672876" lon="104.719598"><ele>641.5658</ele><time>2026-04-10T21:16:04.000Z</time></trkpt>
        <trkpt lat="29.672851" lon="104.719539"><ele>641.6829</ele><time>2026-04-10T21:16:08.000Z</time></trkpt>
        <trkpt lat="29.672824" lon="104.719493"><ele>641.4293</ele><time>2026-04-10T21:16:12.000Z</time></trkpt>
        <trkpt lat="29.672785" lon="104.719447"><ele>641.25635</ele><time>2026-04-10T21:16:17.000Z</time></trkpt>
        <trkpt lat="29.672747" lon="104.719404"><ele>640.18097</ele><time>2026-04-10T21:16:21.000Z</time></trkpt>
        <trkpt lat="29.672699" lon="104.719357"><ele>640.245</ele><time>2026-04-10T21:16:25.000Z</time></trkpt>
        <trkpt lat="29.672671" lon="104.719316"><ele>641.1013</ele><time>2026-04-10T21:16:29.000Z</time></trkpt>
        <trkpt lat="29.672641" lon="104.719276"><ele>640.9681</ele><time>2026-04-10T21:16:32.000Z</time></trkpt>
        <trkpt lat="29.672604" lon="104.719242"><ele>641.0755</ele><time>2026-04-10T21:16:35.000Z</time></trkpt>
        <trkpt lat="29.672557" lon="104.719222"><ele>641.56866</ele><time>2026-04-10T21:16:38.000Z</time></trkpt>
        <trkpt lat="29.672514" lon="104.719203"><ele>642.31744</ele><time>2026-04-10T21:16:41.000Z</time></trkpt>
        <trkpt lat="29.672476" lon="104.719173"><ele>643.1938</ele><time>2026-04-10T21:16:44.000Z</time></trkpt>
        <trkpt lat="29.672426" lon="104.719151"><ele>642.68225</ele><time>2026-04-10T21:16:48.000Z</time></trkpt>
        <trkpt lat="29.672393" lon="104.719112"><ele>643.0008</ele><time>2026-04-10T21:16:52.000Z</time></trkpt>
        <trkpt lat="29.672363" lon="104.719069"><ele>642.19135</ele><time>2026-04-10T21:16:56.000Z</time></trkpt>
        <trkpt lat="29.672342" lon="104.719022"><ele>642.2634</ele><time>2026-04-10T21:17:01.000Z</time></trkpt>
        <trkpt lat="29.672346" lon="104.718961"><ele>641.6322</ele><time>2026-04-10T21:17:06.000Z</time></trkpt>
        <trkpt lat="29.672352" lon="104.718901"><ele>641.03656</ele><time>2026-04-10T21:17:10.000Z</time></trkpt>
        <trkpt lat="29.672356" lon="104.718838"><ele>640.5351</ele><time>2026-04-10T21:17:14.000Z</time></trkpt>
        <trkpt lat="29.672358" lon="104.718777"><ele>641.0576</ele><time>2026-04-10T21:17:18.000Z</time></trkpt>
        <trkpt lat="29.67235" lon="104.718721"><ele>642.4588</ele><time>2026-04-10T21:17:22.000Z</time></trkpt>
        <trkpt lat="29.672345" lon="104.718654"><ele>642.81134</ele><time>2026-04-10T21:17:26.000Z</time></trkpt>
        <trkpt lat="29.672335" lon="104.718596"><ele>643.8975</ele><time>2026-04-10T21:17:30.000Z</time></trkpt>
        <trkpt lat="29.672316" lon="104.718546"><ele>643.8719</ele><time>2026-04-10T21:17:33.000Z</time></trkpt>
        <trkpt lat="29.672286" lon="104.718503"><ele>644.9714</ele><time>2026-04-10T21:17:37.000Z</time></trkpt>
        <trkpt lat="29.672256" lon="104.718455"><ele>644.86017</ele><time>2026-04-10T21:17:41.000Z</time></trkpt>
        <trkpt lat="29.672226" lon="104.718411"><ele>645.2135</ele><time>2026-04-10T21:17:45.000Z</time></trkpt>
        <trkpt lat="29.672203" lon="104.718366"><ele>644.8417</ele><time>2026-04-10T21:17:48.000Z</time></trkpt>
        <trkpt lat="29.672166" lon="104.718332"><ele>645.89136</ele><time>2026-04-10T21:17:55.000Z</time></trkpt>
        <trkpt lat="29.672143" lon="104.718277"><ele>645.63153</ele><time>2026-04-10T21:18:00.000Z</time></trkpt>
        <trkpt lat="29.672104" lon="104.718243"><ele>646.00214</ele><time>2026-04-10T21:18:04.000Z</time></trkpt>
        <trkpt lat="29.672067" lon="104.718193"><ele>646.2019</ele><time>2026-04-10T21:18:08.000Z</time></trkpt>
        <trkpt lat="29.672033" lon="104.71815"><ele>645.2112</ele><time>2026-04-10T21:18:12.000Z</time></trkpt>
        <trkpt lat="29.671999" lon="104.718107"><ele>645.7098</ele><time>2026-04-10T21:18:16.000Z</time></trkpt>
        <trkpt lat="29.671945" lon="104.718084"><ele>644.6016</ele><time>2026-04-10T21:18:20.000Z</time></trkpt>
        <trkpt lat="29.671903" lon="104.718067"><ele>644.55225</ele><time>2026-04-10T21:18:23.000Z</time></trkpt>
        <trkpt lat="29.671845" lon="104.71806"><ele>644.1101</ele><time>2026-04-10T21:18:27.000Z</time></trkpt>
        <trkpt lat="29.671794" lon="104.71808"><ele>644.36975</ele><time>2026-04-10T21:18:38.000Z</time></trkpt>
        <trkpt lat="29.671742" lon="104.718077"><ele>644.2515</ele><time>2026-04-10T21:18:52.000Z</time></trkpt>
        <trkpt lat="29.671699" lon="104.718094"><ele>647.16144</ele><time>2026-04-10T21:19:14.000Z</time></trkpt>
        <trkpt lat="29.671651" lon="104.71808"><ele>645.5847</ele><time>2026-04-10T21:19:18.000Z</time></trkpt>
        <trkpt lat="29.671614" lon="104.718041"><ele>647.08435</ele><time>2026-04-10T21:19:21.000Z</time></trkpt>
        <trkpt lat="29.671561" lon="104.718039"><ele>646.2883</ele><time>2026-04-10T21:19:26.000Z</time></trkpt>
        <trkpt lat="29.671506" lon="104.718047"><ele>645.0581</ele><time>2026-04-10T21:19:31.000Z</time></trkpt>
        <trkpt lat="29.671456" lon="104.718048"><ele>646.8156</ele><time>2026-04-10T21:19:51.000Z</time></trkpt>
        <trkpt lat="29.67141" lon="104.718046"><ele>647.4687</ele><time>2026-04-10T21:19:54.000Z</time></trkpt>
        <trkpt lat="29.671362" lon="104.718042"><ele>644.1955</ele><time>2026-04-10T21:20:00.000Z</time></trkpt>
        <trkpt lat="29.671311" lon="104.718048"><ele>644.55005</ele><time>2026-04-10T21:20:04.000Z</time></trkpt>
        <trkpt lat="29.671266" lon="104.718047"><ele>644.50476</ele><time>2026-04-10T21:20:08.000Z</time></trkpt>
        <trkpt lat="29.671215" lon="104.718047"><ele>645.7156</ele><time>2026-04-10T21:20:11.000Z</time></trkpt>
        <trkpt lat="29.671171" lon="104.718017"><ele>645.2321</ele><time>2026-04-10T21:20:14.000Z</time></trkpt>
        <trkpt lat="29.671116" lon="104.718007"><ele>646.61096</ele><time>2026-04-10T21:20:19.000Z</time></trkpt>
        <trkpt lat="29.67106" lon="104.718008"><ele>647.8342</ele><time>2026-04-10T21:20:23.000Z</time></trkpt>
        <trkpt lat="29.671016" lon="104.717993"><ele>648.37006</ele><time>2026-04-10T21:20:27.000Z</time></trkpt>
        <trkpt lat="29.670965" lon="104.717969"><ele>647.4024</ele><time>2026-04-10T21:20:31.000Z</time></trkpt>
        <trkpt lat="29.670928" lon="104.71793"><ele>647.12164</ele><time>2026-04-10T21:20:35.000Z</time></trkpt>
        <trkpt lat="29.670882" lon="104.717896"><ele>647.8916</ele><time>2026-04-10T21:20:40.000Z</time></trkpt>
        <trkpt lat="29.670838" lon="104.717872"><ele>647.97186</ele><time>2026-04-10T21:20:44.000Z</time></trkpt>
        <trkpt lat="29.670798" lon="104.717837"><ele>647.37805</ele><time>2026-04-10T21:20:49.000Z</time></trkpt>
        <trkpt lat="29.670763" lon="104.717795"><ele>647.28424</ele><time>2026-04-10T21:20:53.000Z</time></trkpt>
        <trkpt lat="29.670726" lon="104.71775"><ele>647.3508</ele><time>2026-04-10T21:20:58.000Z</time></trkpt>
        <trkpt lat="29.670714" lon="104.71769"><ele>647.19006</ele><time>2026-04-10T21:21:03.000Z</time></trkpt>
        <trkpt lat="29.670679" lon="104.717649"><ele>646.94037</ele><time>2026-04-10T21:21:07.000Z</time></trkpt>
        <trkpt lat="29.670647" lon="104.717602"><ele>646.49963</ele><time>2026-04-10T21:21:11.000Z</time></trkpt>
        <trkpt lat="29.670609" lon="104.717551"><ele>647.5339</ele><time>2026-04-10T21:21:16.000Z</time></trkpt>
        <trkpt lat="29.670558" lon="104.71752"><ele>647.9124</ele><time>2026-04-10T21:21:20.000Z</time></trkpt>
        <trkpt lat="29.670511" lon="104.71752"><ele>648.06995</ele><time>2026-04-10T21:21:23.000Z</time></trkpt>
        <trkpt lat="29.670462" lon="104.71752"><ele>648.666</ele><time>2026-04-10T21:21:26.000Z</time></trkpt>
        <trkpt lat="29.670418" lon="104.717535"><ele>650.99677</ele><time>2026-04-10T21:21:50.000Z</time></trkpt>
        <trkpt lat="29.670372" lon="104.717567"><ele>650.1476</ele><time>2026-04-10T21:22:02.000Z</time></trkpt>
        <trkpt lat="29.67033" lon="104.717592"><ele>649.7169</ele><time>2026-04-10T21:22:06.000Z</time></trkpt>
        <trkpt lat="29.67029" lon="104.717622"><ele>649.11694</ele><time>2026-04-10T21:22:10.000Z</time></trkpt>
        <trkpt lat="29.670242" lon="104.717633"><ele>648.6739</ele><time>2026-04-10T21:22:14.000Z</time></trkpt>
        <trkpt lat="29.670198" lon="104.717647"><ele>648.9981</ele><time>2026-04-10T21:22:18.000Z</time></trkpt>
        <trkpt lat="29.670151" lon="104.717664"><ele>649.78485</ele><time>2026-04-10T21:22:23.000Z</time></trkpt>
        <trkpt lat="29.670116" lon="104.717698"><ele>650.59216</ele><time>2026-04-10T21:22:34.000Z</time></trkpt>
        <trkpt lat="29.670071" lon="104.717713"><ele>651.12476</ele><time>2026-04-10T21:22:40.000Z</time></trkpt>
        <trkpt lat="29.67008" lon="104.717771"><ele>650.07666</ele><time>2026-04-10T21:22:45.000Z</time></trkpt>
        <trkpt lat="29.670105" lon="104.717817"><ele>649.332</ele><time>2026-04-10T21:22:48.000Z</time></trkpt>
        <trkpt lat="29.670132" lon="104.717861"><ele>648.4394</ele><time>2026-04-10T21:22:53.000Z</time></trkpt>
        <trkpt lat="29.670174" lon="104.717897"><ele>647.983</ele><time>2026-04-10T21:22:58.000Z</time></trkpt>
        <trkpt lat="29.670197" lon="104.717946"><ele>645.628</ele><time>2026-04-10T21:23:04.000Z</time></trkpt>
        <trkpt lat="29.670223" lon="104.71799"><ele>644.3088</ele><time>2026-04-10T21:23:16.000Z</time></trkpt>
        <trkpt lat="29.670231" lon="104.718051"><ele>643.99725</ele><time>2026-04-10T21:23:22.000Z</time></trkpt>
        <trkpt lat="29.670225" lon="104.718105"><ele>643.40845</ele><time>2026-04-10T21:23:28.000Z</time></trkpt>
        <trkpt lat="29.670212" lon="104.718163"><ele>643.056</ele><time>2026-04-10T21:23:33.000Z</time></trkpt>
        <trkpt lat="29.670186" lon="104.71821"><ele>642.2601</ele><time>2026-04-10T21:23:38.000Z</time></trkpt>
        <trkpt lat="29.670142" lon="104.718233"><ele>641.5829</ele><time>2026-04-10T21:23:42.000Z</time></trkpt>
        <trkpt lat="29.670107" lon="104.718268"><ele>641.3197</ele><time>2026-04-10T21:23:46.000Z</time></trkpt>
        <trkpt lat="29.670074" lon="104.718309"><ele>642.1405</ele><time>2026-04-10T21:23:50.000Z</time></trkpt>
        <trkpt lat="29.670029" lon="104.718343"><ele>641.3981</ele><time>2026-04-10T21:23:54.000Z</time></trkpt>
        <trkpt lat="29.669989" lon="104.718384"><ele>641.2395</ele><time>2026-04-10T21:23:58.000Z</time></trkpt>
        <trkpt lat="29.669957" lon="104.718435"><ele>641.7383</ele><time>2026-04-10T21:24:02.000Z</time></trkpt>
        <trkpt lat="29.669953" lon="104.718492"><ele>641.5595</ele><time>2026-04-10T21:24:05.000Z</time></trkpt>
        <trkpt lat="29.669955" lon="104.718546"><ele>640.33026</ele><time>2026-04-10T21:24:08.000Z</time></trkpt>
        <trkpt lat="29.669961" lon="104.718606"><ele>639.41003</ele><time>2026-04-10T21:24:12.000Z</time></trkpt>
        <trkpt lat="29.669975" lon="104.71866"><ele>638.7376</ele><time>2026-04-10T21:24:16.000Z</time></trkpt>
        <trkpt lat="29.669982" lon="104.718717"><ele>639.4211</ele><time>2026-04-10T21:24:20.000Z</time></trkpt>
        <trkpt lat="29.669987" lon="104.718773"><ele>640.85175</ele><time>2026-04-10T21:24:25.000Z</time></trkpt>
        <trkpt lat="29.669993" lon="104.718828"><ele>641.62933</ele><time>2026-04-10T21:24:29.000Z</time></trkpt>
        <trkpt lat="29.67" lon="104.718883"><ele>641.83746</ele><time>2026-04-10T21:24:33.000Z</time></trkpt>
        <trkpt lat="29.670004" lon="104.718936"><ele>641.79803</ele><time>2026-04-10T21:24:37.000Z</time></trkpt>
        <trkpt lat="29.669998" lon="104.718991"><ele>641.3887</ele><time>2026-04-10T21:24:41.000Z</time></trkpt>
        <trkpt lat="29.669992" lon="104.719055"><ele>642.4068</ele><time>2026-04-10T21:24:45.000Z</time></trkpt>
        <trkpt lat="29.66999" lon="104.719118"><ele>642.6642</ele><time>2026-04-10T21:24:49.000Z</time></trkpt>
        <trkpt lat="29.669978" lon="104.719176"><ele>643.6449</ele><time>2026-04-10T21:24:53.000Z</time></trkpt>
        <trkpt lat="29.669978" lon="104.719243"><ele>642.9716</ele><time>2026-04-10T21:24:57.000Z</time></trkpt>
        <trkpt lat="29.669941" lon="104.719282"><ele>642.6341</ele><time>2026-04-10T21:25:02.000Z</time></trkpt>
        <trkpt lat="29.669909" lon="104.719321"><ele>642.96027</ele><time>2026-04-10T21:25:06.000Z</time></trkpt>
        <trkpt lat="29.669863" lon="104.719346"><ele>643.07947</ele><time>2026-04-10T21:25:11.000Z</time></trkpt>
        <trkpt lat="29.669819" lon="104.719374"><ele>642.47595</ele><time>2026-04-10T21:25:15.000Z</time></trkpt>
        <trkpt lat="29.669773" lon="104.719397"><ele>643.5995</ele><time>2026-04-10T21:25:21.000Z</time></trkpt>
        <trkpt lat="29.669743" lon="104.719442"><ele>643.6293</ele><time>2026-04-10T21:25:45.000Z</time></trkpt>
        <trkpt lat="29.669718" lon="104.719494"><ele>643.546</ele><time>2026-04-10T21:27:38.000Z</time></trkpt>
        <trkpt lat="29.669666" lon="104.719516"><ele>641.1059</ele><time>2026-04-10T21:27:44.000Z</time></trkpt>
        <trkpt lat="29.669618" lon="104.719546"><ele>641.1047</ele><time>2026-04-10T21:27:50.000Z</time></trkpt>
        <trkpt lat="29.669568" lon="104.719564"><ele>640.57825</ele><time>2026-04-10T21:27:56.000Z</time></trkpt>
        <trkpt lat="29.669527" lon="104.719603"><ele>641.6022</ele><time>2026-04-10T21:28:01.000Z</time></trkpt>
        <trkpt lat="29.669482" lon="104.719647"><ele>641.2831</ele><time>2026-04-10T21:28:07.000Z</time></trkpt>
        <trkpt lat="29.669426" lon="104.719661"><ele>640.9001</ele><time>2026-04-10T21:28:13.000Z</time></trkpt>
        <trkpt lat="29.669381" lon="104.719689"><ele>640.483</ele><time>2026-04-10T21:28:17.000Z</time></trkpt>
        <trkpt lat="29.669348" lon="104.719731"><ele>640.48846</ele><time>2026-04-10T21:28:21.000Z</time></trkpt>
        <trkpt lat="29.66932" lon="104.71979"><ele>640.1981</ele><time>2026-04-10T21:28:25.000Z</time></trkpt>
        <trkpt lat="29.669302" lon="104.719839"><ele>640.4153</ele><time>2026-04-10T21:28:29.000Z</time></trkpt>
        <trkpt lat="29.66929" lon="104.719893"><ele>640.91974</ele><time>2026-04-10T21:28:33.000Z</time></trkpt>
        <trkpt lat="29.669274" lon="104.719953"><ele>640.83</ele><time>2026-04-10T21:28:37.000Z</time></trkpt>
        <trkpt lat="29.669261" lon="104.720009"><ele>641.05225</ele><time>2026-04-10T21:28:41.000Z</time></trkpt>
        <trkpt lat="29.669232" lon="104.72005"><ele>640.92706</ele><time>2026-04-10T21:28:45.000Z</time></trkpt>
        <trkpt lat="29.669182" lon="104.720071"><ele>640.758</ele><time>2026-04-10T21:28:50.000Z</time></trkpt>
        <trkpt lat="29.669123" lon="104.720067"><ele>641.22076</ele><time>2026-04-10T21:28:55.000Z</time></trkpt>
        <trkpt lat="29.669076" lon="104.720054"><ele>640.5246</ele><time>2026-04-10T21:29:01.000Z</time></trkpt>
        <trkpt lat="29.669107" lon="104.720105"><ele>642.07916</ele><time>2026-04-10T21:29:18.000Z</time></trkpt>
        <trkpt lat="29.669142" lon="104.720149"><ele>642.57227</ele><time>2026-04-10T21:29:23.000Z</time></trkpt>
        <trkpt lat="29.669175" lon="104.720191"><ele>643.29224</ele><time>2026-04-10T21:29:28.000Z</time></trkpt>
        <trkpt lat="29.669212" lon="104.720227"><ele>643.78894</ele><time>2026-04-10T21:29:34.000Z</time></trkpt>
        <trkpt lat="29.669259" lon="104.720259"><ele>644.9329</ele><time>2026-04-10T21:29:39.000Z</time></trkpt>
        <trkpt lat="29.669305" lon="104.720299"><ele>645.59</ele><time>2026-04-10T21:29:43.000Z</time></trkpt>
        <trkpt lat="29.669345" lon="104.720336"><ele>646.53503</ele><time>2026-04-10T21:29:47.000Z</time></trkpt>
        <trkpt lat="29.669377" lon="104.720384"><ele>646.7889</ele><time>2026-04-10T21:29:51.000Z</time></trkpt>
        <trkpt lat="29.669417" lon="104.720427"><ele>647.3284</ele><time>2026-04-10T21:29:55.000Z</time></trkpt>
        <trkpt lat="29.669432" lon="104.720486"><ele>647.4704</ele><time>2026-04-10T21:30:01.000Z</time></trkpt>
        <trkpt lat="29.669463" lon="104.720542"><ele>648.4414</ele><time>2026-04-10T21:30:07.000Z</time></trkpt>
        <trkpt lat="29.669498" lon="104.720588"><ele>648.57465</ele><time>2026-04-10T21:30:11.000Z</time></trkpt>
        <trkpt lat="29.669507" lon="104.720645"><ele>646.3279</ele><time>2026-04-10T21:31:42.000Z</time></trkpt>
        <trkpt lat="29.669527" lon="104.720705"><ele>646.2324</ele><time>2026-04-10T21:31:49.000Z</time></trkpt>
        <trkpt lat="29.669508" lon="104.720754"><ele>645.63385</ele><time>2026-04-10T21:31:54.000Z</time></trkpt>
        <trkpt lat="29.669484" lon="104.72081"><ele>645.8156</ele><time>2026-04-10T21:32:05.000Z</time></trkpt>
        <trkpt lat="29.669461" lon="104.720862"><ele>645.00824</ele><time>2026-04-10T21:32:10.000Z</time></trkpt>
        <trkpt lat="29.669446" lon="104.720918"><ele>644.9938</ele><time>2026-04-10T21:32:18.000Z</time></trkpt>
        <trkpt lat="29.669396" lon="104.720943"><ele>645.5268</ele><time>2026-04-10T21:34:14.000Z</time></trkpt>
        <trkpt lat="29.669365" lon="104.720986"><ele>644.6688</ele><time>2026-04-10T21:34:19.000Z</time></trkpt>
        <trkpt lat="29.669341" lon="104.721031"><ele>644.6049</ele><time>2026-04-10T21:34:23.000Z</time></trkpt>
        <trkpt lat="29.669312" lon="104.721085"><ele>644.8213</ele><time>2026-04-10T21:34:28.000Z</time></trkpt>
        <trkpt lat="29.669286" lon="104.721143"><ele>644.1229</ele><time>2026-04-10T21:34:33.000Z</time></trkpt>
        <trkpt lat="29.66926" lon="104.721197"><ele>645.7322</ele><time>2026-04-10T21:34:38.000Z</time></trkpt>
        <trkpt lat="29.669243" lon="104.721251"><ele>645.21924</ele><time>2026-04-10T21:34:42.000Z</time></trkpt>
        <trkpt lat="29.669228" lon="104.721306"><ele>645.4212</ele><time>2026-04-10T21:34:46.000Z</time></trkpt>
        <trkpt lat="29.66922" lon="104.721367"><ele>645.77704</ele><time>2026-04-10T21:34:50.000Z</time></trkpt>
        <trkpt lat="29.669206" lon="104.721424"><ele>645.2145</ele><time>2026-04-10T21:34:54.000Z</time></trkpt>
        <trkpt lat="29.66918" lon="104.721475"><ele>644.8923</ele><time>2026-04-10T21:34:58.000Z</time></trkpt>
        <trkpt lat="29.669149" lon="104.721512"><ele>645.2</ele><time>2026-04-10T21:35:02.000Z</time></trkpt>
        <trkpt lat="29.66911" lon="104.721547"><ele>645.7895</ele><time>2026-04-10T21:35:06.000Z</time></trkpt>
        <trkpt lat="29.669067" lon="104.721563"><ele>643.4225</ele><time>2026-04-10T21:35:20.000Z</time></trkpt>
        <trkpt lat="29.669017" lon="104.721562"><ele>641.8842</ele><time>2026-04-10T21:35:32.000Z</time></trkpt>
        <trkpt lat="29.66897" lon="104.721531"><ele>640.2648</ele><time>2026-04-10T21:35:43.000Z</time></trkpt>
        <trkpt lat="29.668916" lon="104.721514"><ele>639.27423</ele><time>2026-04-10T21:35:57.000Z</time></trkpt>
        <trkpt lat="29.668871" lon="104.721504"><ele>638.0123</ele><time>2026-04-10T21:36:03.000Z</time></trkpt>
        <trkpt lat="29.668834" lon="104.721538"><ele>636.634</ele><time>2026-04-10T21:36:08.000Z</time></trkpt>
        <trkpt lat="29.668785" lon="104.721532"><ele>635.8576</ele><time>2026-04-10T21:36:12.000Z</time></trkpt>
        <trkpt lat="29.668737" lon="104.721544"><ele>634.6933</ele><time>2026-04-10T21:36:16.000Z</time></trkpt>
        <trkpt lat="29.668691" lon="104.721564"><ele>631.879</ele><time>2026-04-10T21:36:23.000Z</time></trkpt>
        <trkpt lat="29.668666" lon="104.721612"><ele>629.06384</ele><time>2026-04-10T21:36:30.000Z</time></trkpt>
        <trkpt lat="29.668613" lon="104.721605"><ele>628.3992</ele><time>2026-04-10T21:36:34.000Z</time></trkpt>
        <trkpt lat="29.668568" lon="104.721594"><ele>628.35376</ele><time>2026-04-10T21:36:37.000Z</time></trkpt>
        <trkpt lat="29.668518" lon="104.721583"><ele>627.4064</ele><time>2026-04-10T21:36:41.000Z</time></trkpt>
        <trkpt lat="29.668473" lon="104.721582"><ele>626.1166</ele><time>2026-04-10T21:36:46.000Z</time></trkpt>
        <trkpt lat="29.668434" lon="104.721617"><ele>624.60785</ele><time>2026-04-10T21:36:51.000Z</time></trkpt>
        <trkpt lat="29.66843" lon="104.721677"><ele>623.0287</ele><time>2026-04-10T21:36:56.000Z</time></trkpt>
        <trkpt lat="29.66848" lon="104.721697"><ele>622.2883</ele><time>2026-04-10T21:37:14.000Z</time></trkpt>
        <trkpt lat="29.668514" lon="104.721743"><ele>622.5845</ele><time>2026-04-10T21:37:19.000Z</time></trkpt>
        <trkpt lat="29.668469" lon="104.721712"><ele>622.42554</ele><time>2026-04-10T21:37:37.000Z</time></trkpt>
        <trkpt lat="29.668429" lon="104.721683"><ele>622.35675</ele><time>2026-04-10T21:37:41.000Z</time></trkpt>
        <trkpt lat="29.66838" lon="104.721692"><ele>621.69916</ele><time>2026-04-10T21:37:46.000Z</time></trkpt>
        <trkpt lat="29.668332" lon="104.721709"><ele>621.58936</ele><time>2026-04-10T21:37:50.000Z</time></trkpt>
        <trkpt lat="29.668307" lon="104.721753"><ele>618.46094</ele><time>2026-04-10T21:38:10.000Z</time></trkpt>
        <trkpt lat="29.668349" lon="104.721793"><ele>616.8338</ele><time>2026-04-10T21:38:16.000Z</time></trkpt>
        <trkpt lat="29.668384" lon="104.721837"><ele>617.60693</ele><time>2026-04-10T21:38:21.000Z</time></trkpt>
        <trkpt lat="29.668404" lon="104.721889"><ele>617.5662</ele><time>2026-04-10T21:38:25.000Z</time></trkpt>
        <trkpt lat="29.668422" lon="104.721937"><ele>617.4431</ele><time>2026-04-10T21:38:29.000Z</time></trkpt>
        <trkpt lat="29.668439" lon="104.721992"><ele>616.90454</ele><time>2026-04-10T21:38:33.000Z</time></trkpt>
        <trkpt lat="29.668448" lon="104.722049"><ele>617.47034</ele><time>2026-04-10T21:38:37.000Z</time></trkpt>
        <trkpt lat="29.668492" lon="104.722079"><ele>616.7589</ele><time>2026-04-10T21:38:41.000Z</time></trkpt>
        <trkpt lat="29.668527" lon="104.722124"><ele>617.3483</ele><time>2026-04-10T21:38:45.000Z</time></trkpt>
        <trkpt lat="29.668548" lon="104.722182"><ele>618.0466</ele><time>2026-04-10T21:38:49.000Z</time></trkpt>
        <trkpt lat="29.668528" lon="104.722232"><ele>618.1572</ele><time>2026-04-10T21:38:52.000Z</time></trkpt>
        <trkpt lat="29.668512" lon="104.722295"><ele>617.8576</ele><time>2026-04-10T21:38:57.000Z</time></trkpt>
        <trkpt lat="29.6685" lon="104.722354"><ele>618.9018</ele><time>2026-04-10T21:39:01.000Z</time></trkpt>
        <trkpt lat="29.668456" lon="104.722383"><ele>618.27655</ele><time>2026-04-10T21:39:05.000Z</time></trkpt>
        <trkpt lat="29.668415" lon="104.722409"><ele>619.70264</ele><time>2026-04-10T21:39:27.000Z</time></trkpt>
        <trkpt lat="29.668363" lon="104.722405"><ele>616.6283</ele><time>2026-04-10T21:40:09.000Z</time></trkpt>
        <trkpt lat="29.668318" lon="104.722409"><ele>615.7276</ele><time>2026-04-10T21:40:15.000Z</time></trkpt>
        <trkpt lat="29.668268" lon="104.722399"><ele>615.70184</ele><time>2026-04-10T21:40:21.000Z</time></trkpt>
        <trkpt lat="29.668221" lon="104.72239"><ele>617.29987</ele><time>2026-04-10T21:43:06.000Z</time></trkpt>
        <trkpt lat="29.668176" lon="104.7224"><ele>616.90186</ele><time>2026-04-10T21:43:11.000Z</time></trkpt>
        <trkpt lat="29.668133" lon="104.722382"><ele>619.2261</ele><time>2026-04-10T21:43:41.000Z</time></trkpt>
        <trkpt lat="29.668087" lon="104.722378"><ele>619.33563</ele><time>2026-04-10T21:43:59.000Z</time></trkpt>
        <trkpt lat="29.668042" lon="104.722385"><ele>618.6959</ele><time>2026-04-10T21:44:04.000Z</time></trkpt>
        <trkpt lat="29.667986" lon="104.722403"><ele>618.31036</ele><time>2026-04-10T21:44:08.000Z</time></trkpt>
        <trkpt lat="29.667941" lon="104.722421"><ele>618.5916</ele><time>2026-04-10T21:44:11.000Z</time></trkpt>
        <trkpt lat="29.667888" lon="104.722433"><ele>619.068</ele><time>2026-04-10T21:44:15.000Z</time></trkpt>
        <trkpt lat="29.667835" lon="104.722406"><ele>620.33264</ele><time>2026-04-10T21:44:19.000Z</time></trkpt>
        <trkpt lat="29.667774" lon="104.722396"><ele>622.2245</ele><time>2026-04-10T21:44:23.000Z</time></trkpt>
        <trkpt lat="29.667716" lon="104.722386"><ele>620.5136</ele><time>2026-04-10T21:44:27.000Z</time></trkpt>
        <trkpt lat="29.667666" lon="104.722368"><ele>619.0829</ele><time>2026-04-10T21:44:31.000Z</time></trkpt>
        <trkpt lat="29.667628" lon="104.722336"><ele>618.45764</ele><time>2026-04-10T21:44:34.000Z</time></trkpt>
        <trkpt lat="29.667581" lon="104.722317"><ele>618.23926</ele><time>2026-04-10T21:44:38.000Z</time></trkpt>
        <trkpt lat="29.667534" lon="104.722348"><ele>616.63727</ele><time>2026-04-10T21:44:44.000Z</time></trkpt>
        <trkpt lat="29.667494" lon="104.722374"><ele>618.684</ele><time>2026-04-10T21:45:31.000Z</time></trkpt>
        <trkpt lat="29.667457" lon="104.722406"><ele>619.2433</ele><time>2026-04-10T21:45:35.000Z</time></trkpt>
        <trkpt lat="29.667418" lon="104.722445"><ele>619.5121</ele><time>2026-04-10T21:45:39.000Z</time></trkpt>
        <trkpt lat="29.667384" lon="104.722489"><ele>618.18353</ele><time>2026-04-10T21:45:45.000Z</time></trkpt>
        <trkpt lat="29.667358" lon="104.722534"><ele>618.21704</ele><time>2026-04-10T21:45:50.000Z</time></trkpt>
        <trkpt lat="29.667366" lon="104.722592"><ele>618.5279</ele><time>2026-04-10T21:45:54.000Z</time></trkpt>
        <trkpt lat="29.667369" lon="104.722659"><ele>618.8614</ele><time>2026-04-10T21:45:58.000Z</time></trkpt>
        <trkpt lat="29.667366" lon="104.722715"><ele>619.8552</ele><time>2026-04-10T21:46:02.000Z</time></trkpt>
        <trkpt lat="29.667353" lon="104.722766"><ele>620.3616</ele><time>2026-04-10T21:46:05.000Z</time></trkpt>
        <trkpt lat="29.667332" lon="104.72283"><ele>619.535</ele><time>2026-04-10T21:46:08.000Z</time></trkpt>
        <trkpt lat="29.667287" lon="104.722871"><ele>619.5628</ele><time>2026-04-10T21:46:12.000Z</time></trkpt>
        <trkpt lat="29.667241" lon="104.722901"><ele>619.9841</ele><time>2026-04-10T21:46:16.000Z</time></trkpt>
        <trkpt lat="29.667269" lon="104.722946"><ele>620.7047</ele><time>2026-04-10T21:46:26.000Z</time></trkpt>
        <trkpt lat="29.667264" lon="104.723006"><ele>621.642</ele><time>2026-04-10T21:46:30.000Z</time></trkpt>
        <trkpt lat="29.667254" lon="104.723064"><ele>621.6412</ele><time>2026-04-10T21:46:34.000Z</time></trkpt>
        <trkpt lat="29.66725" lon="104.723119"><ele>621.532</ele><time>2026-04-10T21:46:38.000Z</time></trkpt>
        <trkpt lat="29.667247" lon="104.723181"><ele>622.0771</ele><time>2026-04-10T21:46:42.000Z</time></trkpt>
        <trkpt lat="29.667235" lon="104.723236"><ele>622.8045</ele><time>2026-04-10T21:46:46.000Z</time></trkpt>
        <trkpt lat="29.667273" lon="104.723266"><ele>622.9758</ele><time>2026-04-10T21:46:56.000Z</time></trkpt>
        <trkpt lat="29.66731" lon="104.723299"><ele>624.0284</ele><time>2026-04-10T21:47:00.000Z</time></trkpt>
        <trkpt lat="29.667346" lon="104.723347"><ele>624.2879</ele><time>2026-04-10T21:47:04.000Z</time></trkpt>
        <trkpt lat="29.667397" lon="104.723369"><ele>623.5865</ele><time>2026-04-10T21:47:09.000Z</time></trkpt>
        <trkpt lat="29.667447" lon="104.723377"><ele>623.4149</ele><time>2026-04-10T21:47:16.000Z</time></trkpt>
        <trkpt lat="29.667487" lon="104.723402"><ele>622.1505</ele><time>2026-04-10T21:47:20.000Z</time></trkpt>
        <trkpt lat="29.667532" lon="104.72343"><ele>620.96704</ele><time>2026-04-10T21:47:26.000Z</time></trkpt>
        <trkpt lat="29.667582" lon="104.723432"><ele>620.63745</ele><time>2026-04-10T21:47:32.000Z</time></trkpt>
        <trkpt lat="29.667632" lon="104.723428"><ele>622.0922</ele><time>2026-04-10T21:47:41.000Z</time></trkpt>
        <trkpt lat="29.66768" lon="104.723418"><ele>621.4499</ele><time>2026-04-10T21:47:49.000Z</time></trkpt>
        <trkpt lat="29.667729" lon="104.723414"><ele>623.911</ele><time>2026-04-10T21:48:02.000Z</time></trkpt>
        <trkpt lat="29.667774" lon="104.723423"><ele>622.93225</ele><time>2026-04-10T21:48:20.000Z</time></trkpt>
        <trkpt lat="29.667719" lon="104.723422"><ele>622.2988</ele><time>2026-04-10T21:48:27.000Z</time></trkpt>
        <trkpt lat="29.667663" lon="104.723427"><ele>621.47504</ele><time>2026-04-10T21:48:31.000Z</time></trkpt>
        <trkpt lat="29.667618" lon="104.723436"><ele>622.4939</ele><time>2026-04-10T21:48:34.000Z</time></trkpt>
        <trkpt lat="29.667557" lon="104.723446"><ele>622.3854</ele><time>2026-04-10T21:48:38.000Z</time></trkpt>
        <trkpt lat="29.667504" lon="104.723427"><ele>624.299</ele><time>2026-04-10T21:48:43.000Z</time></trkpt>
        <trkpt lat="29.667463" lon="104.723402"><ele>624.91046</ele><time>2026-04-10T21:48:47.000Z</time></trkpt>
        <trkpt lat="29.667488" lon="104.723357"><ele>624.84424</ele><time>2026-04-10T21:48:57.000Z</time></trkpt>
        <trkpt lat="29.66753" lon="104.723333"><ele>626.2863</ele><time>2026-04-10T21:49:02.000Z</time></trkpt>
        <trkpt lat="29.667577" lon="104.723304"><ele>627.16815</ele><time>2026-04-10T21:49:07.000Z</time></trkpt>
        <trkpt lat="29.66762" lon="104.723271"><ele>627.52515</ele><time>2026-04-10T21:49:11.000Z</time></trkpt>
        <trkpt lat="29.667646" lon="104.723228"><ele>628.4066</ele><time>2026-04-10T21:49:15.000Z</time></trkpt>
        <trkpt lat="29.667692" lon="104.723234"><ele>628.45135</ele><time>2026-04-10T21:49:20.000Z</time></trkpt>
        <trkpt lat="29.667737" lon="104.723207"><ele>628.8661</ele><time>2026-04-10T21:49:27.000Z</time></trkpt>
        <trkpt lat="29.667717" lon="104.723154"><ele>629.65967</ele><time>2026-04-10T21:49:32.000Z</time></trkpt>
        <trkpt lat="29.66772" lon="104.723098"><ele>631.4328</ele><time>2026-04-10T21:49:37.000Z</time></trkpt>
        <trkpt lat="29.667759" lon="104.723049"><ele>631.9722</ele><time>2026-04-10T21:49:42.000Z</time></trkpt>
        <trkpt lat="29.667781" lon="104.722994"><ele>633.0245</ele><time>2026-04-10T21:49:47.000Z</time></trkpt>
        <trkpt lat="29.667811" lon="104.722953"><ele>633.6267</ele><time>2026-04-10T21:49:52.000Z</time></trkpt>
        <trkpt lat="29.667839" lon="104.722994"><ele>632.73114</ele><time>2026-04-10T21:50:00.000Z</time></trkpt>
        <trkpt lat="29.667873" lon="104.72304"><ele>632.76105</ele><time>2026-04-10T21:50:05.000Z</time></trkpt>
        <trkpt lat="29.667918" lon="104.723072"><ele>633.42145</ele><time>2026-04-10T21:50:09.000Z</time></trkpt>
        <trkpt lat="29.667963" lon="104.723091"><ele>632.95215</ele><time>2026-04-10T21:50:13.000Z</time></trkpt>
        <trkpt lat="29.668005" lon="104.72312"><ele>631.9989</ele><time>2026-04-10T21:50:17.000Z</time></trkpt>
        <trkpt lat="29.668043" lon="104.723159"><ele>631.1578</ele><time>2026-04-10T21:50:22.000Z</time></trkpt>
        <trkpt lat="29.668085" lon="104.723199"><ele>629.89526</ele><time>2026-04-10T21:50:29.000Z</time></trkpt>
        <trkpt lat="29.668118" lon="104.723237"><ele>629.9083</ele><time>2026-04-10T21:50:34.000Z</time></trkpt>
        <trkpt lat="29.668159" lon="104.723276"><ele>629.6472</ele><time>2026-04-10T21:50:39.000Z</time></trkpt>
        <trkpt lat="29.668202" lon="104.723307"><ele>629.7496</ele><time>2026-04-10T21:50:43.000Z</time></trkpt>
        <trkpt lat="29.668243" lon="104.723338"><ele>629.87524</ele><time>2026-04-10T21:50:47.000Z</time></trkpt>
        <trkpt lat="29.668277" lon="104.723382"><ele>631.27545</ele><time>2026-04-10T21:50:51.000Z</time></trkpt>
        <trkpt lat="29.66823" lon="104.723371"><ele>630.9312</ele><time>2026-04-10T21:51:11.000Z</time></trkpt>
        <trkpt lat="29.668188" lon="104.723331"><ele>631.1892</ele><time>2026-04-10T21:51:15.000Z</time></trkpt>
        <trkpt lat="29.668158" lon="104.723292"><ele>631.1737</ele><time>2026-04-10T21:51:19.000Z</time></trkpt>
        <trkpt lat="29.668176" lon="104.72334"><ele>630.1077</ele><time>2026-04-10T21:51:39.000Z</time></trkpt>
        <trkpt lat="29.668214" lon="104.723375"><ele>630.54095</ele><time>2026-04-10T21:51:53.000Z</time></trkpt>
        <trkpt lat="29.668248" lon="104.723411"><ele>629.99713</ele><time>2026-04-10T21:52:11.000Z</time></trkpt>
        <trkpt lat="29.668282" lon="104.723447"><ele>629.7769</ele><time>2026-04-10T21:52:33.000Z</time></trkpt>
        <trkpt lat="29.668233" lon="104.723439"><ele>629.71735</ele><time>2026-04-10T21:52:54.000Z</time></trkpt>
        <trkpt lat="29.668208" lon="104.723394"><ele>629.4858</ele><time>2026-04-10T21:53:00.000Z</time></trkpt>
        <trkpt lat="29.668166" lon="104.723364"><ele>629.3288</ele><time>2026-04-10T21:53:07.000Z</time></trkpt>
        <trkpt lat="29.668137" lon="104.723322"><ele>629.3984</ele><time>2026-04-10T21:53:12.000Z</time></trkpt>
        <trkpt lat="29.66811" lon="104.723267"><ele>631.5264</ele><time>2026-04-10T21:53:23.000Z</time></trkpt>
        <trkpt lat="29.668079" lon="104.723226"><ele>631.8727</ele><time>2026-04-10T21:53:30.000Z</time></trkpt>
        <trkpt lat="29.668039" lon="104.723189"><ele>631.3417</ele><time>2026-04-10T21:53:34.000Z</time></trkpt>
        <trkpt lat="29.667994" lon="104.72316"><ele>631.1801</ele><time>2026-04-10T21:53:38.000Z</time></trkpt>
        <trkpt lat="29.667955" lon="104.723133"><ele>632.3263</ele><time>2026-04-10T21:53:42.000Z</time></trkpt>
        <trkpt lat="29.66792" lon="104.723096"><ele>633.39465</ele><time>2026-04-10T21:53:47.000Z</time></trkpt>
        <trkpt lat="29.667878" lon="104.723066"><ele>633.44745</ele><time>2026-04-10T21:53:52.000Z</time></trkpt>
        <trkpt lat="29.667846" lon="104.723024"><ele>633.6454</ele><time>2026-04-10T21:53:57.000Z</time></trkpt>
        <trkpt lat="29.667816" lon="104.722985"><ele>633.78656</ele><time>2026-04-10T21:54:01.000Z</time></trkpt>
        <trkpt lat="29.667794" lon="104.722936"><ele>633.8867</ele><time>2026-04-10T21:54:06.000Z</time></trkpt>
        <trkpt lat="29.6678" lon="104.722878"><ele>634.01227</ele><time>2026-04-10T21:54:10.000Z</time></trkpt>
        <trkpt lat="29.667821" lon="104.72283"><ele>633.22906</ele><time>2026-04-10T21:54:14.000Z</time></trkpt>
        <trkpt lat="29.667868" lon="104.72279"><ele>631.86456</ele><time>2026-04-10T21:54:19.000Z</time></trkpt>
        <trkpt lat="29.667914" lon="104.722769"><ele>632.57025</ele><time>2026-04-10T21:54:24.000Z</time></trkpt>
        <trkpt lat="29.667956" lon="104.722749"><ele>632.4431</ele><time>2026-04-10T21:54:28.000Z</time></trkpt>
        <trkpt lat="29.668005" lon="104.722728"><ele>631.85406</ele><time>2026-04-10T21:54:33.000Z</time></trkpt>
        <trkpt lat="29.66805" lon="104.72272"><ele>632.3506</ele><time>2026-04-10T21:54:37.000Z</time></trkpt>
        <trkpt lat="29.668103" lon="104.722728"><ele>633.2101</ele><time>2026-04-10T21:54:42.000Z</time></trkpt>
        <trkpt lat="29.668162" lon="104.722739"><ele>633.72174</ele><time>2026-04-10T21:54:47.000Z</time></trkpt>
        <trkpt lat="29.668208" lon="104.722739"><ele>633.5564</ele><time>2026-04-10T21:54:51.000Z</time></trkpt>
        <trkpt lat="29.668252" lon="104.722758"><ele>634.03503</ele><time>2026-04-10T21:54:56.000Z</time></trkpt>
        <trkpt lat="29.668307" lon="104.722763"><ele>634.0927</ele><time>2026-04-10T21:55:01.000Z</time></trkpt>
        <trkpt lat="29.668358" lon="104.722782"><ele>633.412</ele><time>2026-04-10T21:55:06.000Z</time></trkpt>
        <trkpt lat="29.668405" lon="104.722793"><ele>633.4668</ele><time>2026-04-10T21:55:10.000Z</time></trkpt>
        <trkpt lat="29.66846" lon="104.722802"><ele>633.7708</ele><time>2026-04-10T21:55:15.000Z</time></trkpt>
        <trkpt lat="29.668513" lon="104.722803"><ele>633.8313</ele><time>2026-04-10T21:55:20.000Z</time></trkpt>
        <trkpt lat="29.668561" lon="104.722799"><ele>633.7347</ele><time>2026-04-10T21:55:25.000Z</time></trkpt>
        <trkpt lat="29.668606" lon="104.722782"><ele>634.1266</ele><time>2026-04-10T21:55:29.000Z</time></trkpt>
        <trkpt lat="29.668649" lon="104.722758"><ele>634.4273</ele><time>2026-04-10T21:55:33.000Z</time></trkpt>
        <trkpt lat="29.668691" lon="104.722736"><ele>634.8056</ele><time>2026-04-10T21:55:37.000Z</time></trkpt>
        <trkpt lat="29.668727" lon="104.722701"><ele>635.7851</ele><time>2026-04-10T21:55:41.000Z</time></trkpt>
        <trkpt lat="29.668778" lon="104.722679"><ele>636.37476</ele><time>2026-04-10T21:55:46.000Z</time></trkpt>
        <trkpt lat="29.668821" lon="104.722659"><ele>636.5933</ele><time>2026-04-10T21:55:49.000Z</time></trkpt>
        <trkpt lat="29.668859" lon="104.722623"><ele>638.13025</ele><time>2026-04-10T21:55:54.000Z</time></trkpt>
        <trkpt lat="29.668903" lon="104.722589"><ele>638.8453</ele><time>2026-04-10T21:55:58.000Z</time></trkpt>
        <trkpt lat="29.668932" lon="104.722541"><ele>639.7809</ele><time>2026-04-10T21:56:04.000Z</time></trkpt>
        <trkpt lat="29.668937" lon="104.722484"><ele>640.2921</ele><time>2026-04-10T21:56:08.000Z</time></trkpt>
        <trkpt lat="29.668948" lon="104.722433"><ele>640.7532</ele><time>2026-04-10T21:56:13.000Z</time></trkpt>
        <trkpt lat="29.668936" lon="104.72238"><ele>640.9304</ele><time>2026-04-10T21:56:16.000Z</time></trkpt>
        <trkpt lat="29.668948" lon="104.72231"><ele>639.8397</ele><time>2026-04-10T21:56:22.000Z</time></trkpt>
        <trkpt lat="29.668958" lon="104.722253"><ele>640.0309</ele><time>2026-04-10T21:56:27.000Z</time></trkpt>
        <trkpt lat="29.66897" lon="104.722194"><ele>639.3753</ele><time>2026-04-10T21:56:31.000Z</time></trkpt>
        <trkpt lat="29.66899" lon="104.722138"><ele>639.5981</ele><time>2026-04-10T21:56:36.000Z</time></trkpt>
        <trkpt lat="29.669012" lon="104.722088"><ele>640.0769</ele><time>2026-04-10T21:56:40.000Z</time></trkpt>
        <trkpt lat="29.669032" lon="104.722022"><ele>640.9355</ele><time>2026-04-10T21:56:45.000Z</time></trkpt>
        <trkpt lat="29.669038" lon="104.721969"><ele>642.1313</ele><time>2026-04-10T21:56:49.000Z</time></trkpt>
        <trkpt lat="29.669041" lon="104.721904"><ele>642.5765</ele><time>2026-04-10T21:56:54.000Z</time></trkpt>
        <trkpt lat="29.669047" lon="104.721848"><ele>642.72876</ele><time>2026-04-10T21:56:58.000Z</time></trkpt>
        <trkpt lat="29.669053" lon="104.721794"><ele>642.6931</ele><time>2026-04-10T21:57:02.000Z</time></trkpt>
        <trkpt lat="29.669062" lon="104.721741"><ele>643.20776</ele><time>2026-04-10T21:57:06.000Z</time></trkpt>
        <trkpt lat="29.669061" lon="104.721679"><ele>643.6033</ele><time>2026-04-10T21:57:10.000Z</time></trkpt>
        <trkpt lat="29.669077" lon="104.721624"><ele>644.51764</ele><time>2026-04-10T21:57:14.000Z</time></trkpt>
        <trkpt lat="29.669104" lon="104.721572"><ele>643.6248</ele><time>2026-04-10T21:57:18.000Z</time></trkpt>
        <trkpt lat="29.669137" lon="104.721521"><ele>643.5768</ele><time>2026-04-10T21:57:22.000Z</time></trkpt>
        <trkpt lat="29.669182" lon="104.721488"><ele>643.75684</ele><time>2026-04-10T21:57:26.000Z</time></trkpt>
        <trkpt lat="29.669232" lon="104.721491"><ele>642.5094</ele><time>2026-04-10T21:57:30.000Z</time></trkpt>
        <trkpt lat="29.669271" lon="104.721529"><ele>642.1663</ele><time>2026-04-10T21:57:34.000Z</time></trkpt>
        <trkpt lat="29.669313" lon="104.721569"><ele>642.3168</ele><time>2026-04-10T21:57:38.000Z</time></trkpt>
        <trkpt lat="29.669365" lon="104.721588"><ele>642.362</ele><time>2026-04-10T21:57:42.000Z</time></trkpt>
        <trkpt lat="29.669413" lon="104.721606"><ele>642.2858</ele><time>2026-04-10T21:57:45.000Z</time></trkpt>
        <trkpt lat="29.669455" lon="104.721626"><ele>642.89136</ele><time>2026-04-10T21:57:49.000Z</time></trkpt>
        <trkpt lat="29.669475" lon="104.721675"><ele>642.8602</ele><time>2026-04-10T21:57:52.000Z</time></trkpt>
        <trkpt lat="29.669483" lon="104.721742"><ele>643.457</ele><time>2026-04-10T21:57:56.000Z</time></trkpt>
        <trkpt lat="29.669455" lon="104.72179"><ele>643.5795</ele><time>2026-04-10T21:58:00.000Z</time></trkpt>
        <trkpt lat="29.66943" lon="104.721834"><ele>645.07733</ele><time>2026-04-10T21:58:03.000Z</time></trkpt>
        <trkpt lat="29.6694" lon="104.721875"><ele>645.58813</ele><time>2026-04-10T21:58:06.000Z</time></trkpt>
        <trkpt lat="29.669361" lon="104.721922"><ele>646.39777</ele><time>2026-04-10T21:58:10.000Z</time></trkpt>
        <trkpt lat="29.669333" lon="104.72199"><ele>646.2219</ele><time>2026-04-10T21:58:16.000Z</time></trkpt>
        <trkpt lat="29.669306" lon="104.722037"><ele>646.01483</ele><time>2026-04-10T21:58:20.000Z</time></trkpt>
        <trkpt lat="29.669295" lon="104.722092"><ele>646.5791</ele><time>2026-04-10T21:58:24.000Z</time></trkpt>
        <trkpt lat="29.66931" lon="104.722144"><ele>647.04694</ele><time>2026-04-10T21:58:27.000Z</time></trkpt>
        <trkpt lat="29.669331" lon="104.722192"><ele>648.07294</ele><time>2026-04-10T21:58:31.000Z</time></trkpt>
        <trkpt lat="29.669363" lon="104.722238"><ele>650.2315</ele><time>2026-04-10T21:58:35.000Z</time></trkpt>
        <trkpt lat="29.669408" lon="104.722276"><ele>651.2567</ele><time>2026-04-10T21:58:39.000Z</time></trkpt>
        <trkpt lat="29.669459" lon="104.722301"><ele>651.3184</ele><time>2026-04-10T21:58:43.000Z</time></trkpt>
        <trkpt lat="29.669505" lon="104.722323"><ele>652.1384</ele><time>2026-04-10T21:58:48.000Z</time></trkpt>
        <trkpt lat="29.669547" lon="104.722347"><ele>649.9613</ele><time>2026-04-10T21:58:52.000Z</time></trkpt>
        <trkpt lat="29.669599" lon="104.722352"><ele>649.906</ele><time>2026-04-10T21:58:58.000Z</time></trkpt>
        <trkpt lat="29.669654" lon="104.722358"><ele>650.3994</ele><time>2026-04-10T21:59:02.000Z</time></trkpt>
        <trkpt lat="29.669699" lon="104.72238"><ele>649.3831</ele><time>2026-04-10T21:59:05.000Z</time></trkpt>
        <trkpt lat="29.669755" lon="104.722385"><ele>647.92755</ele><time>2026-04-10T21:59:10.000Z</time></trkpt>
        <trkpt lat="29.669811" lon="104.722406"><ele>647.0265</ele><time>2026-04-10T21:59:15.000Z</time></trkpt>
        <trkpt lat="29.669864" lon="104.722414"><ele>647.3339</ele><time>2026-04-10T21:59:19.000Z</time></trkpt>
        <trkpt lat="29.669904" lon="104.722452"><ele>647.0892</ele><time>2026-04-10T21:59:23.000Z</time></trkpt>
        <trkpt lat="29.669948" lon="104.722491"><ele>646.6009</ele><time>2026-04-10T21:59:28.000Z</time></trkpt>
        <trkpt lat="29.66996" lon="104.722551"><ele>647.17426</ele><time>2026-04-10T21:59:32.000Z</time></trkpt>
        <trkpt lat="29.669969" lon="104.722615"><ele>648.2153</ele><time>2026-04-10T21:59:36.000Z</time></trkpt>
        <trkpt lat="29.669959" lon="104.722674"><ele>647.65497</ele><time>2026-04-10T21:59:40.000Z</time></trkpt>
        <trkpt lat="29.669957" lon="104.722738"><ele>646.75214</ele><time>2026-04-10T21:59:45.000Z</time></trkpt>
        <trkpt lat="29.669954" lon="104.722795"><ele>646.31647</ele><time>2026-04-10T21:59:49.000Z</time></trkpt>
        <trkpt lat="29.669959" lon="104.72285"><ele>645.9395</ele><time>2026-04-10T21:59:53.000Z</time></trkpt>
        <trkpt lat="29.669965" lon="104.722908"><ele>643.9678</ele><time>2026-04-10T21:59:58.000Z</time></trkpt>
        <trkpt lat="29.669967" lon="104.722967"><ele>643.02313</ele><time>2026-04-10T22:00:02.000Z</time></trkpt>
        <trkpt lat="29.669941" lon="104.723034"><ele>641.79706</ele><time>2026-04-10T22:00:21.000Z</time></trkpt>
        <trkpt lat="29.669904" lon="104.723067"><ele>640.82904</ele><time>2026-04-10T22:00:25.000Z</time></trkpt>
        <trkpt lat="29.669851" lon="104.723083"><ele>641.0837</ele><time>2026-04-10T22:00:29.000Z</time></trkpt>
        <trkpt lat="29.669807" lon="104.723108"><ele>640.71436</ele><time>2026-04-10T22:00:33.000Z</time></trkpt>
        <trkpt lat="29.669751" lon="104.72312"><ele>640.7242</ele><time>2026-04-10T22:00:37.000Z</time></trkpt>
        <trkpt lat="29.669701" lon="104.723123"><ele>640.22156</ele><time>2026-04-10T22:00:41.000Z</time></trkpt>
        <trkpt lat="29.669653" lon="104.723112"><ele>639.6816</ele><time>2026-04-10T22:00:45.000Z</time></trkpt>
        <trkpt lat="29.6696" lon="104.723103"><ele>639.473</ele><time>2026-04-10T22:00:49.000Z</time></trkpt>
        <trkpt lat="29.66955" lon="104.723113"><ele>639.1617</ele><time>2026-04-10T22:00:53.000Z</time></trkpt>
        <trkpt lat="29.669501" lon="104.723105"><ele>637.9929</ele><time>2026-04-10T22:00:57.000Z</time></trkpt>
        <trkpt lat="29.669453" lon="104.723084"><ele>638.48883</ele><time>2026-04-10T22:01:01.000Z</time></trkpt>
        <trkpt lat="29.669411" lon="104.723056"><ele>638.19916</ele><time>2026-04-10T22:01:05.000Z</time></trkpt>
        <trkpt lat="29.669368" lon="104.72304"><ele>639.0669</ele><time>2026-04-10T22:01:09.000Z</time></trkpt>
        <trkpt lat="29.669321" lon="104.723017"><ele>639.4183</ele><time>2026-04-10T22:01:13.000Z</time></trkpt>
        <trkpt lat="29.669272" lon="104.723002"><ele>639.2774</ele><time>2026-04-10T22:01:17.000Z</time></trkpt>
        <trkpt lat="29.669219" lon="104.723"><ele>639.13837</ele><time>2026-04-10T22:01:21.000Z</time></trkpt>
        <trkpt lat="29.669168" lon="104.722996"><ele>638.70996</ele><time>2026-04-10T22:01:25.000Z</time></trkpt>
        <trkpt lat="29.669117" lon="104.723007"><ele>638.6312</ele><time>2026-04-10T22:01:29.000Z</time></trkpt>
        <trkpt lat="29.669068" lon="104.723018"><ele>637.8948</ele><time>2026-04-10T22:01:33.000Z</time></trkpt>
        <trkpt lat="29.669026" lon="104.723051"><ele>637.98456</ele><time>2026-04-10T22:01:37.000Z</time></trkpt>
        <trkpt lat="29.668994" lon="104.723101"><ele>638.27686</ele><time>2026-04-10T22:01:41.000Z</time></trkpt>
        <trkpt lat="29.668968" lon="104.723144"><ele>639.1229</ele><time>2026-04-10T22:01:44.000Z</time></trkpt>
        <trkpt lat="29.66893" lon="104.723174"><ele>639.0488</ele><time>2026-04-10T22:01:48.000Z</time></trkpt>
        <trkpt lat="29.668889" lon="104.723209"><ele>638.90643</ele><time>2026-04-10T22:01:52.000Z</time></trkpt>
        <trkpt lat="29.668842" lon="104.723242"><ele>638.4233</ele><time>2026-04-10T22:01:56.000Z</time></trkpt>
        <trkpt lat="29.668799" lon="104.723276"><ele>637.7723</ele><time>2026-04-10T22:02:00.000Z</time></trkpt>
        <trkpt lat="29.66876" lon="104.723312"><ele>637.324</ele><time>2026-04-10T22:02:04.000Z</time></trkpt>
        <trkpt lat="29.668731" lon="104.723354"><ele>636.288</ele><time>2026-04-10T22:02:08.000Z</time></trkpt>
        <trkpt lat="29.668704" lon="104.723397"><ele>635.0475</ele><time>2026-04-10T22:02:12.000Z</time></trkpt>
        <trkpt lat="29.668692" lon="104.72345"><ele>635.1675</ele><time>2026-04-10T22:02:16.000Z</time></trkpt>
        <trkpt lat="29.668688" lon="104.723509"><ele>634.31067</ele><time>2026-04-10T22:02:21.000Z</time></trkpt>
        <trkpt lat="29.668687" lon="104.723567"><ele>633.95447</ele><time>2026-04-10T22:02:26.000Z</time></trkpt>
        <trkpt lat="29.668666" lon="104.723621"><ele>633.8187</ele><time>2026-04-10T22:02:31.000Z</time></trkpt>
        <trkpt lat="29.668643" lon="104.723668"><ele>633.5592</ele><time>2026-04-10T22:02:35.000Z</time></trkpt>
        <trkpt lat="29.668619" lon="104.723715"><ele>633.6407</ele><time>2026-04-10T22:02:39.000Z</time></trkpt>
        <trkpt lat="29.668592" lon="104.723762"><ele>634.08527</ele><time>2026-04-10T22:02:43.000Z</time></trkpt>
        <trkpt lat="29.668572" lon="104.723813"><ele>633.1049</ele><time>2026-04-10T22:02:48.000Z</time></trkpt>
        <trkpt lat="29.668566" lon="104.723875"><ele>632.967</ele><time>2026-04-10T22:02:53.000Z</time></trkpt>
        <trkpt lat="29.668575" lon="104.723934"><ele>632.6945</ele><time>2026-04-10T22:02:58.000Z</time></trkpt>
        <trkpt lat="29.668588" lon="104.723993"><ele>631.0667</ele><time>2026-04-10T22:03:03.000Z</time></trkpt>
        <trkpt lat="29.668612" lon="104.724042"><ele>629.6658</ele><time>2026-04-10T22:03:08.000Z</time></trkpt>
        <trkpt lat="29.668647" lon="104.724091"><ele>628.6932</ele><time>2026-04-10T22:03:13.000Z</time></trkpt>
        <trkpt lat="29.668674" lon="104.724136"><ele>627.61914</ele><time>2026-04-10T22:03:17.000Z</time></trkpt>
        <trkpt lat="29.668699" lon="104.724189"><ele>626.97754</ele><time>2026-04-10T22:03:22.000Z</time></trkpt>
        <trkpt lat="29.668721" lon="104.724238"><ele>627.06494</ele><time>2026-04-10T22:03:34.000Z</time></trkpt>
        <trkpt lat="29.668756" lon="104.724287"><ele>626.3282</ele><time>2026-04-10T22:03:39.000Z</time></trkpt>
        <trkpt lat="29.668792" lon="104.724326"><ele>625.8329</ele><time>2026-04-10T22:03:43.000Z</time></trkpt>
        <trkpt lat="29.66882" lon="104.724378"><ele>625.51654</ele><time>2026-04-10T22:03:48.000Z</time></trkpt>
        <trkpt lat="29.66885" lon="104.724418"><ele>625.317</ele><time>2026-04-10T22:03:52.000Z</time></trkpt>
        <trkpt lat="29.668878" lon="104.724464"><ele>625.1198</ele><time>2026-04-10T22:03:56.000Z</time></trkpt>
        <trkpt lat="29.668899" lon="104.724514"><ele>624.4448</ele><time>2026-04-10T22:04:00.000Z</time></trkpt>
        <trkpt lat="29.668904" lon="104.724567"><ele>624.45844</ele><time>2026-04-10T22:04:04.000Z</time></trkpt>
        <trkpt lat="29.668891" lon="104.724622"><ele>624.4282</ele><time>2026-04-10T22:04:08.000Z</time></trkpt>
        <trkpt lat="29.668883" lon="104.724679"><ele>623.4105</ele><time>2026-04-10T22:04:13.000Z</time></trkpt>
        <trkpt lat="29.668932" lon="104.724696"><ele>624.2843</ele><time>2026-04-10T22:04:24.000Z</time></trkpt>
        <trkpt lat="29.668982" lon="104.724704"><ele>624.89465</ele><time>2026-04-10T22:04:31.000Z</time></trkpt>
        <trkpt lat="29.669033" lon="104.724727"><ele>624.43524</ele><time>2026-04-10T22:04:36.000Z</time></trkpt>
        <trkpt lat="29.669074" lon="104.724771"><ele>623.95807</ele><time>2026-04-10T22:04:41.000Z</time></trkpt>
        <trkpt lat="29.669109" lon="104.724817"><ele>624.16174</ele><time>2026-04-10T22:04:46.000Z</time></trkpt>
        <trkpt lat="29.669138" lon="104.724863"><ele>623.9681</ele><time>2026-04-10T22:04:51.000Z</time></trkpt>
        <trkpt lat="29.669167" lon="104.724914"><ele>624.9514</ele><time>2026-04-10T22:04:56.000Z</time></trkpt>
        <trkpt lat="29.669182" lon="104.724976"><ele>624.5288</ele><time>2026-04-10T22:05:01.000Z</time></trkpt>
        <trkpt lat="29.669207" lon="104.725034"><ele>624.2412</ele><time>2026-04-10T22:05:06.000Z</time></trkpt>
        <trkpt lat="29.669228" lon="104.725092"><ele>623.8961</ele><time>2026-04-10T22:05:11.000Z</time></trkpt>
        <trkpt lat="29.669248" lon="104.725147"><ele>624.20306</ele><time>2026-04-10T22:05:15.000Z</time></trkpt>
        <trkpt lat="29.669265" lon="104.725202"><ele>624.4407</ele><time>2026-04-10T22:05:20.000Z</time></trkpt>
        <trkpt lat="29.669272" lon="104.725269"><ele>623.49097</ele><time>2026-04-10T22:05:27.000Z</time></trkpt>
        <trkpt lat="29.669304" lon="104.725317"><ele>625.4561</ele><time>2026-04-10T22:06:00.000Z</time></trkpt>
        <trkpt lat="29.669323" lon="104.725368"><ele>626.95215</ele><time>2026-04-10T22:06:07.000Z</time></trkpt>
        <trkpt lat="29.669328" lon="104.725424"><ele>626.2351</ele><time>2026-04-10T22:07:33.000Z</time></trkpt>
        <trkpt lat="29.66933" lon="104.725481"><ele>627.3221</ele><time>2026-04-10T22:07:44.000Z</time></trkpt>
        <trkpt lat="29.669347" lon="104.72553"><ele>627.42566</ele><time>2026-04-10T22:08:07.000Z</time></trkpt>
        <trkpt lat="29.669344" lon="104.725585"><ele>628.6591</ele><time>2026-04-10T22:08:39.000Z</time></trkpt>
        <trkpt lat="29.66934" lon="104.725641"><ele>629.0401</ele><time>2026-04-10T22:08:47.000Z</time></trkpt>
        <trkpt lat="29.669343" lon="104.725694"><ele>631.7182</ele><time>2026-04-10T22:09:00.000Z</time></trkpt>
        <trkpt lat="29.669321" lon="104.725741"><ele>633.6378</ele><time>2026-04-10T22:09:10.000Z</time></trkpt>
        <trkpt lat="29.669291" lon="104.725782"><ele>634.3099</ele><time>2026-04-10T22:09:22.000Z</time></trkpt>
        <trkpt lat="29.669307" lon="104.725849"><ele>636.2224</ele><time>2026-04-10T22:09:35.000Z</time></trkpt>
        <trkpt lat="29.669318" lon="104.725902"><ele>640.5413</ele><time>2026-04-10T22:09:47.000Z</time></trkpt>
        <trkpt lat="29.669293" lon="104.72595"><ele>638.8103</ele><time>2026-04-10T22:10:41.000Z</time></trkpt>
        <trkpt lat="29.66929" lon="104.726002"><ele>639.554</ele><time>2026-04-10T22:10:53.000Z</time></trkpt>
        <trkpt lat="29.669251" lon="104.726027"><ele>644.0736</ele><time>2026-04-10T22:11:21.000Z</time></trkpt>
        <trkpt lat="29.669222" lon="104.726069"><ele>642.69434</ele><time>2026-04-10T22:11:27.000Z</time></trkpt>
        <trkpt lat="29.669194" lon="104.726114"><ele>643.73737</ele><time>2026-04-10T22:11:32.000Z</time></trkpt>
        <trkpt lat="29.66916" lon="104.726169"><ele>645.32306</ele><time>2026-04-10T22:11:37.000Z</time></trkpt>
        <trkpt lat="29.669138" lon="104.726226"><ele>647.1479</ele><time>2026-04-10T22:11:44.000Z</time></trkpt>
        <trkpt lat="29.669109" lon="104.726269"><ele>647.7041</ele><time>2026-04-10T22:11:48.000Z</time></trkpt>
        <trkpt lat="29.669103" lon="104.726322"><ele>647.3363</ele><time>2026-04-10T22:11:52.000Z</time></trkpt>
        <trkpt lat="29.669095" lon="104.726378"><ele>647.4684</ele><time>2026-04-10T22:11:56.000Z</time></trkpt>
        <trkpt lat="29.669089" lon="104.72643"><ele>648.93427</ele><time>2026-04-10T22:12:00.000Z</time></trkpt>
        <trkpt lat="29.669079" lon="104.72649"><ele>651.855</ele><time>2026-04-10T22:12:20.000Z</time></trkpt>
        <trkpt lat="29.669059" lon="104.72655"><ele>652.04736</ele><time>2026-04-10T22:12:25.000Z</time></trkpt>
        <trkpt lat="29.669065" lon="104.726602"><ele>652.02356</ele><time>2026-04-10T22:12:29.000Z</time></trkpt>
        <trkpt lat="29.669067" lon="104.726661"><ele>653.5836</ele><time>2026-04-10T22:12:33.000Z</time></trkpt>
        <trkpt lat="29.669064" lon="104.726718"><ele>654.57196</ele><time>2026-04-10T22:12:37.000Z</time></trkpt>
        <trkpt lat="29.669056" lon="104.726775"><ele>656.34753</ele><time>2026-04-10T22:12:42.000Z</time></trkpt>
        <trkpt lat="29.669061" lon="104.726828"><ele>659.9181</ele><time>2026-04-10T22:13:00.000Z</time></trkpt>
        <trkpt lat="29.669035" lon="104.726884"><ele>661.0205</ele><time>2026-04-10T22:13:19.000Z</time></trkpt>
        <trkpt lat="29.669013" lon="104.726936"><ele>661.1691</ele><time>2026-04-10T22:13:23.000Z</time></trkpt>
        <trkpt lat="29.668991" lon="104.726986"><ele>664.01373</ele><time>2026-04-10T22:14:38.000Z</time></trkpt>
        <trkpt lat="29.668992" lon="104.727039"><ele>664.6055</ele><time>2026-04-10T22:14:44.000Z</time></trkpt>
        <trkpt lat="29.668978" lon="104.727092"><ele>665.52496</ele><time>2026-04-10T22:14:48.000Z</time></trkpt>
        <trkpt lat="29.668975" lon="104.727149"><ele>667.0379</ele><time>2026-04-10T22:14:54.000Z</time></trkpt>
        <trkpt lat="29.668946" lon="104.727199"><ele>667.52814</ele><time>2026-04-10T22:15:00.000Z</time></trkpt>
        <trkpt lat="29.668907" lon="104.727232"><ele>667.17334</ele><time>2026-04-10T22:15:05.000Z</time></trkpt>
        <trkpt lat="29.668889" lon="104.727281"><ele>667.55334</ele><time>2026-04-10T22:15:16.000Z</time></trkpt>
        <trkpt lat="29.668861" lon="104.727322"><ele>667.7586</ele><time>2026-04-10T22:15:30.000Z</time></trkpt>
        <trkpt lat="29.668826" lon="104.727357"><ele>668.2216</ele><time>2026-04-10T22:19:19.000Z</time></trkpt>
        <trkpt lat="29.668789" lon="104.727392"><ele>666.23114</ele><time>2026-04-10T22:19:26.000Z</time></trkpt>
        <trkpt lat="29.668745" lon="104.727426"><ele>666.99274</ele><time>2026-04-10T22:19:31.000Z</time></trkpt>
        <trkpt lat="29.668697" lon="104.727447"><ele>666.23627</ele><time>2026-04-10T22:21:00.000Z</time></trkpt>
        <trkpt lat="29.668661" lon="104.727478"><ele>665.5479</ele><time>2026-04-10T22:21:31.000Z</time></trkpt>
        <trkpt lat="29.668624" lon="104.727517"><ele>664.7075</ele><time>2026-04-10T22:21:38.000Z</time></trkpt>
        <trkpt lat="29.668579" lon="104.727547"><ele>664.89703</ele><time>2026-04-10T22:21:44.000Z</time></trkpt>
        <trkpt lat="29.668534" lon="104.727585"><ele>665.6519</ele><time>2026-04-10T22:22:04.000Z</time></trkpt>
        <trkpt lat="29.668498" lon="104.727617"><ele>664.7438</ele><time>2026-04-10T22:22:09.000Z</time></trkpt>
        <trkpt lat="29.668477" lon="104.727666"><ele>662.8311</ele><time>2026-04-10T22:22:14.000Z</time></trkpt>
        <trkpt lat="29.668429" lon="104.727697"><ele>662.4807</ele><time>2026-04-10T22:22:20.000Z</time></trkpt>
        <trkpt lat="29.668416" lon="104.727748"><ele>662.09814</ele><time>2026-04-10T22:22:28.000Z</time></trkpt>
        <trkpt lat="29.668398" lon="104.727801"><ele>663.0134</ele><time>2026-04-10T22:22:35.000Z</time></trkpt>
        <trkpt lat="29.668389" lon="104.727854"><ele>664.0615</ele><time>2026-04-10T22:22:42.000Z</time></trkpt>
        <trkpt lat="29.668357" lon="104.727893"><ele>664.1385</ele><time>2026-04-10T22:22:48.000Z</time></trkpt>
        <trkpt lat="29.668313" lon="104.727918"><ele>664.17664</ele><time>2026-04-10T22:22:53.000Z</time></trkpt>
        <trkpt lat="29.668285" lon="104.727961"><ele>665.3726</ele><time>2026-04-10T22:22:58.000Z</time></trkpt>
        <trkpt lat="29.668246" lon="104.727993"><ele>666.47107</ele><time>2026-04-10T22:23:03.000Z</time></trkpt>
        <trkpt lat="29.668196" lon="104.728002"><ele>664.74725</ele><time>2026-04-10T22:24:38.000Z</time></trkpt>
        <trkpt lat="29.668167" lon="104.728048"><ele>663.80005</ele><time>2026-04-10T22:24:57.000Z</time></trkpt>
        <trkpt lat="29.668149" lon="104.728095"><ele>662.55096</ele><time>2026-04-10T22:25:08.000Z</time></trkpt>
        <trkpt lat="29.668163" lon="104.728154"><ele>661.8921</ele><time>2026-04-10T22:25:16.000Z</time></trkpt>
        <trkpt lat="29.668131" lon="104.728201"><ele>663.1912</ele><time>2026-04-10T22:25:25.000Z</time></trkpt>
        <trkpt lat="29.668066" lon="104.728216"><ele>664.4143</ele><time>2026-04-10T22:25:29.000Z</time></trkpt>
        <trkpt lat="29.668019" lon="104.728244"><ele>662.4735</ele><time>2026-04-10T22:25:34.000Z</time></trkpt>
        <trkpt lat="29.667965" lon="104.728287"><ele>662.8884</ele><time>2026-04-10T22:25:40.000Z</time></trkpt>
        <trkpt lat="29.667916" lon="104.728288"><ele>663.6197</ele><time>2026-04-10T22:25:44.000Z</time></trkpt>
        <trkpt lat="29.667863" lon="104.728306"><ele>665.1974</ele><time>2026-04-10T22:25:50.000Z</time></trkpt>
        <trkpt lat="29.667824" lon="104.728332"><ele>665.01013</ele><time>2026-04-10T22:25:55.000Z</time></trkpt>
        <trkpt lat="29.667793" lon="104.728375"><ele>665.1556</ele><time>2026-04-10T22:25:59.000Z</time></trkpt>
        <trkpt lat="29.66775" lon="104.728398"><ele>664.4599</ele><time>2026-04-10T22:26:04.000Z</time></trkpt>
        <trkpt lat="29.667799" lon="104.728356"><ele>664.7289</ele><time>2026-04-10T22:26:28.000Z</time></trkpt>
        <trkpt lat="29.667839" lon="104.728327"><ele>666.2533</ele><time>2026-04-10T22:26:32.000Z</time></trkpt>
        <trkpt lat="29.667879" lon="104.728304"><ele>665.7621</ele><time>2026-04-10T22:26:40.000Z</time></trkpt>
        <trkpt lat="29.667933" lon="104.728318"><ele>664.6997</ele><time>2026-04-10T22:26:47.000Z</time></trkpt>
        <trkpt lat="29.667978" lon="104.728313"><ele>664.4792</ele><time>2026-04-10T22:27:01.000Z</time></trkpt>
        <trkpt lat="29.668024" lon="104.728319"><ele>664.3811</ele><time>2026-04-10T22:27:08.000Z</time></trkpt>
        <trkpt lat="29.668078" lon="104.728321"><ele>663.82904</ele><time>2026-04-10T22:27:14.000Z</time></trkpt>
        <trkpt lat="29.668099" lon="104.728373"><ele>664.1591</ele><time>2026-04-10T22:27:18.000Z</time></trkpt>
        <trkpt lat="29.668058" lon="104.72841"><ele>664.527</ele><time>2026-04-10T22:27:22.000Z</time></trkpt>
        <trkpt lat="29.668002" lon="104.728433"><ele>664.85504</ele><time>2026-04-10T22:27:27.000Z</time></trkpt>
        <trkpt lat="29.667952" lon="104.728456"><ele>665.5699</ele><time>2026-04-10T22:27:32.000Z</time></trkpt>
        <trkpt lat="29.667905" lon="104.728486"><ele>664.4632</ele><time>2026-04-10T22:27:37.000Z</time></trkpt>
        <trkpt lat="29.667868" lon="104.728528"><ele>664.38055</ele><time>2026-04-10T22:27:41.000Z</time></trkpt>
        <trkpt lat="29.667829" lon="104.728566"><ele>664.5833</ele><time>2026-04-10T22:27:45.000Z</time></trkpt>
        <trkpt lat="29.667787" lon="104.728594"><ele>664.8346</ele><time>2026-04-10T22:27:49.000Z</time></trkpt>
        <trkpt lat="29.667739" lon="104.728613"><ele>665.349</ele><time>2026-04-10T22:27:53.000Z</time></trkpt>
        <trkpt lat="29.667694" lon="104.728628"><ele>665.35986</ele><time>2026-04-10T22:27:57.000Z</time></trkpt>
        <trkpt lat="29.667648" lon="104.728632"><ele>665.37317</ele><time>2026-04-10T22:28:01.000Z</time></trkpt>
        <trkpt lat="29.667592" lon="104.728633"><ele>664.4744</ele><time>2026-04-10T22:28:05.000Z</time></trkpt>
        <trkpt lat="29.667537" lon="104.728627"><ele>664.6792</ele><time>2026-04-10T22:28:10.000Z</time></trkpt>
        <trkpt lat="29.667487" lon="104.728618"><ele>664.0522</ele><time>2026-04-10T22:28:14.000Z</time></trkpt>
        <trkpt lat="29.66744" lon="104.728615"><ele>663.5958</ele><time>2026-04-10T22:28:19.000Z</time></trkpt>
        <trkpt lat="29.667383" lon="104.728615"><ele>663.85614</ele><time>2026-04-10T22:28:24.000Z</time></trkpt>
        <trkpt lat="29.667338" lon="104.728602"><ele>663.59686</ele><time>2026-04-10T22:28:28.000Z</time></trkpt>
        <trkpt lat="29.667292" lon="104.728616"><ele>662.3493</ele><time>2026-04-10T22:28:32.000Z</time></trkpt>
        <trkpt lat="29.667255" lon="104.72865"><ele>662.69324</ele><time>2026-04-10T22:28:36.000Z</time></trkpt>
        <trkpt lat="29.66721" lon="104.728678"><ele>662.245</ele><time>2026-04-10T22:28:40.000Z</time></trkpt>
        <trkpt lat="29.667166" lon="104.728702"><ele>660.8706</ele><time>2026-04-10T22:28:45.000Z</time></trkpt>
        <trkpt lat="29.667121" lon="104.728723"><ele>660.41235</ele><time>2026-04-10T22:28:49.000Z</time></trkpt>
        <trkpt lat="29.667075" lon="104.728752"><ele>658.31793</ele><time>2026-04-10T22:28:54.000Z</time></trkpt>
        <trkpt lat="29.667028" lon="104.728769"><ele>658.5235</ele><time>2026-04-10T22:28:58.000Z</time></trkpt>
        <trkpt lat="29.666978" lon="104.728764"><ele>657.84534</ele><time>2026-04-10T22:29:08.000Z</time></trkpt>
        <trkpt lat="29.66697" lon="104.728822"><ele>657.72754</ele><time>2026-04-10T22:29:19.000Z</time></trkpt>
        <trkpt lat="29.666937" lon="104.72887"><ele>658.01056</ele><time>2026-04-10T22:29:23.000Z</time></trkpt>
        <trkpt lat="29.666907" lon="104.72892"><ele>657.9406</ele><time>2026-04-10T22:29:30.000Z</time></trkpt>
        <trkpt lat="29.666879" lon="104.728972"><ele>657.8636</ele><time>2026-04-10T22:29:34.000Z</time></trkpt>
        <trkpt lat="29.666851" lon="104.729019"><ele>656.82715</ele><time>2026-04-10T22:29:38.000Z</time></trkpt>
        <trkpt lat="29.666805" lon="104.729045"><ele>655.44366</ele><time>2026-04-10T22:29:42.000Z</time></trkpt>
        <trkpt lat="29.666752" lon="104.729079"><ele>655.05914</ele><time>2026-04-10T22:29:47.000Z</time></trkpt>
        <trkpt lat="29.666729" lon="104.729127"><ele>654.29974</ele><time>2026-04-10T22:29:50.000Z</time></trkpt>
        <trkpt lat="29.666696" lon="104.72918"><ele>654.9134</ele><time>2026-04-10T22:29:54.000Z</time></trkpt>
        <trkpt lat="29.666672" lon="104.729224"><ele>654.5576</ele><time>2026-04-10T22:29:58.000Z</time></trkpt>
        <trkpt lat="29.666638" lon="104.729286"><ele>653.7307</ele><time>2026-04-10T22:30:02.000Z</time></trkpt>
        <trkpt lat="29.666608" lon="104.729325"><ele>652.5925</ele><time>2026-04-10T22:30:06.000Z</time></trkpt>
        <trkpt lat="29.666558" lon="104.729349"><ele>651.1249</ele><time>2026-04-10T22:30:11.000Z</time></trkpt>
        <trkpt lat="29.666541" lon="104.729405"><ele>649.70776</ele><time>2026-04-10T22:30:39.000Z</time></trkpt>
        <trkpt lat="29.666538" lon="104.729457"><ele>647.7587</ele><time>2026-04-10T22:30:43.000Z</time></trkpt>
        <trkpt lat="29.66656" lon="104.729512"><ele>645.2157</ele><time>2026-04-10T22:30:48.000Z</time></trkpt>
        <trkpt lat="29.666603" lon="104.729542"><ele>644.28564</ele><time>2026-04-10T22:30:53.000Z</time></trkpt>
        <trkpt lat="29.66664" lon="104.729576"><ele>642.9367</ele><time>2026-04-10T22:31:00.000Z</time></trkpt>
        <trkpt lat="29.666652" lon="104.729628"><ele>642.1647</ele><time>2026-04-10T22:31:06.000Z</time></trkpt>
        <trkpt lat="29.666672" lon="104.729678"><ele>640.06714</ele><time>2026-04-10T22:32:03.000Z</time></trkpt>
        <trkpt lat="29.666665" lon="104.729731"><ele>638.31055</ele><time>2026-04-10T22:32:09.000Z</time></trkpt>
        <trkpt lat="29.666651" lon="104.729781"><ele>637.2465</ele><time>2026-04-10T22:32:17.000Z</time></trkpt>
        <trkpt lat="29.666655" lon="104.729837"><ele>635.2095</ele><time>2026-04-10T22:32:23.000Z</time></trkpt>
        <trkpt lat="29.666669" lon="104.729889"><ele>633.52264</ele><time>2026-04-10T22:32:27.000Z</time></trkpt>
        <trkpt lat="29.666661" lon="104.729946"><ele>631.5963</ele><time>2026-04-10T22:32:31.000Z</time></trkpt>
        <trkpt lat="29.666663" lon="104.730011"><ele>627.2957</ele><time>2026-04-10T22:32:36.000Z</time></trkpt>
        <trkpt lat="29.666673" lon="104.730065"><ele>624.361</ele><time>2026-04-10T22:32:40.000Z</time></trkpt>
        <trkpt lat="29.666694" lon="104.730114"><ele>622.7315</ele><time>2026-04-10T22:32:44.000Z</time></trkpt>
        <trkpt lat="29.666709" lon="104.730165"><ele>620.0935</ele><time>2026-04-10T22:32:48.000Z</time></trkpt>
        <trkpt lat="29.666701" lon="104.730224"><ele>617.546</ele><time>2026-04-10T22:32:53.000Z</time></trkpt>
        <trkpt lat="29.66673" lon="104.730268"><ele>615.2544</ele><time>2026-04-10T22:32:58.000Z</time></trkpt>
        <trkpt lat="29.666748" lon="104.730317"><ele>613.7332</ele><time>2026-04-10T22:33:02.000Z</time></trkpt>
        <trkpt lat="29.666755" lon="104.73037"><ele>611.9469</ele><time>2026-04-10T22:33:06.000Z</time></trkpt>
        <trkpt lat="29.66677" lon="104.730427"><ele>610.5454</ele><time>2026-04-10T22:33:10.000Z</time></trkpt>
        <trkpt lat="29.666815" lon="104.730463"><ele>608.293</ele><time>2026-04-10T22:33:19.000Z</time></trkpt>
        <trkpt lat="29.666838" lon="104.730515"><ele>606.9068</ele><time>2026-04-10T22:33:23.000Z</time></trkpt>
        <trkpt lat="29.666865" lon="104.730565"><ele>605.69745</ele><time>2026-04-10T22:33:27.000Z</time></trkpt>
        <trkpt lat="29.666894" lon="104.730604"><ele>603.5068</ele><time>2026-04-10T22:33:31.000Z</time></trkpt>
        <trkpt lat="29.66692" lon="104.730651"><ele>601.46136</ele><time>2026-04-10T22:33:35.000Z</time></trkpt>
        <trkpt lat="29.66695" lon="104.730702"><ele>602.433</ele><time>2026-04-10T22:33:39.000Z</time></trkpt>
        <trkpt lat="29.666959" lon="104.730756"><ele>601.6983</ele><time>2026-04-10T22:33:43.000Z</time></trkpt>
        <trkpt lat="29.666967" lon="104.730816"><ele>601.54175</ele><time>2026-04-10T22:33:47.000Z</time></trkpt>
        <trkpt lat="29.666971" lon="104.730875"><ele>601.50104</ele><time>2026-04-10T22:33:51.000Z</time></trkpt>
        <trkpt lat="29.666971" lon="104.730932"><ele>602.02106</ele><time>2026-04-10T22:33:58.000Z</time></trkpt>
        <trkpt lat="29.667003" lon="104.730981"><ele>601.0693</ele><time>2026-04-10T22:34:02.000Z</time></trkpt>
        <trkpt lat="29.666996" lon="104.731034"><ele>601.2253</ele><time>2026-04-10T22:34:05.000Z</time></trkpt>
        <trkpt lat="29.666986" lon="104.73109"><ele>600.30505</ele><time>2026-04-10T22:34:09.000Z</time></trkpt>
        <trkpt lat="29.666996" lon="104.731144"><ele>599.81213</ele><time>2026-04-10T22:34:13.000Z</time></trkpt>
        <trkpt lat="29.66697" lon="104.731201"><ele>599.0917</ele><time>2026-04-10T22:34:19.000Z</time></trkpt>
        <trkpt lat="29.666953" lon="104.731256"><ele>598.0396</ele><time>2026-04-10T22:34:23.000Z</time></trkpt>
        <trkpt lat="29.666929" lon="104.731303"><ele>597.68506</ele><time>2026-04-10T22:34:27.000Z</time></trkpt>
        <trkpt lat="29.666912" lon="104.731364"><ele>596.3187</ele><time>2026-04-10T22:34:31.000Z</time></trkpt>
        <trkpt lat="29.666899" lon="104.731425"><ele>595.50104</ele><time>2026-04-10T22:34:35.000Z</time></trkpt>
        <trkpt lat="29.666876" lon="104.731483"><ele>595.1012</ele><time>2026-04-10T22:34:39.000Z</time></trkpt>
        <trkpt lat="29.666837" lon="104.731532"><ele>594.8145</ele><time>2026-04-10T22:34:43.000Z</time></trkpt>
        <trkpt lat="29.666798" lon="104.731573"><ele>594.56555</ele><time>2026-04-10T22:34:47.000Z</time></trkpt>
        <trkpt lat="29.666755" lon="104.731609"><ele>594.3852</ele><time>2026-04-10T22:34:51.000Z</time></trkpt>
        <trkpt lat="29.666728" lon="104.731656"><ele>594.62335</ele><time>2026-04-10T22:35:23.000Z</time></trkpt>
        <trkpt lat="29.666695" lon="104.7317"><ele>594.3833</ele><time>2026-04-10T22:35:26.000Z</time></trkpt>
        <trkpt lat="29.666658" lon="104.73175"><ele>594.2573</ele><time>2026-04-10T22:35:30.000Z</time></trkpt>
        <trkpt lat="29.666632" lon="104.731797"><ele>593.3918</ele><time>2026-04-10T22:35:33.000Z</time></trkpt>
        <trkpt lat="29.666607" lon="104.731856"><ele>593.2448</ele><time>2026-04-10T22:35:37.000Z</time></trkpt>
        <trkpt lat="29.666581" lon="104.731907"><ele>592.23816</ele><time>2026-04-10T22:35:41.000Z</time></trkpt>
        <trkpt lat="29.66655" lon="104.731955"><ele>591.6078</ele><time>2026-04-10T22:35:45.000Z</time></trkpt>
        <trkpt lat="29.666523" lon="104.732001"><ele>590.8505</ele><time>2026-04-10T22:35:49.000Z</time></trkpt>
        <trkpt lat="29.666476" lon="104.73205"><ele>589.6835</ele><time>2026-04-10T22:35:53.000Z</time></trkpt>
        <trkpt lat="29.666432" lon="104.732092"><ele>588.7746</ele><time>2026-04-10T22:35:58.000Z</time></trkpt>
        <trkpt lat="29.666397" lon="104.732137"><ele>588.1611</ele><time>2026-04-10T22:36:01.000Z</time></trkpt>
        <trkpt lat="29.666367" lon="104.732184"><ele>587.2341</ele><time>2026-04-10T22:36:05.000Z</time></trkpt>
        <trkpt lat="29.666348" lon="104.732242"><ele>585.3842</ele><time>2026-04-10T22:36:09.000Z</time></trkpt>
        <trkpt lat="29.666326" lon="104.732296"><ele>585.10016</ele><time>2026-04-10T22:36:12.000Z</time></trkpt>
        <trkpt lat="29.666306" lon="104.732343"><ele>585.15967</ele><time>2026-04-10T22:36:15.000Z</time></trkpt>
        <trkpt lat="29.666293" lon="104.732402"><ele>583.9363</ele><time>2026-04-10T22:36:19.000Z</time></trkpt>
        <trkpt lat="29.666289" lon="104.732456"><ele>583.5265</ele><time>2026-04-10T22:36:22.000Z</time></trkpt>
        <trkpt lat="29.666286" lon="104.732507"><ele>582.3393</ele><time>2026-04-10T22:36:26.000Z</time></trkpt>
        <trkpt lat="29.666283" lon="104.732573"><ele>582.9184</ele><time>2026-04-10T22:36:30.000Z</time></trkpt>
        <trkpt lat="29.66629" lon="104.732636"><ele>582.8499</ele><time>2026-04-10T22:36:34.000Z</time></trkpt>
        <trkpt lat="29.666302" lon="104.732692"><ele>583.244</ele><time>2026-04-10T22:36:39.000Z</time></trkpt>
        <trkpt lat="29.666322" lon="104.73274"><ele>582.167</ele><time>2026-04-10T22:36:44.000Z</time></trkpt>
        <trkpt lat="29.666337" lon="104.732792"><ele>581.6753</ele><time>2026-04-10T22:36:49.000Z</time></trkpt>
        <trkpt lat="29.66636" lon="104.732849"><ele>580.565</ele><time>2026-04-10T22:36:57.000Z</time></trkpt>
        <trkpt lat="29.66638" lon="104.732899"><ele>580.4695</ele><time>2026-04-10T22:37:06.000Z</time></trkpt>
        <trkpt lat="29.666398" lon="104.732961"><ele>580.2639</ele><time>2026-04-10T22:37:10.000Z</time></trkpt>
        <trkpt lat="29.666419" lon="104.733011"><ele>580.4963</ele><time>2026-04-10T22:37:14.000Z</time></trkpt>
        <trkpt lat="29.666441" lon="104.733071"><ele>581.11273</ele><time>2026-04-10T22:37:47.000Z</time></trkpt>
        <trkpt lat="29.666467" lon="104.73312"><ele>582.3977</ele><time>2026-04-10T22:37:50.000Z</time></trkpt>
        <trkpt lat="29.666476" lon="104.733176"><ele>583.97845</ele><time>2026-04-10T22:37:55.000Z</time></trkpt>
        <trkpt lat="29.666495" lon="104.733233"><ele>584.789</ele><time>2026-04-10T22:37:58.000Z</time></trkpt>
        <trkpt lat="29.666526" lon="104.733283"><ele>587.2806</ele><time>2026-04-10T22:38:03.000Z</time></trkpt>
        <trkpt lat="29.666553" lon="104.73333"><ele>586.7986</ele><time>2026-04-10T22:38:07.000Z</time></trkpt>
        <trkpt lat="29.666587" lon="104.73337"><ele>587.5483</ele><time>2026-04-10T22:38:11.000Z</time></trkpt>
        <trkpt lat="29.666626" lon="104.7334"><ele>587.54285</ele><time>2026-04-10T22:38:35.000Z</time></trkpt>
        <trkpt lat="29.66668" lon="104.733403"><ele>589.6973</ele><time>2026-04-10T22:38:41.000Z</time></trkpt>
        <trkpt lat="29.666733" lon="104.73341"><ele>590.01624</ele><time>2026-04-10T22:38:46.000Z</time></trkpt>
        <trkpt lat="29.666778" lon="104.733402"><ele>590.07056</ele><time>2026-04-10T22:38:50.000Z</time></trkpt>
        <trkpt lat="29.666825" lon="104.733424"><ele>590.5497</ele><time>2026-04-10T22:38:54.000Z</time></trkpt>
      </trkseg>
      <trkseg>
        <trkpt lat="29.667015" lon="104.733501"><ele>589.0753</ele><time>2026-04-10T22:39:12.000Z</time></trkpt>
        <trkpt lat="29.667062" lon="104.733516"><ele>589.0083</ele><time>2026-04-10T22:39:16.000Z</time></trkpt>
        <trkpt lat="29.667105" lon="104.733533"><ele>589.43176</ele><time>2026-04-10T22:39:20.000Z</time></trkpt>
        <trkpt lat="29.667161" lon="104.733542"><ele>590.33905</ele><time>2026-04-10T22:39:24.000Z</time></trkpt>
        <trkpt lat="29.667212" lon="104.733553"><ele>590.56464</ele><time>2026-04-10T22:39:28.000Z</time></trkpt>
        <trkpt lat="29.667266" lon="104.73356"><ele>591.06744</ele><time>2026-04-10T22:39:32.000Z</time></trkpt>
        <trkpt lat="29.667318" lon="104.733561"><ele>591.3719</ele><time>2026-04-10T22:39:36.000Z</time></trkpt>
        <trkpt lat="29.66737" lon="104.733551"><ele>592.3085</ele><time>2026-04-10T22:39:40.000Z</time></trkpt>
        <trkpt lat="29.667421" lon="104.733541"><ele>592.5407</ele><time>2026-04-10T22:39:44.000Z</time></trkpt>
        <trkpt lat="29.667469" lon="104.733527"><ele>594.39374</ele><time>2026-04-10T22:39:48.000Z</time></trkpt>
        <trkpt lat="29.66752" lon="104.73351"><ele>595.0829</ele><time>2026-04-10T22:39:53.000Z</time></trkpt>
        <trkpt lat="29.667567" lon="104.733504"><ele>594.86273</ele><time>2026-04-10T22:39:58.000Z</time></trkpt>
        <trkpt lat="29.667613" lon="104.733484"><ele>596.4877</ele><time>2026-04-10T22:40:02.000Z</time></trkpt>
        <trkpt lat="29.667661" lon="104.73346"><ele>597.6744</ele><time>2026-04-10T22:40:07.000Z</time></trkpt>
        <trkpt lat="29.667701" lon="104.733432"><ele>598.69446</ele><time>2026-04-10T22:40:11.000Z</time></trkpt>
        <trkpt lat="29.667742" lon="104.733405"><ele>598.9949</ele><time>2026-04-10T22:40:15.000Z</time></trkpt>
        <trkpt lat="29.66778" lon="104.733358"><ele>600.2773</ele><time>2026-04-10T22:40:21.000Z</time></trkpt>
        <trkpt lat="29.66779" lon="104.733298"><ele>602.1249</ele><time>2026-04-10T22:40:26.000Z</time></trkpt>
        <trkpt lat="29.66782" lon="104.733244"><ele>603.07587</ele><time>2026-04-10T22:40:31.000Z</time></trkpt>
        <trkpt lat="29.667862" lon="104.733207"><ele>603.7706</ele><time>2026-04-10T22:40:36.000Z</time></trkpt>
        <trkpt lat="29.667906" lon="104.733167"><ele>603.61786</ele><time>2026-04-10T22:40:41.000Z</time></trkpt>
        <trkpt lat="29.667954" lon="104.73315"><ele>603.1117</ele><time>2026-04-10T22:40:45.000Z</time></trkpt>
        <trkpt lat="29.668002" lon="104.733143"><ele>603.96533</ele><time>2026-04-10T22:40:56.000Z</time></trkpt>
        <trkpt lat="29.668054" lon="104.733141"><ele>604.2072</ele><time>2026-04-10T22:41:00.000Z</time></trkpt>
        <trkpt lat="29.668107" lon="104.73314"><ele>605.3806</ele><time>2026-04-10T22:41:05.000Z</time></trkpt>
        <trkpt lat="29.668158" lon="104.73314"><ele>605.4072</ele><time>2026-04-10T22:41:09.000Z</time></trkpt>
        <trkpt lat="29.668208" lon="104.73314"><ele>605.07587</ele><time>2026-04-10T22:41:13.000Z</time></trkpt>
        <trkpt lat="29.66822" lon="104.733089"><ele>606.2982</ele><time>2026-04-10T22:41:24.000Z</time></trkpt>
        <trkpt lat="29.668267" lon="104.733117"><ele>606.4484</ele><time>2026-04-10T22:41:59.000Z</time></trkpt>
        <trkpt lat="29.668322" lon="104.733118"><ele>607.1012</ele><time>2026-04-10T22:42:04.000Z</time></trkpt>
        <trkpt lat="29.668371" lon="104.733113"><ele>607.3443</ele><time>2026-04-10T22:42:09.000Z</time></trkpt>
        <trkpt lat="29.668425" lon="104.733126"><ele>608.9762</ele><time>2026-04-10T22:42:14.000Z</time></trkpt>
        <trkpt lat="29.668469" lon="104.733143"><ele>610.0803</ele><time>2026-04-10T22:42:20.000Z</time></trkpt>
        <trkpt lat="29.66852" lon="104.733153"><ele>609.6416</ele><time>2026-04-10T22:42:39.000Z</time></trkpt>
        <trkpt lat="29.668565" lon="104.733177"><ele>611.2656</ele><time>2026-04-10T22:43:04.000Z</time></trkpt>
        <trkpt lat="29.668596" lon="104.733215"><ele>612.6614</ele><time>2026-04-10T22:43:20.000Z</time></trkpt>
        <trkpt lat="29.668632" lon="104.73326"><ele>613.03143</ele><time>2026-04-10T22:43:27.000Z</time></trkpt>
        <trkpt lat="29.668642" lon="104.73331"><ele>613.00354</ele><time>2026-04-10T22:43:32.000Z</time></trkpt>
        <trkpt lat="29.668673" lon="104.733354"><ele>613.2497</ele><time>2026-04-10T22:43:36.000Z</time></trkpt>
        <trkpt lat="29.668701" lon="104.733407"><ele>611.9265</ele><time>2026-04-10T22:43:46.000Z</time></trkpt>
        <trkpt lat="29.668706" lon="104.733463"><ele>611.57745</ele><time>2026-04-10T22:43:50.000Z</time></trkpt>
        <trkpt lat="29.668708" lon="104.733516"><ele>611.8022</ele><time>2026-04-10T22:43:53.000Z</time></trkpt>
        <trkpt lat="29.668702" lon="104.73358"><ele>611.7975</ele><time>2026-04-10T22:43:57.000Z</time></trkpt>
        <trkpt lat="29.668749" lon="104.733607"><ele>609.9668</ele><time>2026-04-10T22:44:06.000Z</time></trkpt>
        <trkpt lat="29.668793" lon="104.7336"><ele>609.9054</ele><time>2026-04-10T22:44:10.000Z</time></trkpt>
        <trkpt lat="29.668832" lon="104.73357"><ele>610.3269</ele><time>2026-04-10T22:44:14.000Z</time></trkpt>
        <trkpt lat="29.668799" lon="104.733618"><ele>611.364</ele><time>2026-04-10T22:44:29.000Z</time></trkpt>
        <trkpt lat="29.66875" lon="104.733643"><ele>610.82166</ele><time>2026-04-10T22:44:41.000Z</time></trkpt>
        <trkpt lat="29.668705" lon="104.733681"><ele>609.9317</ele><time>2026-04-10T22:44:45.000Z</time></trkpt>
        <trkpt lat="29.668657" lon="104.733704"><ele>608.8744</ele><time>2026-04-10T22:44:49.000Z</time></trkpt>
        <trkpt lat="29.668612" lon="104.733745"><ele>608.04114</ele><time>2026-04-10T22:44:53.000Z</time></trkpt>
        <trkpt lat="29.668579" lon="104.733783"><ele>607.4915</ele><time>2026-04-10T22:44:56.000Z</time></trkpt>
        <trkpt lat="29.668538" lon="104.733811"><ele>606.559</ele><time>2026-04-10T22:44:59.000Z</time></trkpt>
        <trkpt lat="29.668484" lon="104.733838"><ele>604.4365</ele><time>2026-04-10T22:45:03.000Z</time></trkpt>
        <trkpt lat="29.668443" lon="104.733864"><ele>603.40546</ele><time>2026-04-10T22:45:06.000Z</time></trkpt>
        <trkpt lat="29.668396" lon="104.733899"><ele>602.9431</ele><time>2026-04-10T22:45:10.000Z</time></trkpt>
        <trkpt lat="29.668347" lon="104.733943"><ele>602.82556</ele><time>2026-04-10T22:45:14.000Z</time></trkpt>
        <trkpt lat="29.668311" lon="104.733981"><ele>601.3598</ele><time>2026-04-10T22:45:17.000Z</time></trkpt>
        <trkpt lat="29.668268" lon="104.734012"><ele>601.3547</ele><time>2026-04-10T22:45:20.000Z</time></trkpt>
        <trkpt lat="29.668229" lon="104.734041"><ele>600.2706</ele><time>2026-04-10T22:45:23.000Z</time></trkpt>
        <trkpt lat="29.668189" lon="104.73407"><ele>599.4733</ele><time>2026-04-10T22:45:26.000Z</time></trkpt>
        <trkpt lat="29.668151" lon="104.734098"><ele>598.9336</ele><time>2026-04-10T22:46:16.000Z</time></trkpt>
        <trkpt lat="29.668111" lon="104.734133"><ele>598.1908</ele><time>2026-04-10T22:46:22.000Z</time></trkpt>
        <trkpt lat="29.66807" lon="104.734167"><ele>597.79926</ele><time>2026-04-10T22:46:26.000Z</time></trkpt>
        <trkpt lat="29.668028" lon="104.734208"><ele>597.60455</ele><time>2026-04-10T22:46:30.000Z</time></trkpt>
        <trkpt lat="29.66799" lon="104.734242"><ele>596.4131</ele><time>2026-04-10T22:46:34.000Z</time></trkpt>
        <trkpt lat="29.667947" lon="104.734267"><ele>595.8356</ele><time>2026-04-10T22:46:38.000Z</time></trkpt>
        <trkpt lat="29.667894" lon="104.734289"><ele>595.23944</ele><time>2026-04-10T22:46:43.000Z</time></trkpt>
        <trkpt lat="29.667846" lon="104.73431"><ele>594.3766</ele><time>2026-04-10T22:46:48.000Z</time></trkpt>
        <trkpt lat="29.667803" lon="104.734337"><ele>593.21313</ele><time>2026-04-10T22:46:58.000Z</time></trkpt>
        <trkpt lat="29.667759" lon="104.734368"><ele>592.08246</ele><time>2026-04-10T22:47:02.000Z</time></trkpt>
        <trkpt lat="29.667716" lon="104.734396"><ele>591.7712</ele><time>2026-04-10T22:47:07.000Z</time></trkpt>
        <trkpt lat="29.66776" lon="104.734423"><ele>589.4332</ele><time>2026-04-10T22:47:13.000Z</time></trkpt>
        <trkpt lat="29.66781" lon="104.734456"><ele>590.5379</ele><time>2026-04-10T22:47:17.000Z</time></trkpt>
        <trkpt lat="29.667865" lon="104.73446"><ele>591.1478</ele><time>2026-04-10T22:47:21.000Z</time></trkpt>
        <trkpt lat="29.66792" lon="104.734465"><ele>591.5502</ele><time>2026-04-10T22:47:25.000Z</time></trkpt>
        <trkpt lat="29.66798" lon="104.734461"><ele>591.9649</ele><time>2026-04-10T22:47:29.000Z</time></trkpt>
        <trkpt lat="29.668032" lon="104.734454"><ele>591.2364</ele><time>2026-04-10T22:47:33.000Z</time></trkpt>
        <trkpt lat="29.668085" lon="104.734439"><ele>591.7414</ele><time>2026-04-10T22:47:39.000Z</time></trkpt>
        <trkpt lat="29.668132" lon="104.734436"><ele>591.11536</ele><time>2026-04-10T22:47:43.000Z</time></trkpt>
        <trkpt lat="29.6681" lon="104.734481"><ele>590.6978</ele><time>2026-04-10T22:47:49.000Z</time></trkpt>
        <trkpt lat="29.668062" lon="104.734512"><ele>591.0567</ele><time>2026-04-10T22:47:57.000Z</time></trkpt>
        <trkpt lat="29.668118" lon="104.734525"><ele>590.4168</ele><time>2026-04-10T22:48:00.000Z</time></trkpt>
        <trkpt lat="29.668135" lon="104.734588"><ele>591.35767</ele><time>2026-04-10T22:48:04.000Z</time></trkpt>
        <trkpt lat="29.668138" lon="104.734654"><ele>590.95044</ele><time>2026-04-10T22:48:09.000Z</time></trkpt>
        <trkpt lat="29.668142" lon="104.734707"><ele>591.0266</ele><time>2026-04-10T22:48:12.000Z</time></trkpt>
        <trkpt lat="29.66813" lon="104.734766"><ele>589.6151</ele><time>2026-04-10T22:48:16.000Z</time></trkpt>
        <trkpt lat="29.668094" lon="104.734802"><ele>589.93445</ele><time>2026-04-10T22:48:19.000Z</time></trkpt>
        <trkpt lat="29.668049" lon="104.7348"><ele>590.673</ele><time>2026-04-10T22:48:23.000Z</time></trkpt>
        <trkpt lat="29.668007" lon="104.734827"><ele>590.9386</ele><time>2026-04-10T22:48:26.000Z</time></trkpt>
        <trkpt lat="29.667953" lon="104.73484"><ele>591.50476</ele><time>2026-04-10T22:48:31.000Z</time></trkpt>
        <trkpt lat="29.667904" lon="104.734842"><ele>591.3869</ele><time>2026-04-10T22:48:35.000Z</time></trkpt>
        <trkpt lat="29.667863" lon="104.734872"><ele>592.0758</ele><time>2026-04-10T22:48:40.000Z</time></trkpt>
        <trkpt lat="29.667814" lon="104.734871"><ele>591.47473</ele><time>2026-04-10T22:48:44.000Z</time></trkpt>
        <trkpt lat="29.667767" lon="104.73489"><ele>592.0464</ele><time>2026-04-10T22:48:47.000Z</time></trkpt>
        <trkpt lat="29.667719" lon="104.73492"><ele>592.58984</ele><time>2026-04-10T22:48:52.000Z</time></trkpt>
        <trkpt lat="29.667677" lon="104.734956"><ele>591.8752</ele><time>2026-04-10T22:48:57.000Z</time></trkpt>
        <trkpt lat="29.667726" lon="104.734922"><ele>591.14655</ele><time>2026-04-10T22:49:14.000Z</time></trkpt>
        <trkpt lat="29.667773" lon="104.734888"><ele>591.16644</ele><time>2026-04-10T22:49:18.000Z</time></trkpt>
        <trkpt lat="29.667827" lon="104.734872"><ele>591.0443</ele><time>2026-04-10T22:49:22.000Z</time></trkpt>
        <trkpt lat="29.667875" lon="104.734871"><ele>591.6043</ele><time>2026-04-10T22:49:26.000Z</time></trkpt>
        <trkpt lat="29.667844" lon="104.734915"><ele>594.7488</ele><time>2026-04-10T22:49:33.000Z</time></trkpt>
        <trkpt lat="29.667815" lon="104.734966"><ele>595.51807</ele><time>2026-04-10T22:49:43.000Z</time></trkpt>
        <trkpt lat="29.667861" lon="104.734988"><ele>594.4007</ele><time>2026-04-10T22:49:48.000Z</time></trkpt>
        <trkpt lat="29.66787" lon="104.735044"><ele>596.10187</ele><time>2026-04-10T22:49:53.000Z</time></trkpt>
        <trkpt lat="29.667857" lon="104.735104"><ele>598.55756</ele><time>2026-04-10T22:49:58.000Z</time></trkpt>
        <trkpt lat="29.667884" lon="104.735165"><ele>600.81165</ele><time>2026-04-10T22:50:05.000Z</time></trkpt>
        <trkpt lat="29.667911" lon="104.73522"><ele>603.101</ele><time>2026-04-10T22:50:10.000Z</time></trkpt>
        <trkpt lat="29.667876" lon="104.735279"><ele>605.05634</ele><time>2026-04-10T22:50:18.000Z</time></trkpt>
        <trkpt lat="29.66786" lon="104.735336"><ele>604.5182</ele><time>2026-04-10T22:50:22.000Z</time></trkpt>
        <trkpt lat="29.667874" lon="104.735395"><ele>604.5172</ele><time>2026-04-10T22:50:27.000Z</time></trkpt>
        <trkpt lat="29.667884" lon="104.735459"><ele>603.1737</ele><time>2026-04-10T22:50:33.000Z</time></trkpt>
        <trkpt lat="29.66784" lon="104.735476"><ele>603.08405</ele><time>2026-04-10T22:50:36.000Z</time></trkpt>
        <trkpt lat="29.667886" lon="104.735442"><ele>603.1442</ele><time>2026-04-10T22:50:44.000Z</time></trkpt>
        <trkpt lat="29.667932" lon="104.73546"><ele>603.2876</ele><time>2026-04-10T22:50:49.000Z</time></trkpt>
        <trkpt lat="29.667964" lon="104.735417"><ele>602.9746</ele><time>2026-04-10T22:51:05.000Z</time></trkpt>
        <trkpt lat="29.66802" lon="104.7354"><ele>603.33746</ele><time>2026-04-10T22:51:09.000Z</time></trkpt>
        <trkpt lat="29.668068" lon="104.735376"><ele>603.5964</ele><time>2026-04-10T22:51:13.000Z</time></trkpt>
        <trkpt lat="29.668121" lon="104.735371"><ele>603.0154</ele><time>2026-04-10T22:51:17.000Z</time></trkpt>
        <trkpt lat="29.668169" lon="104.735366"><ele>603.72815</ele><time>2026-04-10T22:51:20.000Z</time></trkpt>
        <trkpt lat="29.668224" lon="104.735356"><ele>604.6877</ele><time>2026-04-10T22:51:24.000Z</time></trkpt>
        <trkpt lat="29.668281" lon="104.735353"><ele>604.4927</ele><time>2026-04-10T22:51:28.000Z</time></trkpt>
        <trkpt lat="29.668334" lon="104.73534"><ele>603.9491</ele><time>2026-04-10T22:51:32.000Z</time></trkpt>
        <trkpt lat="29.668387" lon="104.735322"><ele>604.14484</ele><time>2026-04-10T22:51:36.000Z</time></trkpt>
        <trkpt lat="29.668439" lon="104.735301"><ele>604.02386</ele><time>2026-04-10T22:51:40.000Z</time></trkpt>
        <trkpt lat="29.66849" lon="104.735279"><ele>604.1758</ele><time>2026-04-10T22:51:44.000Z</time></trkpt>
        <trkpt lat="29.668543" lon="104.73525"><ele>604.45496</ele><time>2026-04-10T22:51:48.000Z</time></trkpt>
        <trkpt lat="29.668591" lon="104.735218"><ele>604.3284</ele><time>2026-04-10T22:51:52.000Z</time></trkpt>
        <trkpt lat="29.668634" lon="104.735183"><ele>604.4749</ele><time>2026-04-10T22:51:56.000Z</time></trkpt>
        <trkpt lat="29.668679" lon="104.73515"><ele>604.5475</ele><time>2026-04-10T22:52:00.000Z</time></trkpt>
        <trkpt lat="29.668725" lon="104.735113"><ele>603.6743</ele><time>2026-04-10T22:52:04.000Z</time></trkpt>
        <trkpt lat="29.668779" lon="104.735089"><ele>604.912</ele><time>2026-04-10T22:52:08.000Z</time></trkpt>
        <trkpt lat="29.668833" lon="104.735062"><ele>605.6028</ele><time>2026-04-10T22:52:12.000Z</time></trkpt>
        <trkpt lat="29.668875" lon="104.735103"><ele>605.9876</ele><time>2026-04-10T22:52:19.000Z</time></trkpt>
        <trkpt lat="29.66891" lon="104.735143"><ele>604.37976</ele><time>2026-04-10T22:52:25.000Z</time></trkpt>
        <trkpt lat="29.668878" lon="104.735079"><ele>606.5928</ele><time>2026-04-10T22:52:38.000Z</time></trkpt>
        <trkpt lat="29.6689" lon="104.735029"><ele>606.9458</ele><time>2026-04-10T22:52:43.000Z</time></trkpt>
        <trkpt lat="29.668953" lon="104.735011"><ele>607.785</ele><time>2026-04-10T22:52:46.000Z</time></trkpt>
        <trkpt lat="29.668991" lon="104.734973"><ele>608.56335</ele><time>2026-04-10T22:52:50.000Z</time></trkpt>
        <trkpt lat="29.669035" lon="104.734936"><ele>609.0371</ele><time>2026-04-10T22:52:54.000Z</time></trkpt>
        <trkpt lat="29.669076" lon="104.734895"><ele>610.1744</ele><time>2026-04-10T22:52:59.000Z</time></trkpt>
        <trkpt lat="29.669123" lon="104.73487"><ele>610.47186</ele><time>2026-04-10T22:53:03.000Z</time></trkpt>
        <trkpt lat="29.669167" lon="104.734848"><ele>611.6173</ele><time>2026-04-10T22:53:07.000Z</time></trkpt>
        <trkpt lat="29.669204" lon="104.734814"><ele>612.2432</ele><time>2026-04-10T22:53:11.000Z</time></trkpt>
        <trkpt lat="29.669236" lon="104.734766"><ele>613.2781</ele><time>2026-04-10T22:53:15.000Z</time></trkpt>
        <trkpt lat="29.669279" lon="104.734731"><ele>613.9608</ele><time>2026-04-10T22:53:19.000Z</time></trkpt>
        <trkpt lat="29.669328" lon="104.734693"><ele>615.46326</ele><time>2026-04-10T22:53:24.000Z</time></trkpt>
        <trkpt lat="29.669377" lon="104.734666"><ele>616.9436</ele><time>2026-04-10T22:53:29.000Z</time></trkpt>
        <trkpt lat="29.669426" lon="104.734673"><ele>616.1641</ele><time>2026-04-10T22:53:33.000Z</time></trkpt>
        <trkpt lat="29.669476" lon="104.734662"><ele>616.13007</ele><time>2026-04-10T22:53:38.000Z</time></trkpt>
        <trkpt lat="29.669521" lon="104.734637"><ele>615.6959</ele><time>2026-04-10T22:53:42.000Z</time></trkpt>
        <trkpt lat="29.669562" lon="104.73461"><ele>615.22125</ele><time>2026-04-10T22:53:46.000Z</time></trkpt>
        <trkpt lat="29.669617" lon="104.734599"><ele>615.17615</ele><time>2026-04-10T22:53:51.000Z</time></trkpt>
        <trkpt lat="29.669659" lon="104.734571"><ele>614.624</ele><time>2026-04-10T22:53:55.000Z</time></trkpt>
        <trkpt lat="29.669699" lon="104.734534"><ele>614.64355</ele><time>2026-04-10T22:53:59.000Z</time></trkpt>
        <trkpt lat="29.669746" lon="104.734521"><ele>613.76013</ele><time>2026-04-10T22:54:03.000Z</time></trkpt>
        <trkpt lat="29.6698" lon="104.734517"><ele>613.9014</ele><time>2026-04-10T22:54:07.000Z</time></trkpt>
        <trkpt lat="29.669844" lon="104.734527"><ele>614.2569</ele><time>2026-04-10T22:54:11.000Z</time></trkpt>
        <trkpt lat="29.669906" lon="104.734512"><ele>612.8948</ele><time>2026-04-10T22:54:19.000Z</time></trkpt>
        <trkpt lat="29.66996" lon="104.734489"><ele>613.2248</ele><time>2026-04-10T22:54:24.000Z</time></trkpt>
        <trkpt lat="29.670006" lon="104.734472"><ele>613.0003</ele><time>2026-04-10T22:54:30.000Z</time></trkpt>
        <trkpt lat="29.670047" lon="104.734448"><ele>613.58826</ele><time>2026-04-10T22:54:33.000Z</time></trkpt>
        <trkpt lat="29.670101" lon="104.73444"><ele>614.96173</ele><time>2026-04-10T22:54:37.000Z</time></trkpt>
        <trkpt lat="29.670145" lon="104.734425"><ele>616.69275</ele><time>2026-04-10T22:54:41.000Z</time></trkpt>
        <trkpt lat="29.670198" lon="104.734441"><ele>620.6383</ele><time>2026-04-10T22:54:45.000Z</time></trkpt>
        <trkpt lat="29.670249" lon="104.734469"><ele>622.61646</ele><time>2026-04-10T22:54:50.000Z</time></trkpt>
        <trkpt lat="29.670274" lon="104.734525"><ele>624.1234</ele><time>2026-04-10T22:54:55.000Z</time></trkpt>
        <trkpt lat="29.670265" lon="104.734579"><ele>623.47034</ele><time>2026-04-10T22:54:59.000Z</time></trkpt>
        <trkpt lat="29.670271" lon="104.734632"><ele>621.3101</ele><time>2026-04-10T22:55:05.000Z</time></trkpt>
        <trkpt lat="29.670262" lon="104.734683"><ele>621.4875</ele><time>2026-04-10T22:55:10.000Z</time></trkpt>
        <trkpt lat="29.670261" lon="104.734742"><ele>616.7734</ele><time>2026-04-10T22:55:15.000Z</time></trkpt>
        <trkpt lat="29.670268" lon="104.734806"><ele>615.5535</ele><time>2026-04-10T22:55:19.000Z</time></trkpt>
        <trkpt lat="29.670262" lon="104.734867"><ele>615.42303</ele><time>2026-04-10T22:55:23.000Z</time></trkpt>
        <trkpt lat="29.670274" lon="104.734925"><ele>614.9598</ele><time>2026-04-10T22:55:27.000Z</time></trkpt>
        <trkpt lat="29.670291" lon="104.73498"><ele>615.0669</ele><time>2026-04-10T22:55:31.000Z</time></trkpt>
        <trkpt lat="29.670306" lon="104.73503"><ele>615.68945</ele><time>2026-04-10T22:55:35.000Z</time></trkpt>
        <trkpt lat="29.670323" lon="104.735087"><ele>616.59344</ele><time>2026-04-10T22:55:41.000Z</time></trkpt>
        <trkpt lat="29.670342" lon="104.735134"><ele>616.95593</ele><time>2026-04-10T22:55:45.000Z</time></trkpt>
        <trkpt lat="29.670324" lon="104.735184"><ele>615.86755</ele><time>2026-04-10T22:56:05.000Z</time></trkpt>
        <trkpt lat="29.670292" lon="104.735234"><ele>617.1858</ele><time>2026-04-10T22:56:11.000Z</time></trkpt>
        <trkpt lat="29.670283" lon="104.735285"><ele>617.1102</ele><time>2026-04-10T22:56:18.000Z</time></trkpt>
        <trkpt lat="29.670235" lon="104.735314"><ele>616.9878</ele><time>2026-04-10T22:56:50.000Z</time></trkpt>
        <trkpt lat="29.670198" lon="104.735357"><ele>617.303</ele><time>2026-04-10T22:56:56.000Z</time></trkpt>
        <trkpt lat="29.670173" lon="104.735408"><ele>617.3152</ele><time>2026-04-10T22:57:15.000Z</time></trkpt>
        <trkpt lat="29.670149" lon="104.735466"><ele>617.6761</ele><time>2026-04-10T22:57:24.000Z</time></trkpt>
        <trkpt lat="29.670124" lon="104.735518"><ele>618.8028</ele><time>2026-04-10T22:57:29.000Z</time></trkpt>
        <trkpt lat="29.670109" lon="104.735568"><ele>619.7519</ele><time>2026-04-10T22:57:57.000Z</time></trkpt>
        <trkpt lat="29.670078" lon="104.735615"><ele>619.4552</ele><time>2026-04-10T22:58:16.000Z</time></trkpt>
        <trkpt lat="29.670057" lon="104.735672"><ele>620.6036</ele><time>2026-04-10T22:58:22.000Z</time></trkpt>
        <trkpt lat="29.670032" lon="104.735718"><ele>621.2896</ele><time>2026-04-10T22:58:27.000Z</time></trkpt>
        <trkpt lat="29.670008" lon="104.73577"><ele>621.81805</ele><time>2026-04-10T22:58:32.000Z</time></trkpt>
        <trkpt lat="29.669984" lon="104.735825"><ele>622.09906</ele><time>2026-04-10T22:58:36.000Z</time></trkpt>
        <trkpt lat="29.669958" lon="104.735869"><ele>622.63385</ele><time>2026-04-10T22:58:40.000Z</time></trkpt>
        <trkpt lat="29.669937" lon="104.735919"><ele>623.9956</ele><time>2026-04-10T22:59:01.000Z</time></trkpt>
        <trkpt lat="29.669915" lon="104.735974"><ele>623.0516</ele><time>2026-04-10T22:59:05.000Z</time></trkpt>
        <trkpt lat="29.669879" lon="104.736021"><ele>623.0482</ele><time>2026-04-10T22:59:09.000Z</time></trkpt>
        <trkpt lat="29.66984" lon="104.736062"><ele>624.1433</ele><time>2026-04-10T22:59:13.000Z</time></trkpt>
        <trkpt lat="29.669797" lon="104.736091"><ele>622.9832</ele><time>2026-04-10T22:59:17.000Z</time></trkpt>
        <trkpt lat="29.669757" lon="104.736131"><ele>623.3033</ele><time>2026-04-10T22:59:21.000Z</time></trkpt>
        <trkpt lat="29.669712" lon="104.73616"><ele>622.2403</ele><time>2026-04-10T22:59:26.000Z</time></trkpt>
        <trkpt lat="29.669667" lon="104.736179"><ele>622.74664</ele><time>2026-04-10T22:59:30.000Z</time></trkpt>
        <trkpt lat="29.669623" lon="104.736208"><ele>621.69037</ele><time>2026-04-10T22:59:34.000Z</time></trkpt>
        <trkpt lat="29.669569" lon="104.736234"><ele>621.58734</ele><time>2026-04-10T22:59:38.000Z</time></trkpt>
        <trkpt lat="29.669529" lon="104.736287"><ele>620.88354</ele><time>2026-04-10T22:59:43.000Z</time></trkpt>
        <trkpt lat="29.669497" lon="104.736336"><ele>619.5311</ele><time>2026-04-10T22:59:47.000Z</time></trkpt>
        <trkpt lat="29.669481" lon="104.736385"><ele>620.6719</ele><time>2026-04-10T22:59:50.000Z</time></trkpt>
        <trkpt lat="29.669474" lon="104.736441"><ele>621.0923</ele><time>2026-04-10T22:59:54.000Z</time></trkpt>
        <trkpt lat="29.669486" lon="104.736507"><ele>620.9114</ele><time>2026-04-10T22:59:59.000Z</time></trkpt>
        <trkpt lat="29.669517" lon="104.736558"><ele>620.19464</ele><time>2026-04-10T23:00:04.000Z</time></trkpt>
        <trkpt lat="29.669542" lon="104.736604"><ele>619.6931</ele><time>2026-04-10T23:00:08.000Z</time></trkpt>
        <trkpt lat="29.669571" lon="104.736658"><ele>619.3877</ele><time>2026-04-10T23:00:13.000Z</time></trkpt>
        <trkpt lat="29.669588" lon="104.736722"><ele>619.03625</ele><time>2026-04-10T23:00:18.000Z</time></trkpt>
        <trkpt lat="29.669611" lon="104.736777"><ele>618.4438</ele><time>2026-04-10T23:00:24.000Z</time></trkpt>
        <trkpt lat="29.669631" lon="104.736827"><ele>618.4118</ele><time>2026-04-10T23:00:28.000Z</time></trkpt>
        <trkpt lat="29.669647" lon="104.736885"><ele>617.19995</ele><time>2026-04-10T23:00:33.000Z</time></trkpt>
        <trkpt lat="29.669668" lon="104.736936"><ele>617.47797</ele><time>2026-04-10T23:00:37.000Z</time></trkpt>
        <trkpt lat="29.669694" lon="104.736989"><ele>617.7246</ele><time>2026-04-10T23:00:41.000Z</time></trkpt>
        <trkpt lat="29.669714" lon="104.737039"><ele>618.43445</ele><time>2026-04-10T23:00:45.000Z</time></trkpt>
        <trkpt lat="29.669742" lon="104.737088"><ele>618.87646</ele><time>2026-04-10T23:00:49.000Z</time></trkpt>
        <trkpt lat="29.669761" lon="104.737147"><ele>619.0549</ele><time>2026-04-10T23:00:54.000Z</time></trkpt>
        <trkpt lat="29.669783" lon="104.737203"><ele>618.9635</ele><time>2026-04-10T23:00:59.000Z</time></trkpt>
        <trkpt lat="29.669801" lon="104.737252"><ele>619.07324</ele><time>2026-04-10T23:01:03.000Z</time></trkpt>
        <trkpt lat="29.669837" lon="104.737297"><ele>619.3279</ele><time>2026-04-10T23:01:08.000Z</time></trkpt>
        <trkpt lat="29.669883" lon="104.737343"><ele>619.977</ele><time>2026-04-10T23:01:13.000Z</time></trkpt>
        <trkpt lat="29.669917" lon="104.737393"><ele>618.9706</ele><time>2026-04-10T23:01:18.000Z</time></trkpt>
        <trkpt lat="29.669933" lon="104.737459"><ele>619.1483</ele><time>2026-04-10T23:01:22.000Z</time></trkpt>
        <trkpt lat="29.66994" lon="104.737524"><ele>620.4816</ele><time>2026-04-10T23:01:26.000Z</time></trkpt>
        <trkpt lat="29.669966" lon="104.737581"><ele>619.0237</ele><time>2026-04-10T23:01:31.000Z</time></trkpt>
        <trkpt lat="29.66998" lon="104.73763"><ele>619.22656</ele><time>2026-04-10T23:01:35.000Z</time></trkpt>
        <trkpt lat="29.669988" lon="104.737685"><ele>619.2146</ele><time>2026-04-10T23:01:39.000Z</time></trkpt>
        <trkpt lat="29.669973" lon="104.737743"><ele>619.123</ele><time>2026-04-10T23:01:43.000Z</time></trkpt>
        <trkpt lat="29.669951" lon="104.737793"><ele>620.4741</ele><time>2026-04-10T23:01:47.000Z</time></trkpt>
        <trkpt lat="29.669918" lon="104.737845"><ele>621.50024</ele><time>2026-04-10T23:01:51.000Z</time></trkpt>
        <trkpt lat="29.669883" lon="104.737894"><ele>620.8594</ele><time>2026-04-10T23:01:55.000Z</time></trkpt>
        <trkpt lat="29.66985" lon="104.737936"><ele>622.8026</ele><time>2026-04-10T23:01:59.000Z</time></trkpt>
        <trkpt lat="29.669822" lon="104.737991"><ele>623.1092</ele><time>2026-04-10T23:02:04.000Z</time></trkpt>
        <trkpt lat="29.6698" lon="104.73805"><ele>622.9563</ele><time>2026-04-10T23:02:09.000Z</time></trkpt>
        <trkpt lat="29.669775" lon="104.738099"><ele>623.3922</ele><time>2026-04-10T23:02:13.000Z</time></trkpt>
        <trkpt lat="29.669747" lon="104.738142"><ele>623.99493</ele><time>2026-04-10T23:02:17.000Z</time></trkpt>
        <trkpt lat="29.669712" lon="104.738185"><ele>623.92773</ele><time>2026-04-10T23:02:21.000Z</time></trkpt>
        <trkpt lat="29.669669" lon="104.738219"><ele>623.1725</ele><time>2026-04-10T23:02:25.000Z</time></trkpt>
        <trkpt lat="29.669628" lon="104.738247"><ele>623.5271</ele><time>2026-04-10T23:02:29.000Z</time></trkpt>
        <trkpt lat="29.669581" lon="104.738276"><ele>623.25903</ele><time>2026-04-10T23:02:33.000Z</time></trkpt>
        <trkpt lat="29.669532" lon="104.73829"><ele>623.413</ele><time>2026-04-10T23:02:37.000Z</time></trkpt>
        <trkpt lat="29.66948" lon="104.738306"><ele>622.1977</ele><time>2026-04-10T23:02:41.000Z</time></trkpt>
        <trkpt lat="29.669438" lon="104.738335"><ele>621.3119</ele><time>2026-04-10T23:02:45.000Z</time></trkpt>
        <trkpt lat="29.66939" lon="104.738363"><ele>621.35895</ele><time>2026-04-10T23:02:49.000Z</time></trkpt>
        <trkpt lat="29.669351" lon="104.738397"><ele>621.1429</ele><time>2026-04-10T23:02:53.000Z</time></trkpt>
        <trkpt lat="29.669309" lon="104.738438"><ele>620.7634</ele><time>2026-04-10T23:02:58.000Z</time></trkpt>
        <trkpt lat="29.669273" lon="104.738475"><ele>620.40594</ele><time>2026-04-10T23:03:02.000Z</time></trkpt>
        <trkpt lat="29.669238" lon="104.738511"><ele>619.98865</ele><time>2026-04-10T23:03:06.000Z</time></trkpt>
        <trkpt lat="29.6692" lon="104.738543"><ele>620.366</ele><time>2026-04-10T23:03:10.000Z</time></trkpt>
        <trkpt lat="29.669152" lon="104.73856"><ele>620.81323</ele><time>2026-04-10T23:03:14.000Z</time></trkpt>
        <trkpt lat="29.669112" lon="104.738588"><ele>621.0106</ele><time>2026-04-10T23:03:17.000Z</time></trkpt>
        <trkpt lat="29.669065" lon="104.738624"><ele>619.9332</ele><time>2026-04-10T23:03:22.000Z</time></trkpt>
        <trkpt lat="29.669029" lon="104.738657"><ele>618.945</ele><time>2026-04-10T23:03:26.000Z</time></trkpt>
        <trkpt lat="29.669012" lon="104.738718"><ele>619.0275</ele><time>2026-04-10T23:03:31.000Z</time></trkpt>
        <trkpt lat="29.669019" lon="104.73878"><ele>619.1464</ele><time>2026-04-10T23:03:35.000Z</time></trkpt>
        <trkpt lat="29.669043" lon="104.738827"><ele>619.729</ele><time>2026-04-10T23:03:39.000Z</time></trkpt>
        <trkpt lat="29.669077" lon="104.738869"><ele>620.77563</ele><time>2026-04-10T23:03:44.000Z</time></trkpt>
        <trkpt lat="29.669119" lon="104.738896"><ele>621.49084</ele><time>2026-04-10T23:03:48.000Z</time></trkpt>
        <trkpt lat="29.669148" lon="104.738942"><ele>622.19446</ele><time>2026-04-10T23:03:52.000Z</time></trkpt>
        <trkpt lat="29.669177" lon="104.738996"><ele>623.168</ele><time>2026-04-10T23:03:56.000Z</time></trkpt>
        <trkpt lat="29.669199" lon="104.739047"><ele>623.2922</ele><time>2026-04-10T23:04:00.000Z</time></trkpt>
        <trkpt lat="29.66923" lon="104.739086"><ele>623.4937</ele><time>2026-04-10T23:04:04.000Z</time></trkpt>
        <trkpt lat="29.669259" lon="104.739131"><ele>625.3426</ele><time>2026-04-10T23:04:08.000Z</time></trkpt>
        <trkpt lat="29.669274" lon="104.739188"><ele>625.4362</ele><time>2026-04-10T23:04:24.000Z</time></trkpt>
        <trkpt lat="29.669292" lon="104.739239"><ele>624.81213</ele><time>2026-04-10T23:04:39.000Z</time></trkpt>
        <trkpt lat="29.669289" lon="104.739312"><ele>621.7601</ele><time>2026-04-10T23:07:12.000Z</time></trkpt>
        <trkpt lat="29.669312" lon="104.739368"><ele>622.50714</ele><time>2026-04-10T23:07:15.000Z</time></trkpt>
        <trkpt lat="29.669334" lon="104.739416"><ele>623.7366</ele><time>2026-04-10T23:07:18.000Z</time></trkpt>
        <trkpt lat="29.669341" lon="104.739481"><ele>621.0091</ele><time>2026-04-10T23:07:24.000Z</time></trkpt>
        <trkpt lat="29.669366" lon="104.739534"><ele>619.95654</ele><time>2026-04-10T23:07:28.000Z</time></trkpt>
        <trkpt lat="29.669394" lon="104.739583"><ele>621.42664</ele><time>2026-04-10T23:07:32.000Z</time></trkpt>
        <trkpt lat="29.669428" lon="104.739624"><ele>620.85126</ele><time>2026-04-10T23:07:37.000Z</time></trkpt>
      </trkseg>
      <trkseg>
        <trkpt lat="29.669446" lon="104.740124"><ele>620.8535</ele><time>2026-04-10T23:09:03.000Z</time></trkpt>
        <trkpt lat="29.669423" lon="104.740171"><ele>621.15393</ele><time>2026-04-10T23:09:07.000Z</time></trkpt>
        <trkpt lat="29.669405" lon="104.74022"><ele>621.6994</ele><time>2026-04-10T23:09:10.000Z</time></trkpt>
      </trkseg>
  </trk>
</gpx>